<?xml version="1.0" encoding="UTF-8" standalone="no" ?>
<gpx xmlns="http://www.topografix.com/GPX/1/1" xmlns:xsi="http://www.w3.org/2001/XMLSchema-instance" xsi:schemaLocation="http://www.topografix.com/GPX/1/1 http://www.topografix.com/GPX/1/1/gpx.xsd" version="1.1" creator="VisuGPX - https://www.visugpx.com">
  <metadata>
    <name>Donjon Olivet</name>
    <desc><![CDATA[Rando Donjon Olivet du 3 novembre 2011]]></desc>
  </metadata>
  <trk>
    <name><![CDATA[Donjon Olivet]]></name>
    <trkseg>
      <trkpt lat="47.84802" lon="1.86292">
        <ele>200</ele>
        <time>2013-11-03T13:11:25Z</time>
      </trkpt>
      <trkpt lat="47.84815" lon="1.86268">
        <ele>205</ele>
        <time>2013-11-03T13:11:27Z</time>
      </trkpt>
      <trkpt lat="47.8482" lon="1.86273">
        <ele>216</ele>
        <time>2013-11-03T13:11:28Z</time>
      </trkpt>
      <trkpt lat="47.84831" lon="1.86274">
        <ele>219</ele>
        <time>2013-11-03T13:11:29Z</time>
      </trkpt>
      <trkpt lat="47.84835" lon="1.86283">
        <ele>220</ele>
        <time>2013-11-03T13:11:30Z</time>
      </trkpt>
      <trkpt lat="47.84826" lon="1.86279">
        <ele>120</ele>
        <time>2013-11-03T13:11:31Z</time>
      </trkpt>
      <trkpt lat="47.84835" lon="1.86282">
        <ele>106</ele>
        <time>2013-11-03T13:11:32Z</time>
      </trkpt>
      <trkpt lat="47.8483" lon="1.86285">
        <ele>102</ele>
        <time>2013-11-03T13:11:33Z</time>
      </trkpt>
      <trkpt lat="47.84825" lon="1.8629">
        <ele>123</ele>
        <time>2013-11-03T13:11:34Z</time>
      </trkpt>
      <trkpt lat="47.84823" lon="1.863">
        <ele>152</ele>
        <time>2013-11-03T13:11:35Z</time>
      </trkpt>
      <trkpt lat="47.84823" lon="1.86307">
        <ele>152</ele>
        <time>2013-11-03T13:11:37Z</time>
      </trkpt>
      <trkpt lat="47.84827" lon="1.86299">
        <ele>123</ele>
        <time>2013-11-03T13:11:40Z</time>
      </trkpt>
      <trkpt lat="47.84832" lon="1.86306">
        <ele>97</ele>
        <time>2013-11-03T13:11:45Z</time>
      </trkpt>
      <trkpt lat="47.84824" lon="1.86313">
        <ele>98</ele>
        <time>2013-11-03T13:11:46Z</time>
      </trkpt>
      <trkpt lat="47.84827" lon="1.86307">
        <ele>64</ele>
        <time>2013-11-03T13:11:49Z</time>
      </trkpt>
      <trkpt lat="47.8478" lon="1.86351">
        <ele>99</ele>
        <time>2013-11-03T13:12:29Z</time>
      </trkpt>
      <trkpt lat="47.84776" lon="1.86356">
        <ele>98</ele>
        <time>2013-11-03T13:12:33Z</time>
      </trkpt>
      <trkpt lat="47.84772" lon="1.86358">
        <ele>100</ele>
        <time>2013-11-03T13:12:37Z</time>
      </trkpt>
      <trkpt lat="47.84767" lon="1.86362">
        <ele>101</ele>
        <time>2013-11-03T13:12:41Z</time>
      </trkpt>
      <trkpt lat="47.84761" lon="1.86367">
        <ele>104</ele>
        <time>2013-11-03T13:12:45Z</time>
      </trkpt>
      <trkpt lat="47.84757" lon="1.86371">
        <ele>105</ele>
        <time>2013-11-03T13:12:48Z</time>
      </trkpt>
      <trkpt lat="47.84751" lon="1.86374">
        <ele>106</ele>
        <time>2013-11-03T13:12:51Z</time>
      </trkpt>
      <trkpt lat="47.84747" lon="1.86377">
        <ele>106</ele>
        <time>2013-11-03T13:12:54Z</time>
      </trkpt>
      <trkpt lat="47.84742" lon="1.86381">
        <ele>105</ele>
        <time>2013-11-03T13:12:57Z</time>
      </trkpt>
      <trkpt lat="47.84737" lon="1.86384">
        <ele>107</ele>
        <time>2013-11-03T13:13:00Z</time>
      </trkpt>
      <trkpt lat="47.84733" lon="1.86387">
        <ele>109</ele>
        <time>2013-11-03T13:13:03Z</time>
      </trkpt>
      <trkpt lat="47.84728" lon="1.86387">
        <ele>107</ele>
        <time>2013-11-03T13:13:06Z</time>
      </trkpt>
      <trkpt lat="47.84724" lon="1.86389">
        <ele>107</ele>
        <time>2013-11-03T13:13:09Z</time>
      </trkpt>
      <trkpt lat="47.8472" lon="1.86391">
        <ele>109</ele>
        <time>2013-11-03T13:13:12Z</time>
      </trkpt>
      <trkpt lat="47.84715" lon="1.86393">
        <ele>110</ele>
        <time>2013-11-03T13:13:15Z</time>
      </trkpt>
      <trkpt lat="47.8471" lon="1.86396">
        <ele>109</ele>
        <time>2013-11-03T13:13:19Z</time>
      </trkpt>
      <trkpt lat="47.84705" lon="1.86397">
        <ele>107</ele>
        <time>2013-11-03T13:13:23Z</time>
      </trkpt>
      <trkpt lat="47.84694" lon="1.86401">
        <ele>109</ele>
        <time>2013-11-03T13:13:31Z</time>
      </trkpt>
      <trkpt lat="47.8469" lon="1.86403">
        <ele>110</ele>
        <time>2013-11-03T13:13:34Z</time>
      </trkpt>
      <trkpt lat="47.84685" lon="1.86405">
        <ele>109</ele>
        <time>2013-11-03T13:13:37Z</time>
      </trkpt>
      <trkpt lat="47.8468" lon="1.86409">
        <ele>108</ele>
        <time>2013-11-03T13:13:41Z</time>
      </trkpt>
      <trkpt lat="47.84675" lon="1.86411">
        <ele>109</ele>
        <time>2013-11-03T13:13:45Z</time>
      </trkpt>
      <trkpt lat="47.84671" lon="1.86414">
        <ele>109</ele>
        <time>2013-11-03T13:13:48Z</time>
      </trkpt>
      <trkpt lat="47.84666" lon="1.86417">
        <ele>107</ele>
        <time>2013-11-03T13:13:51Z</time>
      </trkpt>
      <trkpt lat="47.84662" lon="1.8642">
        <ele>106</ele>
        <time>2013-11-03T13:13:54Z</time>
      </trkpt>
      <trkpt lat="47.84657" lon="1.86422">
        <ele>107</ele>
        <time>2013-11-03T13:13:57Z</time>
      </trkpt>
      <trkpt lat="47.84652" lon="1.86424">
        <ele>104</ele>
        <time>2013-11-03T13:14:01Z</time>
      </trkpt>
      <trkpt lat="47.84642" lon="1.86428">
        <ele>105</ele>
        <time>2013-11-03T13:14:09Z</time>
      </trkpt>
      <trkpt lat="47.84637" lon="1.8643">
        <ele>106</ele>
        <time>2013-11-03T13:14:13Z</time>
      </trkpt>
      <trkpt lat="47.84632" lon="1.86433">
        <ele>105</ele>
        <time>2013-11-03T13:14:16Z</time>
      </trkpt>
      <trkpt lat="47.84627" lon="1.86436">
        <ele>106</ele>
        <time>2013-11-03T13:14:19Z</time>
      </trkpt>
      <trkpt lat="47.84623" lon="1.86438">
        <ele>103</ele>
        <time>2013-11-03T13:14:22Z</time>
      </trkpt>
      <trkpt lat="47.84618" lon="1.86443">
        <ele>104</ele>
        <time>2013-11-03T13:14:25Z</time>
      </trkpt>
      <trkpt lat="47.84613" lon="1.86447">
        <ele>107</ele>
        <time>2013-11-03T13:14:29Z</time>
      </trkpt>
      <trkpt lat="47.84608" lon="1.8645">
        <ele>106</ele>
        <time>2013-11-03T13:14:33Z</time>
      </trkpt>
      <trkpt lat="47.84603" lon="1.86454">
        <ele>106</ele>
        <time>2013-11-03T13:14:37Z</time>
      </trkpt>
      <trkpt lat="47.84598" lon="1.86456">
        <ele>107</ele>
        <time>2013-11-03T13:14:40Z</time>
      </trkpt>
      <trkpt lat="47.84593" lon="1.86456">
        <ele>106</ele>
        <time>2013-11-03T13:14:43Z</time>
      </trkpt>
      <trkpt lat="47.84588" lon="1.86456">
        <ele>106</ele>
        <time>2013-11-03T13:14:46Z</time>
      </trkpt>
      <trkpt lat="47.84579" lon="1.86454">
        <ele>109</ele>
        <time>2013-11-03T13:14:52Z</time>
      </trkpt>
      <trkpt lat="47.84573" lon="1.86449">
        <ele>110</ele>
        <time>2013-11-03T13:14:55Z</time>
      </trkpt>
      <trkpt lat="47.8457" lon="1.86443">
        <ele>109</ele>
        <time>2013-11-03T13:14:58Z</time>
      </trkpt>
      <trkpt lat="47.84568" lon="1.86435">
        <ele>105</ele>
        <time>2013-11-03T13:15:02Z</time>
      </trkpt>
      <trkpt lat="47.84565" lon="1.86428">
        <ele>104</ele>
        <time>2013-11-03T13:15:06Z</time>
      </trkpt>
      <trkpt lat="47.84562" lon="1.86422">
        <ele>102</ele>
        <time>2013-11-03T13:15:10Z</time>
      </trkpt>
      <trkpt lat="47.84557" lon="1.86419">
        <ele>103</ele>
        <time>2013-11-03T13:15:14Z</time>
      </trkpt>
      <trkpt lat="47.84553" lon="1.86418">
        <ele>101</ele>
        <time>2013-11-03T13:15:18Z</time>
      </trkpt>
      <trkpt lat="47.84549" lon="1.86414">
        <ele>98</ele>
        <time>2013-11-03T13:15:22Z</time>
      </trkpt>
      <trkpt lat="47.84534" lon="1.86411">
        <ele>99</ele>
        <time>2013-11-03T13:15:34Z</time>
      </trkpt>
      <trkpt lat="47.84529" lon="1.86413">
        <ele>101</ele>
        <time>2013-11-03T13:15:38Z</time>
      </trkpt>
      <trkpt lat="47.84525" lon="1.86419">
        <ele>103</ele>
        <time>2013-11-03T13:15:42Z</time>
      </trkpt>
      <trkpt lat="47.84519" lon="1.8642">
        <ele>105</ele>
        <time>2013-11-03T13:15:46Z</time>
      </trkpt>
      <trkpt lat="47.84514" lon="1.8642">
        <ele>107</ele>
        <time>2013-11-03T13:15:49Z</time>
      </trkpt>
      <trkpt lat="47.8451" lon="1.86419">
        <ele>105</ele>
        <time>2013-11-03T13:15:52Z</time>
      </trkpt>
      <trkpt lat="47.84506" lon="1.86415">
        <ele>104</ele>
        <time>2013-11-03T13:15:55Z</time>
      </trkpt>
      <trkpt lat="47.84504" lon="1.86408">
        <ele>103</ele>
        <time>2013-11-03T13:15:58Z</time>
      </trkpt>
      <trkpt lat="47.84502" lon="1.86402">
        <ele>103</ele>
        <time>2013-11-03T13:16:01Z</time>
      </trkpt>
      <trkpt lat="47.84501" lon="1.86395">
        <ele>106</ele>
        <time>2013-11-03T13:16:06Z</time>
      </trkpt>
      <trkpt lat="47.84494" lon="1.86369">
        <ele>111</ele>
        <time>2013-11-03T13:16:23Z</time>
      </trkpt>
      <trkpt lat="47.84491" lon="1.86362">
        <ele>113</ele>
        <time>2013-11-03T13:16:27Z</time>
      </trkpt>
      <trkpt lat="47.84489" lon="1.86356">
        <ele>115</ele>
        <time>2013-11-03T13:16:31Z</time>
      </trkpt>
      <trkpt lat="47.84486" lon="1.86349">
        <ele>112</ele>
        <time>2013-11-03T13:16:35Z</time>
      </trkpt>
      <trkpt lat="47.84485" lon="1.86342">
        <ele>109</ele>
        <time>2013-11-03T13:16:38Z</time>
      </trkpt>
      <trkpt lat="47.84481" lon="1.86335">
        <ele>107</ele>
        <time>2013-11-03T13:16:42Z</time>
      </trkpt>
      <trkpt lat="47.84478" lon="1.86328">
        <ele>105</ele>
        <time>2013-11-03T13:16:45Z</time>
      </trkpt>
      <trkpt lat="47.84476" lon="1.8632">
        <ele>107</ele>
        <time>2013-11-03T13:16:48Z</time>
      </trkpt>
      <trkpt lat="47.84474" lon="1.86312">
        <ele>105</ele>
        <time>2013-11-03T13:16:52Z</time>
      </trkpt>
      <trkpt lat="47.84473" lon="1.86305">
        <ele>107</ele>
        <time>2013-11-03T13:16:56Z</time>
      </trkpt>
      <trkpt lat="47.84468" lon="1.8629">
        <ele>108</ele>
        <time>2013-11-03T13:17:05Z</time>
      </trkpt>
      <trkpt lat="47.84468" lon="1.86282">
        <ele>105</ele>
        <time>2013-11-03T13:17:09Z</time>
      </trkpt>
      <trkpt lat="47.84467" lon="1.86274">
        <ele>102</ele>
        <time>2013-11-03T13:17:13Z</time>
      </trkpt>
      <trkpt lat="47.84469" lon="1.86267">
        <ele>104</ele>
        <time>2013-11-03T13:17:17Z</time>
      </trkpt>
      <trkpt lat="47.84472" lon="1.86262">
        <ele>105</ele>
        <time>2013-11-03T13:17:21Z</time>
      </trkpt>
      <trkpt lat="47.84475" lon="1.86257">
        <ele>106</ele>
        <time>2013-11-03T13:17:25Z</time>
      </trkpt>
      <trkpt lat="47.8448" lon="1.86253">
        <ele>105</ele>
        <time>2013-11-03T13:17:29Z</time>
      </trkpt>
      <trkpt lat="47.84486" lon="1.86251">
        <ele>108</ele>
        <time>2013-11-03T13:17:34Z</time>
      </trkpt>
      <trkpt lat="47.8449" lon="1.86245">
        <ele>107</ele>
        <time>2013-11-03T13:17:38Z</time>
      </trkpt>
      <trkpt lat="47.84496" lon="1.86224">
        <ele>110</ele>
        <time>2013-11-03T13:17:49Z</time>
      </trkpt>
      <trkpt lat="47.84496" lon="1.86217">
        <ele>111</ele>
        <time>2013-11-03T13:17:53Z</time>
      </trkpt>
      <trkpt lat="47.84499" lon="1.86211">
        <ele>108</ele>
        <time>2013-11-03T13:17:57Z</time>
      </trkpt>
      <trkpt lat="47.84503" lon="1.86207">
        <ele>107</ele>
        <time>2013-11-03T13:18:01Z</time>
      </trkpt>
      <trkpt lat="47.84507" lon="1.86202">
        <ele>108</ele>
        <time>2013-11-03T13:18:05Z</time>
      </trkpt>
      <trkpt lat="47.84509" lon="1.86195">
        <ele>109</ele>
        <time>2013-11-03T13:18:09Z</time>
      </trkpt>
      <trkpt lat="47.8451" lon="1.86189">
        <ele>107</ele>
        <time>2013-11-03T13:18:14Z</time>
      </trkpt>
      <trkpt lat="47.84511" lon="1.8618">
        <ele>108</ele>
        <time>2013-11-03T13:18:18Z</time>
      </trkpt>
      <trkpt lat="47.84513" lon="1.86172">
        <ele>106</ele>
        <time>2013-11-03T13:18:22Z</time>
      </trkpt>
      <trkpt lat="47.84509" lon="1.86149">
        <ele>105</ele>
        <time>2013-11-03T13:18:33Z</time>
      </trkpt>
      <trkpt lat="47.84509" lon="1.8614">
        <ele>106</ele>
        <time>2013-11-03T13:18:37Z</time>
      </trkpt>
      <trkpt lat="47.84507" lon="1.86133">
        <ele>108</ele>
        <time>2013-11-03T13:18:41Z</time>
      </trkpt>
      <trkpt lat="47.84505" lon="1.86126">
        <ele>109</ele>
        <time>2013-11-03T13:18:45Z</time>
      </trkpt>
      <trkpt lat="47.84505" lon="1.86119">
        <ele>113</ele>
        <time>2013-11-03T13:18:49Z</time>
      </trkpt>
      <trkpt lat="47.84509" lon="1.86112">
        <ele>111</ele>
        <time>2013-11-03T13:18:53Z</time>
      </trkpt>
      <trkpt lat="47.84508" lon="1.86106">
        <ele>110</ele>
        <time>2013-11-03T13:18:57Z</time>
      </trkpt>
      <trkpt lat="47.84509" lon="1.86098">
        <ele>114</ele>
        <time>2013-11-03T13:19:02Z</time>
      </trkpt>
      <trkpt lat="47.84509" lon="1.86091">
        <ele>113</ele>
        <time>2013-11-03T13:19:06Z</time>
      </trkpt>
      <trkpt lat="47.84511" lon="1.8606">
        <ele>106</ele>
        <time>2013-11-03T13:19:23Z</time>
      </trkpt>
      <trkpt lat="47.84513" lon="1.86054">
        <ele>106</ele>
        <time>2013-11-03T13:19:27Z</time>
      </trkpt>
      <trkpt lat="47.84514" lon="1.86047">
        <ele>105</ele>
        <time>2013-11-03T13:19:31Z</time>
      </trkpt>
      <trkpt lat="47.84514" lon="1.86039">
        <ele>108</ele>
        <time>2013-11-03T13:19:34Z</time>
      </trkpt>
      <trkpt lat="47.84513" lon="1.8603">
        <ele>110</ele>
        <time>2013-11-03T13:19:37Z</time>
      </trkpt>
      <trkpt lat="47.84512" lon="1.86024">
        <ele>109</ele>
        <time>2013-11-03T13:19:39Z</time>
      </trkpt>
      <trkpt lat="47.8451" lon="1.86016">
        <ele>109</ele>
        <time>2013-11-03T13:19:42Z</time>
      </trkpt>
      <trkpt lat="47.84511" lon="1.86009">
        <ele>110</ele>
        <time>2013-11-03T13:19:45Z</time>
      </trkpt>
      <trkpt lat="47.84511" lon="1.86001">
        <ele>110</ele>
        <time>2013-11-03T13:19:48Z</time>
      </trkpt>
      <trkpt lat="47.84513" lon="1.85993">
        <ele>108</ele>
        <time>2013-11-03T13:19:52Z</time>
      </trkpt>
      <trkpt lat="47.84514" lon="1.85986">
        <ele>103</ele>
        <time>2013-11-03T13:19:55Z</time>
      </trkpt>
      <trkpt lat="47.84518" lon="1.8598">
        <ele>104</ele>
        <time>2013-11-03T13:20:00Z</time>
      </trkpt>
      <trkpt lat="47.84526" lon="1.85971">
        <ele>111</ele>
        <time>2013-11-03T13:20:10Z</time>
      </trkpt>
      <trkpt lat="47.8453" lon="1.85966">
        <ele>106</ele>
        <time>2013-11-03T13:20:15Z</time>
      </trkpt>
      <trkpt lat="47.84535" lon="1.85961">
        <ele>105</ele>
        <time>2013-11-03T13:20:19Z</time>
      </trkpt>
      <trkpt lat="47.84539" lon="1.85958">
        <ele>101</ele>
        <time>2013-11-03T13:20:22Z</time>
      </trkpt>
      <trkpt lat="47.84542" lon="1.85952">
        <ele>100</ele>
        <time>2013-11-03T13:20:25Z</time>
      </trkpt>
      <trkpt lat="47.84546" lon="1.85949">
        <ele>101</ele>
        <time>2013-11-03T13:20:28Z</time>
      </trkpt>
      <trkpt lat="47.84551" lon="1.85945">
        <ele>103</ele>
        <time>2013-11-03T13:20:32Z</time>
      </trkpt>
      <trkpt lat="47.84555" lon="1.85943">
        <ele>102</ele>
        <time>2013-11-03T13:20:36Z</time>
      </trkpt>
      <trkpt lat="47.8456" lon="1.85939">
        <ele>101</ele>
        <time>2013-11-03T13:20:41Z</time>
      </trkpt>
      <trkpt lat="47.84564" lon="1.85932">
        <ele>100</ele>
        <time>2013-11-03T13:20:43Z</time>
      </trkpt>
      <trkpt lat="47.84565" lon="1.85918">
        <ele>105</ele>
        <time>2013-11-03T13:20:52Z</time>
      </trkpt>
      <trkpt lat="47.84561" lon="1.85913">
        <ele>104</ele>
        <time>2013-11-03T13:20:56Z</time>
      </trkpt>
      <trkpt lat="47.84558" lon="1.85906">
        <ele>100</ele>
        <time>2013-11-03T13:21:00Z</time>
      </trkpt>
      <trkpt lat="47.84557" lon="1.85899">
        <ele>98</ele>
        <time>2013-11-03T13:21:04Z</time>
      </trkpt>
      <trkpt lat="47.84554" lon="1.85893">
        <ele>102</ele>
        <time>2013-11-03T13:21:09Z</time>
      </trkpt>
      <trkpt lat="47.84554" lon="1.85886">
        <ele>104</ele>
        <time>2013-11-03T13:21:14Z</time>
      </trkpt>
      <trkpt lat="47.84553" lon="1.85878">
        <ele>104</ele>
        <time>2013-11-03T13:21:19Z</time>
      </trkpt>
      <trkpt lat="47.8455" lon="1.85871">
        <ele>101</ele>
        <time>2013-11-03T13:21:23Z</time>
      </trkpt>
      <trkpt lat="47.84534" lon="1.85852">
        <ele>100</ele>
        <time>2013-11-03T13:21:37Z</time>
      </trkpt>
      <trkpt lat="47.84531" lon="1.85846">
        <ele>97</ele>
        <time>2013-11-03T13:21:40Z</time>
      </trkpt>
      <trkpt lat="47.84527" lon="1.8584">
        <ele>99</ele>
        <time>2013-11-03T13:21:43Z</time>
      </trkpt>
      <trkpt lat="47.84523" lon="1.85836">
        <ele>97</ele>
        <time>2013-11-03T13:21:46Z</time>
      </trkpt>
      <trkpt lat="47.84521" lon="1.8583">
        <ele>100</ele>
        <time>2013-11-03T13:21:52Z</time>
      </trkpt>
      <trkpt lat="47.84518" lon="1.85824">
        <ele>102</ele>
        <time>2013-11-03T13:21:55Z</time>
      </trkpt>
      <trkpt lat="47.84515" lon="1.85818">
        <ele>104</ele>
        <time>2013-11-03T13:21:58Z</time>
      </trkpt>
      <trkpt lat="47.84511" lon="1.85813">
        <ele>104</ele>
        <time>2013-11-03T13:22:01Z</time>
      </trkpt>
      <trkpt lat="47.84507" lon="1.85808">
        <ele>105</ele>
        <time>2013-11-03T13:22:04Z</time>
      </trkpt>
      <trkpt lat="47.84505" lon="1.85801">
        <ele>104</ele>
        <time>2013-11-03T13:22:07Z</time>
      </trkpt>
      <trkpt lat="47.845" lon="1.85787">
        <ele>99</ele>
        <time>2013-11-03T13:22:16Z</time>
      </trkpt>
      <trkpt lat="47.84497" lon="1.85779">
        <ele>98</ele>
        <time>2013-11-03T13:22:20Z</time>
      </trkpt>
      <trkpt lat="47.84493" lon="1.85774">
        <ele>97</ele>
        <time>2013-11-03T13:22:23Z</time>
      </trkpt>
      <trkpt lat="47.84489" lon="1.85768">
        <ele>96</ele>
        <time>2013-11-03T13:22:26Z</time>
      </trkpt>
      <trkpt lat="47.84486" lon="1.85761">
        <ele>96</ele>
        <time>2013-11-03T13:22:29Z</time>
      </trkpt>
      <trkpt lat="47.84483" lon="1.85753">
        <ele>99</ele>
        <time>2013-11-03T13:22:32Z</time>
      </trkpt>
      <trkpt lat="47.8448" lon="1.85747">
        <ele>99</ele>
        <time>2013-11-03T13:22:35Z</time>
      </trkpt>
      <trkpt lat="47.84476" lon="1.85741">
        <ele>103</ele>
        <time>2013-11-03T13:22:39Z</time>
      </trkpt>
      <trkpt lat="47.84473" lon="1.85734">
        <ele>100</ele>
        <time>2013-11-03T13:22:43Z</time>
      </trkpt>
      <trkpt lat="47.84474" lon="1.85727">
        <ele>102</ele>
        <time>2013-11-03T13:22:47Z</time>
      </trkpt>
      <trkpt lat="47.84477" lon="1.85719">
        <ele>100</ele>
        <time>2013-11-03T13:22:50Z</time>
      </trkpt>
      <trkpt lat="47.84499" lon="1.85702">
        <ele>97</ele>
        <time>2013-11-03T13:23:08Z</time>
      </trkpt>
      <trkpt lat="47.84504" lon="1.85698">
        <ele>101</ele>
        <time>2013-11-03T13:23:13Z</time>
      </trkpt>
      <trkpt lat="47.84507" lon="1.85691">
        <ele>102</ele>
        <time>2013-11-03T13:23:17Z</time>
      </trkpt>
      <trkpt lat="47.84512" lon="1.85685">
        <ele>102</ele>
        <time>2013-11-03T13:23:21Z</time>
      </trkpt>
      <trkpt lat="47.84517" lon="1.85685">
        <ele>103</ele>
        <time>2013-11-03T13:23:24Z</time>
      </trkpt>
      <trkpt lat="47.84522" lon="1.85687">
        <ele>104</ele>
        <time>2013-11-03T13:23:27Z</time>
      </trkpt>
      <trkpt lat="47.84526" lon="1.8569">
        <ele>108</ele>
        <time>2013-11-03T13:23:30Z</time>
      </trkpt>
      <trkpt lat="47.84532" lon="1.85688">
        <ele>104</ele>
        <time>2013-11-03T13:23:35Z</time>
      </trkpt>
      <trkpt lat="47.84536" lon="1.85686">
        <ele>107</ele>
        <time>2013-11-03T13:23:37Z</time>
      </trkpt>
      <trkpt lat="47.8454" lon="1.85683">
        <ele>105</ele>
        <time>2013-11-03T13:23:40Z</time>
      </trkpt>
      <trkpt lat="47.84551" lon="1.85681">
        <ele>102</ele>
        <time>2013-11-03T13:23:47Z</time>
      </trkpt>
      <trkpt lat="47.84555" lon="1.85681">
        <ele>104</ele>
        <time>2013-11-03T13:23:50Z</time>
      </trkpt>
      <trkpt lat="47.8456" lon="1.8568">
        <ele>102</ele>
        <time>2013-11-03T13:23:55Z</time>
      </trkpt>
      <trkpt lat="47.84565" lon="1.85676">
        <ele>103</ele>
        <time>2013-11-03T13:23:58Z</time>
      </trkpt>
      <trkpt lat="47.8457" lon="1.85672">
        <ele>96</ele>
        <time>2013-11-03T13:24:02Z</time>
      </trkpt>
      <trkpt lat="47.84575" lon="1.8567">
        <ele>94</ele>
        <time>2013-11-03T13:24:05Z</time>
      </trkpt>
      <trkpt lat="47.84579" lon="1.85668">
        <ele>95</ele>
        <time>2013-11-03T13:24:08Z</time>
      </trkpt>
      <trkpt lat="47.84583" lon="1.85662">
        <ele>98</ele>
        <time>2013-11-03T13:24:11Z</time>
      </trkpt>
      <trkpt lat="47.84587" lon="1.85655">
        <ele>101</ele>
        <time>2013-11-03T13:24:14Z</time>
      </trkpt>
      <trkpt lat="47.84592" lon="1.85654">
        <ele>98</ele>
        <time>2013-11-03T13:24:17Z</time>
      </trkpt>
      <trkpt lat="47.84602" lon="1.8565">
        <ele>98</ele>
        <time>2013-11-03T13:24:25Z</time>
      </trkpt>
      <trkpt lat="47.84607" lon="1.85648">
        <ele>102</ele>
        <time>2013-11-03T13:24:29Z</time>
      </trkpt>
      <trkpt lat="47.84612" lon="1.85647">
        <ele>104</ele>
        <time>2013-11-03T13:24:34Z</time>
      </trkpt>
      <trkpt lat="47.84618" lon="1.85646">
        <ele>103</ele>
        <time>2013-11-03T13:24:37Z</time>
      </trkpt>
      <trkpt lat="47.84624" lon="1.85646">
        <ele>105</ele>
        <time>2013-11-03T13:24:41Z</time>
      </trkpt>
      <trkpt lat="47.8463" lon="1.85645">
        <ele>104</ele>
        <time>2013-11-03T13:24:45Z</time>
      </trkpt>
      <trkpt lat="47.84635" lon="1.85643">
        <ele>106</ele>
        <time>2013-11-03T13:24:48Z</time>
      </trkpt>
      <trkpt lat="47.84639" lon="1.85637">
        <ele>105</ele>
        <time>2013-11-03T13:24:51Z</time>
      </trkpt>
      <trkpt lat="47.84644" lon="1.85633">
        <ele>107</ele>
        <time>2013-11-03T13:24:54Z</time>
      </trkpt>
      <trkpt lat="47.84648" lon="1.85628">
        <ele>105</ele>
        <time>2013-11-03T13:24:58Z</time>
      </trkpt>
      <trkpt lat="47.84652" lon="1.85615">
        <ele>104</ele>
        <time>2013-11-03T13:25:05Z</time>
      </trkpt>
      <trkpt lat="47.8465" lon="1.85608">
        <ele>101</ele>
        <time>2013-11-03T13:25:09Z</time>
      </trkpt>
      <trkpt lat="47.84651" lon="1.85601">
        <ele>102</ele>
        <time>2013-11-03T13:25:14Z</time>
      </trkpt>
      <trkpt lat="47.84651" lon="1.85592">
        <ele>103</ele>
        <time>2013-11-03T13:25:19Z</time>
      </trkpt>
      <trkpt lat="47.84653" lon="1.85593">
        <ele>107</ele>
        <time>2013-11-03T13:25:35Z</time>
      </trkpt>
      <trkpt lat="47.84695" lon="1.85565">
        <ele>110</ele>
        <time>2013-11-03T13:26:33Z</time>
      </trkpt>
      <trkpt lat="47.847" lon="1.85562">
        <ele>109</ele>
        <time>2013-11-03T13:26:37Z</time>
      </trkpt>
      <trkpt lat="47.84703" lon="1.85558">
        <ele>108</ele>
        <time>2013-11-03T13:26:40Z</time>
      </trkpt>
      <trkpt lat="47.84708" lon="1.85554">
        <ele>105</ele>
        <time>2013-11-03T13:26:43Z</time>
      </trkpt>
      <trkpt lat="47.84712" lon="1.8555">
        <ele>105</ele>
        <time>2013-11-03T13:26:46Z</time>
      </trkpt>
      <trkpt lat="47.84717" lon="1.85545">
        <ele>104</ele>
        <time>2013-11-03T13:26:49Z</time>
      </trkpt>
      <trkpt lat="47.84721" lon="1.85542">
        <ele>103</ele>
        <time>2013-11-03T13:26:52Z</time>
      </trkpt>
      <trkpt lat="47.84727" lon="1.85541">
        <ele>104</ele>
        <time>2013-11-03T13:26:56Z</time>
      </trkpt>
      <trkpt lat="47.84732" lon="1.8554">
        <ele>107</ele>
        <time>2013-11-03T13:27:00Z</time>
      </trkpt>
      <trkpt lat="47.84737" lon="1.85536">
        <ele>107</ele>
        <time>2013-11-03T13:27:03Z</time>
      </trkpt>
      <trkpt lat="47.84742" lon="1.85535">
        <ele>108</ele>
        <time>2013-11-03T13:27:06Z</time>
      </trkpt>
      <trkpt lat="47.84747" lon="1.85533">
        <ele>108</ele>
        <time>2013-11-03T13:27:10Z</time>
      </trkpt>
      <trkpt lat="47.84752" lon="1.85528">
        <ele>107</ele>
        <time>2013-11-03T13:27:14Z</time>
      </trkpt>
      <trkpt lat="47.8476" lon="1.8552">
        <ele>107</ele>
        <time>2013-11-03T13:27:21Z</time>
      </trkpt>
      <trkpt lat="47.84765" lon="1.85517">
        <ele>108</ele>
        <time>2013-11-03T13:27:25Z</time>
      </trkpt>
      <trkpt lat="47.84771" lon="1.85515">
        <ele>108</ele>
        <time>2013-11-03T13:27:28Z</time>
      </trkpt>
      <trkpt lat="47.84776" lon="1.85514">
        <ele>108</ele>
        <time>2013-11-03T13:27:31Z</time>
      </trkpt>
      <trkpt lat="47.8478" lon="1.85511">
        <ele>114</ele>
        <time>2013-11-03T13:27:34Z</time>
      </trkpt>
      <trkpt lat="47.84784" lon="1.85506">
        <ele>115</ele>
        <time>2013-11-03T13:27:38Z</time>
      </trkpt>
      <trkpt lat="47.8479" lon="1.85503">
        <ele>114</ele>
        <time>2013-11-03T13:27:42Z</time>
      </trkpt>
      <trkpt lat="47.84794" lon="1.85499">
        <ele>111</ele>
        <time>2013-11-03T13:27:47Z</time>
      </trkpt>
      <trkpt lat="47.84798" lon="1.85496">
        <ele>112</ele>
        <time>2013-11-03T13:27:52Z</time>
      </trkpt>
      <trkpt lat="47.84808" lon="1.85493">
        <ele>111</ele>
        <time>2013-11-03T13:27:58Z</time>
      </trkpt>
      <trkpt lat="47.84815" lon="1.85492">
        <ele>109</ele>
        <time>2013-11-03T13:28:01Z</time>
      </trkpt>
      <trkpt lat="47.84819" lon="1.85491">
        <ele>111</ele>
        <time>2013-11-03T13:28:04Z</time>
      </trkpt>
      <trkpt lat="47.84824" lon="1.8549">
        <ele>110</ele>
        <time>2013-11-03T13:28:07Z</time>
      </trkpt>
      <trkpt lat="47.84829" lon="1.85488">
        <ele>109</ele>
        <time>2013-11-03T13:28:12Z</time>
      </trkpt>
      <trkpt lat="47.84834" lon="1.85483">
        <ele>110</ele>
        <time>2013-11-03T13:28:16Z</time>
      </trkpt>
      <trkpt lat="47.84838" lon="1.8548">
        <ele>109</ele>
        <time>2013-11-03T13:28:19Z</time>
      </trkpt>
      <trkpt lat="47.84842" lon="1.85476">
        <ele>109</ele>
        <time>2013-11-03T13:28:22Z</time>
      </trkpt>
      <trkpt lat="47.84847" lon="1.85473">
        <ele>108</ele>
        <time>2013-11-03T13:28:25Z</time>
      </trkpt>
      <trkpt lat="47.84852" lon="1.8547">
        <ele>109</ele>
        <time>2013-11-03T13:28:28Z</time>
      </trkpt>
      <trkpt lat="47.8486" lon="1.85464">
        <ele>106</ele>
        <time>2013-11-03T13:28:34Z</time>
      </trkpt>
      <trkpt lat="47.84865" lon="1.85463">
        <ele>106</ele>
        <time>2013-11-03T13:28:37Z</time>
      </trkpt>
      <trkpt lat="47.8487" lon="1.85463">
        <ele>109</ele>
        <time>2013-11-03T13:28:40Z</time>
      </trkpt>
      <trkpt lat="47.84875" lon="1.85462">
        <ele>110</ele>
        <time>2013-11-03T13:28:45Z</time>
      </trkpt>
      <trkpt lat="47.84881" lon="1.8546">
        <ele>108</ele>
        <time>2013-11-03T13:28:49Z</time>
      </trkpt>
      <trkpt lat="47.84885" lon="1.85456">
        <ele>104</ele>
        <time>2013-11-03T13:28:52Z</time>
      </trkpt>
      <trkpt lat="47.84888" lon="1.85452">
        <ele>105</ele>
        <time>2013-11-03T13:28:56Z</time>
      </trkpt>
      <trkpt lat="47.84893" lon="1.85448">
        <ele>108</ele>
        <time>2013-11-03T13:29:01Z</time>
      </trkpt>
      <trkpt lat="47.84898" lon="1.85449">
        <ele>108</ele>
        <time>2013-11-03T13:29:04Z</time>
      </trkpt>
      <trkpt lat="47.84912" lon="1.8544">
        <ele>105</ele>
        <time>2013-11-03T13:29:14Z</time>
      </trkpt>
      <trkpt lat="47.84917" lon="1.85438">
        <ele>103</ele>
        <time>2013-11-03T13:29:17Z</time>
      </trkpt>
      <trkpt lat="47.84921" lon="1.85438">
        <ele>99</ele>
        <time>2013-11-03T13:29:20Z</time>
      </trkpt>
      <trkpt lat="47.84926" lon="1.85434">
        <ele>99</ele>
        <time>2013-11-03T13:29:23Z</time>
      </trkpt>
      <trkpt lat="47.84931" lon="1.8543">
        <ele>101</ele>
        <time>2013-11-03T13:29:26Z</time>
      </trkpt>
      <trkpt lat="47.84936" lon="1.85426">
        <ele>102</ele>
        <time>2013-11-03T13:29:29Z</time>
      </trkpt>
      <trkpt lat="47.8494" lon="1.85423">
        <ele>104</ele>
        <time>2013-11-03T13:29:32Z</time>
      </trkpt>
      <trkpt lat="47.84945" lon="1.85419">
        <ele>103</ele>
        <time>2013-11-03T13:29:36Z</time>
      </trkpt>
      <trkpt lat="47.8495" lon="1.85418">
        <ele>103</ele>
        <time>2013-11-03T13:29:40Z</time>
      </trkpt>
      <trkpt lat="47.84954" lon="1.85416">
        <ele>102</ele>
        <time>2013-11-03T13:29:43Z</time>
      </trkpt>
      <trkpt lat="47.84958" lon="1.85412">
        <ele>104</ele>
        <time>2013-11-03T13:29:46Z</time>
      </trkpt>
      <trkpt lat="47.84962" lon="1.85407">
        <ele>107</ele>
        <time>2013-11-03T13:29:50Z</time>
      </trkpt>
      <trkpt lat="47.84972" lon="1.85402">
        <ele>111</ele>
        <time>2013-11-03T13:30:05Z</time>
      </trkpt>
      <trkpt lat="47.84978" lon="1.854">
        <ele>111</ele>
        <time>2013-11-03T13:30:08Z</time>
      </trkpt>
      <trkpt lat="47.84983" lon="1.85398">
        <ele>111</ele>
        <time>2013-11-03T13:30:11Z</time>
      </trkpt>
      <trkpt lat="47.84989" lon="1.85396">
        <ele>111</ele>
        <time>2013-11-03T13:30:14Z</time>
      </trkpt>
      <trkpt lat="47.84994" lon="1.85391">
        <ele>109</ele>
        <time>2013-11-03T13:30:17Z</time>
      </trkpt>
      <trkpt lat="47.84999" lon="1.85388">
        <ele>108</ele>
        <time>2013-11-03T13:30:20Z</time>
      </trkpt>
      <trkpt lat="47.85004" lon="1.85386">
        <ele>108</ele>
        <time>2013-11-03T13:30:23Z</time>
      </trkpt>
      <trkpt lat="47.8501" lon="1.85385">
        <ele>107</ele>
        <time>2013-11-03T13:30:27Z</time>
      </trkpt>
      <trkpt lat="47.85014" lon="1.85386">
        <ele>106</ele>
        <time>2013-11-03T13:30:32Z</time>
      </trkpt>
      <trkpt lat="47.85023" lon="1.85393">
        <ele>109</ele>
        <time>2013-11-03T13:30:45Z</time>
      </trkpt>
      <trkpt lat="47.85025" lon="1.854">
        <ele>109</ele>
        <time>2013-11-03T13:30:50Z</time>
      </trkpt>
      <trkpt lat="47.85029" lon="1.85406">
        <ele>111</ele>
        <time>2013-11-03T13:30:53Z</time>
      </trkpt>
      <trkpt lat="47.85032" lon="1.85413">
        <ele>111</ele>
        <time>2013-11-03T13:30:57Z</time>
      </trkpt>
      <trkpt lat="47.85035" lon="1.85419">
        <ele>114</ele>
        <time>2013-11-03T13:31:01Z</time>
      </trkpt>
      <trkpt lat="47.8504" lon="1.85424">
        <ele>113</ele>
        <time>2013-11-03T13:31:04Z</time>
      </trkpt>
      <trkpt lat="47.85044" lon="1.85428">
        <ele>113</ele>
        <time>2013-11-03T13:31:07Z</time>
      </trkpt>
      <trkpt lat="47.85049" lon="1.85432">
        <ele>110</ele>
        <time>2013-11-03T13:31:11Z</time>
      </trkpt>
      <trkpt lat="47.85052" lon="1.85439">
        <ele>110</ele>
        <time>2013-11-03T13:31:16Z</time>
      </trkpt>
      <trkpt lat="47.8506" lon="1.8545">
        <ele>107</ele>
        <time>2013-11-03T13:31:27Z</time>
      </trkpt>
      <trkpt lat="47.85063" lon="1.85455">
        <ele>108</ele>
        <time>2013-11-03T13:31:31Z</time>
      </trkpt>
      <trkpt lat="47.85067" lon="1.85458">
        <ele>106</ele>
        <time>2013-11-03T13:31:35Z</time>
      </trkpt>
      <trkpt lat="47.85071" lon="1.85463">
        <ele>104</ele>
        <time>2013-11-03T13:31:39Z</time>
      </trkpt>
      <trkpt lat="47.85075" lon="1.85468">
        <ele>101</ele>
        <time>2013-11-03T13:31:43Z</time>
      </trkpt>
      <trkpt lat="47.85079" lon="1.85473">
        <ele>101</ele>
        <time>2013-11-03T13:31:47Z</time>
      </trkpt>
      <trkpt lat="47.85082" lon="1.85481">
        <ele>99</ele>
        <time>2013-11-03T13:31:51Z</time>
      </trkpt>
      <trkpt lat="47.85084" lon="1.85487">
        <ele>99</ele>
        <time>2013-11-03T13:31:54Z</time>
      </trkpt>
      <trkpt lat="47.85087" lon="1.85493">
        <ele>99</ele>
        <time>2013-11-03T13:31:57Z</time>
      </trkpt>
      <trkpt lat="47.85097" lon="1.85508">
        <ele>101</ele>
        <time>2013-11-03T13:32:07Z</time>
      </trkpt>
      <trkpt lat="47.85102" lon="1.85512">
        <ele>104</ele>
        <time>2013-11-03T13:32:10Z</time>
      </trkpt>
      <trkpt lat="47.85107" lon="1.85518">
        <ele>103</ele>
        <time>2013-11-03T13:32:13Z</time>
      </trkpt>
      <trkpt lat="47.85113" lon="1.85523">
        <ele>103</ele>
        <time>2013-11-03T13:32:16Z</time>
      </trkpt>
      <trkpt lat="47.85117" lon="1.85528">
        <ele>103</ele>
        <time>2013-11-03T13:32:19Z</time>
      </trkpt>
      <trkpt lat="47.85121" lon="1.85533">
        <ele>104</ele>
        <time>2013-11-03T13:32:22Z</time>
      </trkpt>
      <trkpt lat="47.85126" lon="1.85537">
        <ele>105</ele>
        <time>2013-11-03T13:32:27Z</time>
      </trkpt>
      <trkpt lat="47.85131" lon="1.85539">
        <ele>104</ele>
        <time>2013-11-03T13:32:30Z</time>
      </trkpt>
      <trkpt lat="47.85135" lon="1.85544">
        <ele>104</ele>
        <time>2013-11-03T13:32:34Z</time>
      </trkpt>
      <trkpt lat="47.85138" lon="1.85551">
        <ele>108</ele>
        <time>2013-11-03T13:32:38Z</time>
      </trkpt>
      <trkpt lat="47.85141" lon="1.85556">
        <ele>111</ele>
        <time>2013-11-03T13:32:42Z</time>
      </trkpt>
      <trkpt lat="47.85147" lon="1.85567">
        <ele>110</ele>
        <time>2013-11-03T13:32:50Z</time>
      </trkpt>
      <trkpt lat="47.85151" lon="1.8557">
        <ele>110</ele>
        <time>2013-11-03T13:32:53Z</time>
      </trkpt>
      <trkpt lat="47.85154" lon="1.85575">
        <ele>111</ele>
        <time>2013-11-03T13:32:56Z</time>
      </trkpt>
      <trkpt lat="47.85159" lon="1.8558">
        <ele>113</ele>
        <time>2013-11-03T13:32:59Z</time>
      </trkpt>
      <trkpt lat="47.85162" lon="1.85585">
        <ele>112</ele>
        <time>2013-11-03T13:33:02Z</time>
      </trkpt>
      <trkpt lat="47.85167" lon="1.85589">
        <ele>111</ele>
        <time>2013-11-03T13:33:05Z</time>
      </trkpt>
      <trkpt lat="47.85171" lon="1.85595">
        <ele>111</ele>
        <time>2013-11-03T13:33:08Z</time>
      </trkpt>
      <trkpt lat="47.85174" lon="1.856">
        <ele>110</ele>
        <time>2013-11-03T13:33:11Z</time>
      </trkpt>
      <trkpt lat="47.85177" lon="1.85607">
        <ele>109</ele>
        <time>2013-11-03T13:33:15Z</time>
      </trkpt>
      <trkpt lat="47.8518" lon="1.85612">
        <ele>108</ele>
        <time>2013-11-03T13:33:18Z</time>
      </trkpt>
      <trkpt lat="47.85184" lon="1.85617">
        <ele>110</ele>
        <time>2013-11-03T13:33:22Z</time>
      </trkpt>
      <trkpt lat="47.85189" lon="1.85621">
        <ele>105</ele>
        <time>2013-11-03T13:33:26Z</time>
      </trkpt>
      <trkpt lat="47.85197" lon="1.85634">
        <ele>106</ele>
        <time>2013-11-03T13:33:34Z</time>
      </trkpt>
      <trkpt lat="47.85201" lon="1.8564">
        <ele>107</ele>
        <time>2013-11-03T13:33:37Z</time>
      </trkpt>
      <trkpt lat="47.85205" lon="1.85644">
        <ele>104</ele>
        <time>2013-11-03T13:33:40Z</time>
      </trkpt>
      <trkpt lat="47.85208" lon="1.8565">
        <ele>103</ele>
        <time>2013-11-03T13:33:46Z</time>
      </trkpt>
      <trkpt lat="47.8521" lon="1.85657">
        <ele>100</ele>
        <time>2013-11-03T13:33:50Z</time>
      </trkpt>
      <trkpt lat="47.85214" lon="1.85662">
        <ele>101</ele>
        <time>2013-11-03T13:33:53Z</time>
      </trkpt>
      <trkpt lat="47.85218" lon="1.85665">
        <ele>100</ele>
        <time>2013-11-03T13:33:55Z</time>
      </trkpt>
      <trkpt lat="47.85222" lon="1.8567">
        <ele>99</ele>
        <time>2013-11-03T13:33:57Z</time>
      </trkpt>
      <trkpt lat="47.85224" lon="1.85677">
        <ele>98</ele>
        <time>2013-11-03T13:34:01Z</time>
      </trkpt>
      <trkpt lat="47.85226" lon="1.85685">
        <ele>99</ele>
        <time>2013-11-03T13:34:06Z</time>
      </trkpt>
      <trkpt lat="47.85235" lon="1.85694">
        <ele>100</ele>
        <time>2013-11-03T13:34:12Z</time>
      </trkpt>
      <trkpt lat="47.8524" lon="1.85699">
        <ele>97</ele>
        <time>2013-11-03T13:34:16Z</time>
      </trkpt>
      <trkpt lat="47.85245" lon="1.85702">
        <ele>99</ele>
        <time>2013-11-03T13:34:19Z</time>
      </trkpt>
      <trkpt lat="47.85249" lon="1.85707">
        <ele>99</ele>
        <time>2013-11-03T13:34:22Z</time>
      </trkpt>
      <trkpt lat="47.85254" lon="1.85712">
        <ele>100</ele>
        <time>2013-11-03T13:34:25Z</time>
      </trkpt>
      <trkpt lat="47.85258" lon="1.85716">
        <ele>102</ele>
        <time>2013-11-03T13:34:28Z</time>
      </trkpt>
      <trkpt lat="47.85262" lon="1.85721">
        <ele>101</ele>
        <time>2013-11-03T13:34:31Z</time>
      </trkpt>
      <trkpt lat="47.85266" lon="1.85726">
        <ele>99</ele>
        <time>2013-11-03T13:34:34Z</time>
      </trkpt>
      <trkpt lat="47.8527" lon="1.8573">
        <ele>98</ele>
        <time>2013-11-03T13:34:37Z</time>
      </trkpt>
      <trkpt lat="47.85275" lon="1.85736">
        <ele>99</ele>
        <time>2013-11-03T13:34:41Z</time>
      </trkpt>
      <trkpt lat="47.85278" lon="1.8574">
        <ele>99</ele>
        <time>2013-11-03T13:34:44Z</time>
      </trkpt>
      <trkpt lat="47.85283" lon="1.85746">
        <ele>98</ele>
        <time>2013-11-03T13:34:48Z</time>
      </trkpt>
      <trkpt lat="47.85286" lon="1.85751">
        <ele>96</ele>
        <time>2013-11-03T13:34:51Z</time>
      </trkpt>
      <trkpt lat="47.8529" lon="1.85756">
        <ele>99</ele>
        <time>2013-11-03T13:34:54Z</time>
      </trkpt>
      <trkpt lat="47.85294" lon="1.8576">
        <ele>100</ele>
        <time>2013-11-03T13:34:57Z</time>
      </trkpt>
      <trkpt lat="47.85298" lon="1.85765">
        <ele>101</ele>
        <time>2013-11-03T13:35:00Z</time>
      </trkpt>
      <trkpt lat="47.85302" lon="1.85769">
        <ele>100</ele>
        <time>2013-11-03T13:35:03Z</time>
      </trkpt>
      <trkpt lat="47.85305" lon="1.85774">
        <ele>98</ele>
        <time>2013-11-03T13:35:06Z</time>
      </trkpt>
      <trkpt lat="47.85309" lon="1.85778">
        <ele>96</ele>
        <time>2013-11-03T13:35:09Z</time>
      </trkpt>
      <trkpt lat="47.85313" lon="1.85783">
        <ele>98</ele>
        <time>2013-11-03T13:35:12Z</time>
      </trkpt>
      <trkpt lat="47.85315" lon="1.85789">
        <ele>99</ele>
        <time>2013-11-03T13:35:15Z</time>
      </trkpt>
      <trkpt lat="47.85318" lon="1.85794">
        <ele>100</ele>
        <time>2013-11-03T13:35:18Z</time>
      </trkpt>
      <trkpt lat="47.85321" lon="1.85802">
        <ele>101</ele>
        <time>2013-11-03T13:35:22Z</time>
      </trkpt>
      <trkpt lat="47.85324" lon="1.85808">
        <ele>99</ele>
        <time>2013-11-03T13:35:26Z</time>
      </trkpt>
      <trkpt lat="47.85331" lon="1.8582">
        <ele>98</ele>
        <time>2013-11-03T13:35:33Z</time>
      </trkpt>
      <trkpt lat="47.85335" lon="1.85826">
        <ele>97</ele>
        <time>2013-11-03T13:35:37Z</time>
      </trkpt>
      <trkpt lat="47.85339" lon="1.85832">
        <ele>95</ele>
        <time>2013-11-03T13:35:41Z</time>
      </trkpt>
      <trkpt lat="47.85343" lon="1.85837">
        <ele>93</ele>
        <time>2013-11-03T13:35:45Z</time>
      </trkpt>
      <trkpt lat="47.85348" lon="1.85841">
        <ele>94</ele>
        <time>2013-11-03T13:35:49Z</time>
      </trkpt>
      <trkpt lat="47.85351" lon="1.85845">
        <ele>94</ele>
        <time>2013-11-03T13:35:52Z</time>
      </trkpt>
      <trkpt lat="47.85355" lon="1.8585">
        <ele>95</ele>
        <time>2013-11-03T13:35:55Z</time>
      </trkpt>
      <trkpt lat="47.85358" lon="1.85856">
        <ele>96</ele>
        <time>2013-11-03T13:35:58Z</time>
      </trkpt>
      <trkpt lat="47.85362" lon="1.85861">
        <ele>98</ele>
        <time>2013-11-03T13:36:01Z</time>
      </trkpt>
      <trkpt lat="47.85365" lon="1.85866">
        <ele>97</ele>
        <time>2013-11-03T13:36:04Z</time>
      </trkpt>
      <trkpt lat="47.85372" lon="1.8588">
        <ele>101</ele>
        <time>2013-11-03T13:36:12Z</time>
      </trkpt>
      <trkpt lat="47.85376" lon="1.85886">
        <ele>102</ele>
        <time>2013-11-03T13:36:15Z</time>
      </trkpt>
      <trkpt lat="47.85379" lon="1.85891">
        <ele>104</ele>
        <time>2013-11-03T13:36:18Z</time>
      </trkpt>
      <trkpt lat="47.85381" lon="1.85898">
        <ele>98</ele>
        <time>2013-11-03T13:36:26Z</time>
      </trkpt>
      <trkpt lat="47.85384" lon="1.85903">
        <ele>101</ele>
        <time>2013-11-03T13:36:32Z</time>
      </trkpt>
      <trkpt lat="47.85387" lon="1.85908">
        <ele>101</ele>
        <time>2013-11-03T13:36:36Z</time>
      </trkpt>
      <trkpt lat="47.85391" lon="1.85915">
        <ele>101</ele>
        <time>2013-11-03T13:36:40Z</time>
      </trkpt>
      <trkpt lat="47.85394" lon="1.85922">
        <ele>104</ele>
        <time>2013-11-03T13:36:44Z</time>
      </trkpt>
      <trkpt lat="47.85405" lon="1.85944">
        <ele>100</ele>
        <time>2013-11-03T13:36:59Z</time>
      </trkpt>
      <trkpt lat="47.85409" lon="1.85949">
        <ele>101</ele>
        <time>2013-11-03T13:37:03Z</time>
      </trkpt>
      <trkpt lat="47.85412" lon="1.85956">
        <ele>104</ele>
        <time>2013-11-03T13:37:07Z</time>
      </trkpt>
      <trkpt lat="47.85415" lon="1.85962">
        <ele>102</ele>
        <time>2013-11-03T13:37:10Z</time>
      </trkpt>
      <trkpt lat="47.85416" lon="1.85968">
        <ele>101</ele>
        <time>2013-11-03T13:37:14Z</time>
      </trkpt>
      <trkpt lat="47.85419" lon="1.85976">
        <ele>99</ele>
        <time>2013-11-03T13:37:18Z</time>
      </trkpt>
      <trkpt lat="47.85423" lon="1.8598">
        <ele>97</ele>
        <time>2013-11-03T13:37:22Z</time>
      </trkpt>
      <trkpt lat="47.85427" lon="1.85985">
        <ele>97</ele>
        <time>2013-11-03T13:37:26Z</time>
      </trkpt>
      <trkpt lat="47.85429" lon="1.85991">
        <ele>98</ele>
        <time>2013-11-03T13:37:29Z</time>
      </trkpt>
      <trkpt lat="47.85431" lon="1.85998">
        <ele>100</ele>
        <time>2013-11-03T13:37:32Z</time>
      </trkpt>
      <trkpt lat="47.85434" lon="1.86012">
        <ele>100</ele>
        <time>2013-11-03T13:37:38Z</time>
      </trkpt>
      <trkpt lat="47.85436" lon="1.86019">
        <ele>97</ele>
        <time>2013-11-03T13:37:42Z</time>
      </trkpt>
      <trkpt lat="47.85439" lon="1.86027">
        <ele>99</ele>
        <time>2013-11-03T13:37:46Z</time>
      </trkpt>
      <trkpt lat="47.85443" lon="1.86033">
        <ele>97</ele>
        <time>2013-11-03T13:37:49Z</time>
      </trkpt>
      <trkpt lat="47.85444" lon="1.86041">
        <ele>93</ele>
        <time>2013-11-03T13:37:53Z</time>
      </trkpt>
      <trkpt lat="47.85446" lon="1.86047">
        <ele>95</ele>
        <time>2013-11-03T13:37:56Z</time>
      </trkpt>
      <trkpt lat="47.8545" lon="1.86052">
        <ele>97</ele>
        <time>2013-11-03T13:37:59Z</time>
      </trkpt>
      <trkpt lat="47.85453" lon="1.86059">
        <ele>96</ele>
        <time>2013-11-03T13:38:02Z</time>
      </trkpt>
      <trkpt lat="47.85455" lon="1.86066">
        <ele>98</ele>
        <time>2013-11-03T13:38:05Z</time>
      </trkpt>
      <trkpt lat="47.85456" lon="1.86074">
        <ele>104</ele>
        <time>2013-11-03T13:38:09Z</time>
      </trkpt>
      <trkpt lat="47.85463" lon="1.86085">
        <ele>100</ele>
        <time>2013-11-03T13:38:16Z</time>
      </trkpt>
      <trkpt lat="47.85466" lon="1.8609">
        <ele>100</ele>
        <time>2013-11-03T13:38:19Z</time>
      </trkpt>
      <trkpt lat="47.85471" lon="1.86096">
        <ele>100</ele>
        <time>2013-11-03T13:38:22Z</time>
      </trkpt>
      <trkpt lat="47.85474" lon="1.86103">
        <ele>102</ele>
        <time>2013-11-03T13:38:25Z</time>
      </trkpt>
      <trkpt lat="47.85476" lon="1.86109">
        <ele>102</ele>
        <time>2013-11-03T13:38:28Z</time>
      </trkpt>
      <trkpt lat="47.85479" lon="1.86115">
        <ele>100</ele>
        <time>2013-11-03T13:38:31Z</time>
      </trkpt>
      <trkpt lat="47.85482" lon="1.8612">
        <ele>98</ele>
        <time>2013-11-03T13:38:35Z</time>
      </trkpt>
      <trkpt lat="47.85484" lon="1.86127">
        <ele>100</ele>
        <time>2013-11-03T13:38:40Z</time>
      </trkpt>
      <trkpt lat="47.85487" lon="1.86133">
        <ele>98</ele>
        <time>2013-11-03T13:38:44Z</time>
      </trkpt>
      <trkpt lat="47.8549" lon="1.86141">
        <ele>101</ele>
        <time>2013-11-03T13:38:48Z</time>
      </trkpt>
      <trkpt lat="47.85495" lon="1.86155">
        <ele>100</ele>
        <time>2013-11-03T13:38:55Z</time>
      </trkpt>
      <trkpt lat="47.85497" lon="1.86163">
        <ele>96</ele>
        <time>2013-11-03T13:38:59Z</time>
      </trkpt>
      <trkpt lat="47.855" lon="1.86169">
        <ele>92</ele>
        <time>2013-11-03T13:39:03Z</time>
      </trkpt>
      <trkpt lat="47.85503" lon="1.86175">
        <ele>93</ele>
        <time>2013-11-03T13:39:07Z</time>
      </trkpt>
      <trkpt lat="47.85506" lon="1.86182">
        <ele>91</ele>
        <time>2013-11-03T13:39:11Z</time>
      </trkpt>
      <trkpt lat="47.85509" lon="1.86189">
        <ele>92</ele>
        <time>2013-11-03T13:39:15Z</time>
      </trkpt>
      <trkpt lat="47.85512" lon="1.86195">
        <ele>94</ele>
        <time>2013-11-03T13:39:18Z</time>
      </trkpt>
      <trkpt lat="47.85515" lon="1.86202">
        <ele>94</ele>
        <time>2013-11-03T13:39:22Z</time>
      </trkpt>
      <trkpt lat="47.85518" lon="1.86209">
        <ele>95</ele>
        <time>2013-11-03T13:39:26Z</time>
      </trkpt>
      <trkpt lat="47.85524" lon="1.86222">
        <ele>98</ele>
        <time>2013-11-03T13:39:33Z</time>
      </trkpt>
      <trkpt lat="47.8553" lon="1.86226">
        <ele>97</ele>
        <time>2013-11-03T13:39:36Z</time>
      </trkpt>
      <trkpt lat="47.85531" lon="1.86233">
        <ele>99</ele>
        <time>2013-11-03T13:39:39Z</time>
      </trkpt>
      <trkpt lat="47.85534" lon="1.8624">
        <ele>93</ele>
        <time>2013-11-03T13:39:43Z</time>
      </trkpt>
      <trkpt lat="47.85536" lon="1.86246">
        <ele>92</ele>
        <time>2013-11-03T13:39:47Z</time>
      </trkpt>
      <trkpt lat="47.85539" lon="1.86252">
        <ele>94</ele>
        <time>2013-11-03T13:39:51Z</time>
      </trkpt>
      <trkpt lat="47.85542" lon="1.86259">
        <ele>92</ele>
        <time>2013-11-03T13:39:55Z</time>
      </trkpt>
      <trkpt lat="47.85543" lon="1.86267">
        <ele>91</ele>
        <time>2013-11-03T13:39:59Z</time>
      </trkpt>
      <trkpt lat="47.85548" lon="1.8627">
        <ele>92</ele>
        <time>2013-11-03T13:40:02Z</time>
      </trkpt>
      <trkpt lat="47.8555" lon="1.86308">
        <ele>93</ele>
        <time>2013-11-03T13:40:36Z</time>
      </trkpt>
      <trkpt lat="47.85552" lon="1.86315">
        <ele>96</ele>
        <time>2013-11-03T13:40:41Z</time>
      </trkpt>
      <trkpt lat="47.85556" lon="1.8632">
        <ele>97</ele>
        <time>2013-11-03T13:40:44Z</time>
      </trkpt>
      <trkpt lat="47.8556" lon="1.86325">
        <ele>94</ele>
        <time>2013-11-03T13:40:48Z</time>
      </trkpt>
      <trkpt lat="47.85564" lon="1.86328">
        <ele>96</ele>
        <time>2013-11-03T13:40:51Z</time>
      </trkpt>
      <trkpt lat="47.85569" lon="1.86334">
        <ele>95</ele>
        <time>2013-11-03T13:40:55Z</time>
      </trkpt>
      <trkpt lat="47.85574" lon="1.86338">
        <ele>96</ele>
        <time>2013-11-03T13:40:58Z</time>
      </trkpt>
      <trkpt lat="47.85577" lon="1.86343">
        <ele>96</ele>
        <time>2013-11-03T13:41:01Z</time>
      </trkpt>
      <trkpt lat="47.85581" lon="1.86347">
        <ele>96</ele>
        <time>2013-11-03T13:41:04Z</time>
      </trkpt>
      <trkpt lat="47.85587" lon="1.86351">
        <ele>98</ele>
        <time>2013-11-03T13:41:07Z</time>
      </trkpt>
      <trkpt lat="47.85591" lon="1.86356">
        <ele>95</ele>
        <time>2013-11-03T13:41:10Z</time>
      </trkpt>
      <trkpt lat="47.85595" lon="1.8636">
        <ele>96</ele>
        <time>2013-11-03T13:41:13Z</time>
      </trkpt>
      <trkpt lat="47.85597" lon="1.86366">
        <ele>96</ele>
        <time>2013-11-03T13:41:17Z</time>
      </trkpt>
      <trkpt lat="47.85601" lon="1.86371">
        <ele>96</ele>
        <time>2013-11-03T13:41:20Z</time>
      </trkpt>
      <trkpt lat="47.85604" lon="1.86377">
        <ele>98</ele>
        <time>2013-11-03T13:41:23Z</time>
      </trkpt>
      <trkpt lat="47.85606" lon="1.86384">
        <ele>97</ele>
        <time>2013-11-03T13:41:27Z</time>
      </trkpt>
      <trkpt lat="47.85609" lon="1.86391">
        <ele>96</ele>
        <time>2013-11-03T13:41:31Z</time>
      </trkpt>
      <trkpt lat="47.85616" lon="1.86403">
        <ele>95</ele>
        <time>2013-11-03T13:41:39Z</time>
      </trkpt>
      <trkpt lat="47.85619" lon="1.86409">
        <ele>100</ele>
        <time>2013-11-03T13:41:42Z</time>
      </trkpt>
      <trkpt lat="47.85622" lon="1.86414">
        <ele>101</ele>
        <time>2013-11-03T13:41:45Z</time>
      </trkpt>
      <trkpt lat="47.85627" lon="1.8642">
        <ele>99</ele>
        <time>2013-11-03T13:41:49Z</time>
      </trkpt>
      <trkpt lat="47.8563" lon="1.86425">
        <ele>101</ele>
        <time>2013-11-03T13:41:52Z</time>
      </trkpt>
      <trkpt lat="47.85634" lon="1.8643">
        <ele>101</ele>
        <time>2013-11-03T13:41:55Z</time>
      </trkpt>
      <trkpt lat="47.85638" lon="1.86435">
        <ele>101</ele>
        <time>2013-11-03T13:41:58Z</time>
      </trkpt>
      <trkpt lat="47.85641" lon="1.8644">
        <ele>101</ele>
        <time>2013-11-03T13:42:01Z</time>
      </trkpt>
      <trkpt lat="47.85644" lon="1.86447">
        <ele>103</ele>
        <time>2013-11-03T13:42:05Z</time>
      </trkpt>
      <trkpt lat="47.85646" lon="1.86453">
        <ele>103</ele>
        <time>2013-11-03T13:42:09Z</time>
      </trkpt>
      <trkpt lat="47.85654" lon="1.86463">
        <ele>97</ele>
        <time>2013-11-03T13:42:17Z</time>
      </trkpt>
      <trkpt lat="47.85657" lon="1.86468">
        <ele>98</ele>
        <time>2013-11-03T13:42:20Z</time>
      </trkpt>
      <trkpt lat="47.85661" lon="1.86473">
        <ele>98</ele>
        <time>2013-11-03T13:42:23Z</time>
      </trkpt>
      <trkpt lat="47.85664" lon="1.86478">
        <ele>99</ele>
        <time>2013-11-03T13:42:26Z</time>
      </trkpt>
      <trkpt lat="47.85668" lon="1.86484">
        <ele>102</ele>
        <time>2013-11-03T13:42:29Z</time>
      </trkpt>
      <trkpt lat="47.85671" lon="1.8649">
        <ele>103</ele>
        <time>2013-11-03T13:42:32Z</time>
      </trkpt>
      <trkpt lat="47.85674" lon="1.86495">
        <ele>104</ele>
        <time>2013-11-03T13:42:35Z</time>
      </trkpt>
      <trkpt lat="47.85676" lon="1.86502">
        <ele>101</ele>
        <time>2013-11-03T13:42:39Z</time>
      </trkpt>
      <trkpt lat="47.8568" lon="1.86508">
        <ele>100</ele>
        <time>2013-11-03T13:42:43Z</time>
      </trkpt>
      <trkpt lat="47.85683" lon="1.86514">
        <ele>102</ele>
        <time>2013-11-03T13:42:47Z</time>
      </trkpt>
      <trkpt lat="47.8569" lon="1.86527">
        <ele>100</ele>
        <time>2013-11-03T13:42:55Z</time>
      </trkpt>
      <trkpt lat="47.85693" lon="1.86533">
        <ele>100</ele>
        <time>2013-11-03T13:42:59Z</time>
      </trkpt>
      <trkpt lat="47.85696" lon="1.86539">
        <ele>99</ele>
        <time>2013-11-03T13:43:03Z</time>
      </trkpt>
      <trkpt lat="47.857" lon="1.86545">
        <ele>99</ele>
        <time>2013-11-03T13:43:07Z</time>
      </trkpt>
      <trkpt lat="47.85703" lon="1.86549">
        <ele>98</ele>
        <time>2013-11-03T13:43:10Z</time>
      </trkpt>
      <trkpt lat="47.85706" lon="1.86555">
        <ele>102</ele>
        <time>2013-11-03T13:43:13Z</time>
      </trkpt>
      <trkpt lat="47.85708" lon="1.86562">
        <ele>102</ele>
        <time>2013-11-03T13:43:17Z</time>
      </trkpt>
      <trkpt lat="47.85711" lon="1.86569">
        <ele>102</ele>
        <time>2013-11-03T13:43:21Z</time>
      </trkpt>
      <trkpt lat="47.85712" lon="1.86577">
        <ele>98</ele>
        <time>2013-11-03T13:43:25Z</time>
      </trkpt>
      <trkpt lat="47.85715" lon="1.86584">
        <ele>97</ele>
        <time>2013-11-03T13:43:28Z</time>
      </trkpt>
      <trkpt lat="47.85721" lon="1.86598">
        <ele>100</ele>
        <time>2013-11-03T13:43:36Z</time>
      </trkpt>
      <trkpt lat="47.85727" lon="1.86603">
        <ele>103</ele>
        <time>2013-11-03T13:43:39Z</time>
      </trkpt>
      <trkpt lat="47.85732" lon="1.86608">
        <ele>105</ele>
        <time>2013-11-03T13:43:42Z</time>
      </trkpt>
      <trkpt lat="47.85735" lon="1.86613">
        <ele>104</ele>
        <time>2013-11-03T13:43:45Z</time>
      </trkpt>
      <trkpt lat="47.85737" lon="1.8662">
        <ele>105</ele>
        <time>2013-11-03T13:43:48Z</time>
      </trkpt>
      <trkpt lat="47.8574" lon="1.86626">
        <ele>103</ele>
        <time>2013-11-03T13:43:52Z</time>
      </trkpt>
      <trkpt lat="47.85743" lon="1.86633">
        <ele>102</ele>
        <time>2013-11-03T13:43:56Z</time>
      </trkpt>
      <trkpt lat="47.85747" lon="1.8664">
        <ele>104</ele>
        <time>2013-11-03T13:44:00Z</time>
      </trkpt>
      <trkpt lat="47.8575" lon="1.86647">
        <ele>101</ele>
        <time>2013-11-03T13:44:04Z</time>
      </trkpt>
      <trkpt lat="47.85753" lon="1.86652">
        <ele>103</ele>
        <time>2013-11-03T13:44:07Z</time>
      </trkpt>
      <trkpt lat="47.85756" lon="1.86658">
        <ele>105</ele>
        <time>2013-11-03T13:44:10Z</time>
      </trkpt>
      <trkpt lat="47.8576" lon="1.86663">
        <ele>105</ele>
        <time>2013-11-03T13:44:13Z</time>
      </trkpt>
      <trkpt lat="47.85765" lon="1.86675">
        <ele>103</ele>
        <time>2013-11-03T13:44:20Z</time>
      </trkpt>
      <trkpt lat="47.85768" lon="1.86681">
        <ele>103</ele>
        <time>2013-11-03T13:44:24Z</time>
      </trkpt>
      <trkpt lat="47.85773" lon="1.86685">
        <ele>102</ele>
        <time>2013-11-03T13:44:27Z</time>
      </trkpt>
      <trkpt lat="47.85778" lon="1.8669">
        <ele>103</ele>
        <time>2013-11-03T13:44:30Z</time>
      </trkpt>
      <trkpt lat="47.85782" lon="1.86696">
        <ele>102</ele>
        <time>2013-11-03T13:44:33Z</time>
      </trkpt>
      <trkpt lat="47.85785" lon="1.86701">
        <ele>100</ele>
        <time>2013-11-03T13:44:36Z</time>
      </trkpt>
      <trkpt lat="47.85789" lon="1.86707">
        <ele>98</ele>
        <time>2013-11-03T13:44:39Z</time>
      </trkpt>
      <trkpt lat="47.85793" lon="1.86712">
        <ele>100</ele>
        <time>2013-11-03T13:44:42Z</time>
      </trkpt>
      <trkpt lat="47.85797" lon="1.86717">
        <ele>100</ele>
        <time>2013-11-03T13:44:45Z</time>
      </trkpt>
      <trkpt lat="47.858" lon="1.86723">
        <ele>99</ele>
        <time>2013-11-03T13:44:48Z</time>
      </trkpt>
      <trkpt lat="47.85804" lon="1.86729">
        <ele>99</ele>
        <time>2013-11-03T13:44:51Z</time>
      </trkpt>
      <trkpt lat="47.85806" lon="1.86735">
        <ele>99</ele>
        <time>2013-11-03T13:44:54Z</time>
      </trkpt>
      <trkpt lat="47.85809" lon="1.86741">
        <ele>99</ele>
        <time>2013-11-03T13:44:57Z</time>
      </trkpt>
      <trkpt lat="47.85812" lon="1.86747">
        <ele>99</ele>
        <time>2013-11-03T13:45:00Z</time>
      </trkpt>
      <trkpt lat="47.85815" lon="1.86753">
        <ele>104</ele>
        <time>2013-11-03T13:45:03Z</time>
      </trkpt>
      <trkpt lat="47.85819" lon="1.86758">
        <ele>105</ele>
        <time>2013-11-03T13:45:06Z</time>
      </trkpt>
      <trkpt lat="47.85823" lon="1.86764">
        <ele>106</ele>
        <time>2013-11-03T13:45:10Z</time>
      </trkpt>
      <trkpt lat="47.85826" lon="1.8677">
        <ele>108</ele>
        <time>2013-11-03T13:45:13Z</time>
      </trkpt>
      <trkpt lat="47.85831" lon="1.86774">
        <ele>109</ele>
        <time>2013-11-03T13:45:16Z</time>
      </trkpt>
      <trkpt lat="47.85833" lon="1.86781">
        <ele>110</ele>
        <time>2013-11-03T13:45:19Z</time>
      </trkpt>
      <trkpt lat="47.85836" lon="1.86788">
        <ele>109</ele>
        <time>2013-11-03T13:45:23Z</time>
      </trkpt>
      <trkpt lat="47.85838" lon="1.86795">
        <ele>107</ele>
        <time>2013-11-03T13:45:27Z</time>
      </trkpt>
      <trkpt lat="47.85842" lon="1.86801">
        <ele>108</ele>
        <time>2013-11-03T13:45:31Z</time>
      </trkpt>
      <trkpt lat="47.85845" lon="1.86807">
        <ele>108</ele>
        <time>2013-11-03T13:45:34Z</time>
      </trkpt>
      <trkpt lat="47.8585" lon="1.86821">
        <ele>110</ele>
        <time>2013-11-03T13:45:42Z</time>
      </trkpt>
      <trkpt lat="47.85853" lon="1.86827">
        <ele>109</ele>
        <time>2013-11-03T13:45:46Z</time>
      </trkpt>
      <trkpt lat="47.85856" lon="1.86834">
        <ele>107</ele>
        <time>2013-11-03T13:45:50Z</time>
      </trkpt>
      <trkpt lat="47.85859" lon="1.86839">
        <ele>110</ele>
        <time>2013-11-03T13:45:53Z</time>
      </trkpt>
      <trkpt lat="47.85862" lon="1.86845">
        <ele>109</ele>
        <time>2013-11-03T13:45:56Z</time>
      </trkpt>
      <trkpt lat="47.85865" lon="1.8685">
        <ele>109</ele>
        <time>2013-11-03T13:45:59Z</time>
      </trkpt>
      <trkpt lat="47.85868" lon="1.86857">
        <ele>107</ele>
        <time>2013-11-03T13:46:03Z</time>
      </trkpt>
      <trkpt lat="47.8587" lon="1.86863">
        <ele>109</ele>
        <time>2013-11-03T13:46:06Z</time>
      </trkpt>
      <trkpt lat="47.85874" lon="1.86868">
        <ele>110</ele>
        <time>2013-11-03T13:46:09Z</time>
      </trkpt>
      <trkpt lat="47.85879" lon="1.86872">
        <ele>109</ele>
        <time>2013-11-03T13:46:12Z</time>
      </trkpt>
      <trkpt lat="47.85883" lon="1.86876">
        <ele>108</ele>
        <time>2013-11-03T13:46:15Z</time>
      </trkpt>
      <trkpt lat="47.85887" lon="1.86881">
        <ele>107</ele>
        <time>2013-11-03T13:46:19Z</time>
      </trkpt>
      <trkpt lat="47.85891" lon="1.86895">
        <ele>111</ele>
        <time>2013-11-03T13:46:26Z</time>
      </trkpt>
      <trkpt lat="47.85894" lon="1.86901">
        <ele>113</ele>
        <time>2013-11-03T13:46:29Z</time>
      </trkpt>
      <trkpt lat="47.85897" lon="1.86906">
        <ele>111</ele>
        <time>2013-11-03T13:46:32Z</time>
      </trkpt>
      <trkpt lat="47.85901" lon="1.86912">
        <ele>109</ele>
        <time>2013-11-03T13:46:36Z</time>
      </trkpt>
      <trkpt lat="47.85904" lon="1.86918">
        <ele>109</ele>
        <time>2013-11-03T13:46:40Z</time>
      </trkpt>
      <trkpt lat="47.85908" lon="1.8692">
        <ele>106</ele>
        <time>2013-11-03T13:46:47Z</time>
      </trkpt>
      <trkpt lat="47.85913" lon="1.86919">
        <ele>107</ele>
        <time>2013-11-03T13:46:51Z</time>
      </trkpt>
      <trkpt lat="47.85914" lon="1.86911">
        <ele>105</ele>
        <time>2013-11-03T13:46:56Z</time>
      </trkpt>
      <trkpt lat="47.85905" lon="1.86831">
        <ele>102</ele>
        <time>2013-11-03T13:47:38Z</time>
      </trkpt>
      <trkpt lat="47.85904" lon="1.86824">
        <ele>100</ele>
        <time>2013-11-03T13:47:42Z</time>
      </trkpt>
      <trkpt lat="47.85904" lon="1.86816">
        <ele>98</ele>
        <time>2013-11-03T13:47:46Z</time>
      </trkpt>
      <trkpt lat="47.85904" lon="1.86808">
        <ele>96</ele>
        <time>2013-11-03T13:47:53Z</time>
      </trkpt>
      <trkpt lat="47.85904" lon="1.86798">
        <ele>96</ele>
        <time>2013-11-03T13:47:57Z</time>
      </trkpt>
      <trkpt lat="47.85902" lon="1.8679">
        <ele>98</ele>
        <time>2013-11-03T13:47:59Z</time>
      </trkpt>
      <trkpt lat="47.85902" lon="1.86782">
        <ele>97</ele>
        <time>2013-11-03T13:48:03Z</time>
      </trkpt>
      <trkpt lat="47.859" lon="1.86775">
        <ele>96</ele>
        <time>2013-11-03T13:48:08Z</time>
      </trkpt>
      <trkpt lat="47.85899" lon="1.86768">
        <ele>97</ele>
        <time>2013-11-03T13:48:11Z</time>
      </trkpt>
      <trkpt lat="47.859" lon="1.86751">
        <ele>98</ele>
        <time>2013-11-03T13:48:19Z</time>
      </trkpt>
      <trkpt lat="47.85899" lon="1.86745">
        <ele>99</ele>
        <time>2013-11-03T13:48:22Z</time>
      </trkpt>
      <trkpt lat="47.85898" lon="1.86736">
        <ele>100</ele>
        <time>2013-11-03T13:48:26Z</time>
      </trkpt>
      <trkpt lat="47.85897" lon="1.86729">
        <ele>98</ele>
        <time>2013-11-03T13:48:29Z</time>
      </trkpt>
      <trkpt lat="47.85896" lon="1.86722">
        <ele>99</ele>
        <time>2013-11-03T13:48:32Z</time>
      </trkpt>
      <trkpt lat="47.85894" lon="1.86716">
        <ele>98</ele>
        <time>2013-11-03T13:48:35Z</time>
      </trkpt>
      <trkpt lat="47.85894" lon="1.86708">
        <ele>96</ele>
        <time>2013-11-03T13:48:40Z</time>
      </trkpt>
      <trkpt lat="47.85894" lon="1.867">
        <ele>98</ele>
        <time>2013-11-03T13:48:43Z</time>
      </trkpt>
      <trkpt lat="47.85893" lon="1.86692">
        <ele>98</ele>
        <time>2013-11-03T13:48:46Z</time>
      </trkpt>
      <trkpt lat="47.85893" lon="1.86684">
        <ele>100</ele>
        <time>2013-11-03T13:48:49Z</time>
      </trkpt>
      <trkpt lat="47.85892" lon="1.86677">
        <ele>99</ele>
        <time>2013-11-03T13:48:52Z</time>
      </trkpt>
      <trkpt lat="47.85891" lon="1.8667">
        <ele>99</ele>
        <time>2013-11-03T13:48:55Z</time>
      </trkpt>
      <trkpt lat="47.8589" lon="1.86663">
        <ele>98</ele>
        <time>2013-11-03T13:48:58Z</time>
      </trkpt>
      <trkpt lat="47.8589" lon="1.86656">
        <ele>98</ele>
        <time>2013-11-03T13:49:01Z</time>
      </trkpt>
      <trkpt lat="47.85891" lon="1.86649">
        <ele>100</ele>
        <time>2013-11-03T13:49:04Z</time>
      </trkpt>
      <trkpt lat="47.85891" lon="1.86642">
        <ele>100</ele>
        <time>2013-11-03T13:49:07Z</time>
      </trkpt>
      <trkpt lat="47.8589" lon="1.86633">
        <ele>100</ele>
        <time>2013-11-03T13:49:11Z</time>
      </trkpt>
      <trkpt lat="47.85889" lon="1.86625">
        <ele>98</ele>
        <time>2013-11-03T13:49:15Z</time>
      </trkpt>
      <trkpt lat="47.85889" lon="1.86617">
        <ele>98</ele>
        <time>2013-11-03T13:49:19Z</time>
      </trkpt>
      <trkpt lat="47.85892" lon="1.86603">
        <ele>98</ele>
        <time>2013-11-03T13:49:28Z</time>
      </trkpt>
      <trkpt lat="47.85892" lon="1.86596">
        <ele>96</ele>
        <time>2013-11-03T13:49:32Z</time>
      </trkpt>
      <trkpt lat="47.85891" lon="1.86589">
        <ele>95</ele>
        <time>2013-11-03T13:49:35Z</time>
      </trkpt>
      <trkpt lat="47.85888" lon="1.86581">
        <ele>95</ele>
        <time>2013-11-03T13:49:38Z</time>
      </trkpt>
      <trkpt lat="47.85888" lon="1.86574">
        <ele>94</ele>
        <time>2013-11-03T13:49:41Z</time>
      </trkpt>
      <trkpt lat="47.85887" lon="1.86565">
        <ele>96</ele>
        <time>2013-11-03T13:49:45Z</time>
      </trkpt>
      <trkpt lat="47.85886" lon="1.86558">
        <ele>97</ele>
        <time>2013-11-03T13:49:48Z</time>
      </trkpt>
      <trkpt lat="47.85887" lon="1.86551">
        <ele>97</ele>
        <time>2013-11-03T13:49:52Z</time>
      </trkpt>
      <trkpt lat="47.85888" lon="1.86543">
        <ele>98</ele>
        <time>2013-11-03T13:49:57Z</time>
      </trkpt>
      <trkpt lat="47.85889" lon="1.86535">
        <ele>97</ele>
        <time>2013-11-03T13:50:01Z</time>
      </trkpt>
      <trkpt lat="47.85898" lon="1.86528">
        <ele>98</ele>
        <time>2013-11-03T13:50:07Z</time>
      </trkpt>
      <trkpt lat="47.85902" lon="1.86527">
        <ele>98</ele>
        <time>2013-11-03T13:50:10Z</time>
      </trkpt>
      <trkpt lat="47.85907" lon="1.86526">
        <ele>100</ele>
        <time>2013-11-03T13:50:13Z</time>
      </trkpt>
      <trkpt lat="47.85912" lon="1.86525">
        <ele>99</ele>
        <time>2013-11-03T13:50:17Z</time>
      </trkpt>
      <trkpt lat="47.85917" lon="1.86524">
        <ele>101</ele>
        <time>2013-11-03T13:50:21Z</time>
      </trkpt>
      <trkpt lat="47.85921" lon="1.86523">
        <ele>100</ele>
        <time>2013-11-03T13:50:24Z</time>
      </trkpt>
      <trkpt lat="47.85926" lon="1.86521">
        <ele>103</ele>
        <time>2013-11-03T13:50:27Z</time>
      </trkpt>
      <trkpt lat="47.85931" lon="1.86518">
        <ele>101</ele>
        <time>2013-11-03T13:50:31Z</time>
      </trkpt>
      <trkpt lat="47.85936" lon="1.86515">
        <ele>102</ele>
        <time>2013-11-03T13:50:34Z</time>
      </trkpt>
      <trkpt lat="47.85941" lon="1.86513">
        <ele>103</ele>
        <time>2013-11-03T13:50:38Z</time>
      </trkpt>
      <trkpt lat="47.85952" lon="1.8651">
        <ele>100</ele>
        <time>2013-11-03T13:50:46Z</time>
      </trkpt>
      <trkpt lat="47.85956" lon="1.86509">
        <ele>100</ele>
        <time>2013-11-03T13:50:49Z</time>
      </trkpt>
      <trkpt lat="47.85961" lon="1.86508">
        <ele>100</ele>
        <time>2013-11-03T13:50:52Z</time>
      </trkpt>
      <trkpt lat="47.85965" lon="1.86507">
        <ele>100</ele>
        <time>2013-11-03T13:50:55Z</time>
      </trkpt>
      <trkpt lat="47.85972" lon="1.86505">
        <ele>100</ele>
        <time>2013-11-03T13:50:59Z</time>
      </trkpt>
      <trkpt lat="47.85977" lon="1.86505">
        <ele>100</ele>
        <time>2013-11-03T13:51:03Z</time>
      </trkpt>
      <trkpt lat="47.85983" lon="1.86502">
        <ele>101</ele>
        <time>2013-11-03T13:51:07Z</time>
      </trkpt>
      <trkpt lat="47.85987" lon="1.86502">
        <ele>103</ele>
        <time>2013-11-03T13:51:10Z</time>
      </trkpt>
      <trkpt lat="47.85992" lon="1.86501">
        <ele>103</ele>
        <time>2013-11-03T13:51:13Z</time>
      </trkpt>
      <trkpt lat="47.85997" lon="1.865">
        <ele>102</ele>
        <time>2013-11-03T13:51:16Z</time>
      </trkpt>
      <trkpt lat="47.86002" lon="1.865">
        <ele>102</ele>
        <time>2013-11-03T13:51:19Z</time>
      </trkpt>
      <trkpt lat="47.86007" lon="1.86499">
        <ele>101</ele>
        <time>2013-11-03T13:51:22Z</time>
      </trkpt>
      <trkpt lat="47.86012" lon="1.86497">
        <ele>101</ele>
        <time>2013-11-03T13:51:25Z</time>
      </trkpt>
      <trkpt lat="47.86018" lon="1.86495">
        <ele>102</ele>
        <time>2013-11-03T13:51:29Z</time>
      </trkpt>
      <trkpt lat="47.86023" lon="1.86493">
        <ele>102</ele>
        <time>2013-11-03T13:51:33Z</time>
      </trkpt>
      <trkpt lat="47.86028" lon="1.86491">
        <ele>103</ele>
        <time>2013-11-03T13:51:37Z</time>
      </trkpt>
      <trkpt lat="47.86034" lon="1.86488">
        <ele>103</ele>
        <time>2013-11-03T13:51:41Z</time>
      </trkpt>
      <trkpt lat="47.86045" lon="1.86485">
        <ele>99</ele>
        <time>2013-11-03T13:51:49Z</time>
      </trkpt>
      <trkpt lat="47.86051" lon="1.86482">
        <ele>101</ele>
        <time>2013-11-03T13:51:53Z</time>
      </trkpt>
      <trkpt lat="47.86056" lon="1.86483">
        <ele>99</ele>
        <time>2013-11-03T13:51:57Z</time>
      </trkpt>
      <trkpt lat="47.86061" lon="1.86484">
        <ele>100</ele>
        <time>2013-11-03T13:52:01Z</time>
      </trkpt>
      <trkpt lat="47.86066" lon="1.86482">
        <ele>97</ele>
        <time>2013-11-03T13:52:04Z</time>
      </trkpt>
      <trkpt lat="47.86071" lon="1.8648">
        <ele>98</ele>
        <time>2013-11-03T13:52:08Z</time>
      </trkpt>
      <trkpt lat="47.86076" lon="1.8648">
        <ele>96</ele>
        <time>2013-11-03T13:52:12Z</time>
      </trkpt>
      <trkpt lat="47.86081" lon="1.8648">
        <ele>95</ele>
        <time>2013-11-03T13:52:16Z</time>
      </trkpt>
      <trkpt lat="47.86087" lon="1.86479">
        <ele>96</ele>
        <time>2013-11-03T13:52:20Z</time>
      </trkpt>
      <trkpt lat="47.86096" lon="1.86478">
        <ele>96</ele>
        <time>2013-11-03T13:52:28Z</time>
      </trkpt>
      <trkpt lat="47.86101" lon="1.86478">
        <ele>94</ele>
        <time>2013-11-03T13:52:32Z</time>
      </trkpt>
      <trkpt lat="47.86107" lon="1.86477">
        <ele>94</ele>
        <time>2013-11-03T13:52:36Z</time>
      </trkpt>
      <trkpt lat="47.86112" lon="1.86476">
        <ele>93</ele>
        <time>2013-11-03T13:52:40Z</time>
      </trkpt>
      <trkpt lat="47.86117" lon="1.86475">
        <ele>92</ele>
        <time>2013-11-03T13:52:44Z</time>
      </trkpt>
      <trkpt lat="47.86123" lon="1.86476">
        <ele>93</ele>
        <time>2013-11-03T13:52:48Z</time>
      </trkpt>
      <trkpt lat="47.86127" lon="1.86473">
        <ele>93</ele>
        <time>2013-11-03T13:52:50Z</time>
      </trkpt>
      <trkpt lat="47.86133" lon="1.8647">
        <ele>96</ele>
        <time>2013-11-03T13:52:53Z</time>
      </trkpt>
      <trkpt lat="47.86139" lon="1.86467">
        <ele>97</ele>
        <time>2013-11-03T13:52:56Z</time>
      </trkpt>
      <trkpt lat="47.86144" lon="1.86466">
        <ele>97</ele>
        <time>2013-11-03T13:52:59Z</time>
      </trkpt>
      <trkpt lat="47.8615" lon="1.86464">
        <ele>98</ele>
        <time>2013-11-03T13:53:02Z</time>
      </trkpt>
      <trkpt lat="47.86156" lon="1.86462">
        <ele>97</ele>
        <time>2013-11-03T13:53:05Z</time>
      </trkpt>
      <trkpt lat="47.86161" lon="1.86461">
        <ele>98</ele>
        <time>2013-11-03T13:53:08Z</time>
      </trkpt>
      <trkpt lat="47.86166" lon="1.86461">
        <ele>98</ele>
        <time>2013-11-03T13:53:11Z</time>
      </trkpt>
      <trkpt lat="47.86171" lon="1.8646">
        <ele>99</ele>
        <time>2013-11-03T13:53:14Z</time>
      </trkpt>
      <trkpt lat="47.86176" lon="1.86459">
        <ele>100</ele>
        <time>2013-11-03T13:53:18Z</time>
      </trkpt>
      <trkpt lat="47.86181" lon="1.86458">
        <ele>99</ele>
        <time>2013-11-03T13:53:22Z</time>
      </trkpt>
      <trkpt lat="47.86186" lon="1.86458">
        <ele>98</ele>
        <time>2013-11-03T13:53:25Z</time>
      </trkpt>
      <trkpt lat="47.86191" lon="1.86458">
        <ele>100</ele>
        <time>2013-11-03T13:53:28Z</time>
      </trkpt>
      <trkpt lat="47.86196" lon="1.86458">
        <ele>98</ele>
        <time>2013-11-03T13:53:31Z</time>
      </trkpt>
      <trkpt lat="47.86201" lon="1.86459">
        <ele>94</ele>
        <time>2013-11-03T13:53:34Z</time>
      </trkpt>
      <trkpt lat="47.86206" lon="1.86461">
        <ele>93</ele>
        <time>2013-11-03T13:53:37Z</time>
      </trkpt>
      <trkpt lat="47.86217" lon="1.86465">
        <ele>95</ele>
        <time>2013-11-03T13:53:45Z</time>
      </trkpt>
      <trkpt lat="47.86217" lon="1.86473">
        <ele>95</ele>
        <time>2013-11-03T13:53:50Z</time>
      </trkpt>
      <trkpt lat="47.86216" lon="1.8648">
        <ele>99</ele>
        <time>2013-11-03T13:53:54Z</time>
      </trkpt>
      <trkpt lat="47.86218" lon="1.86488">
        <ele>98</ele>
        <time>2013-11-03T13:53:57Z</time>
      </trkpt>
      <trkpt lat="47.86218" lon="1.86496">
        <ele>97</ele>
        <time>2013-11-03T13:54:01Z</time>
      </trkpt>
      <trkpt lat="47.86218" lon="1.86504">
        <ele>97</ele>
        <time>2013-11-03T13:54:05Z</time>
      </trkpt>
      <trkpt lat="47.86218" lon="1.86513">
        <ele>101</ele>
        <time>2013-11-03T13:54:09Z</time>
      </trkpt>
      <trkpt lat="47.86218" lon="1.86522">
        <ele>101</ele>
        <time>2013-11-03T13:54:13Z</time>
      </trkpt>
      <trkpt lat="47.86218" lon="1.86529">
        <ele>101</ele>
        <time>2013-11-03T13:54:16Z</time>
      </trkpt>
      <trkpt lat="47.86219" lon="1.86535">
        <ele>100</ele>
        <time>2013-11-03T13:54:19Z</time>
      </trkpt>
      <trkpt lat="47.86219" lon="1.86551">
        <ele>97</ele>
        <time>2013-11-03T13:54:25Z</time>
      </trkpt>
      <trkpt lat="47.86221" lon="1.86557">
        <ele>98</ele>
        <time>2013-11-03T13:54:28Z</time>
      </trkpt>
      <trkpt lat="47.86227" lon="1.86559">
        <ele>97</ele>
        <time>2013-11-03T13:54:31Z</time>
      </trkpt>
      <trkpt lat="47.86232" lon="1.86558">
        <ele>97</ele>
        <time>2013-11-03T13:54:34Z</time>
      </trkpt>
      <trkpt lat="47.86238" lon="1.86558">
        <ele>97</ele>
        <time>2013-11-03T13:54:38Z</time>
      </trkpt>
      <trkpt lat="47.86243" lon="1.86557">
        <ele>98</ele>
        <time>2013-11-03T13:54:42Z</time>
      </trkpt>
      <trkpt lat="47.86248" lon="1.86557">
        <ele>99</ele>
        <time>2013-11-03T13:54:46Z</time>
      </trkpt>
      <trkpt lat="47.86255" lon="1.86555">
        <ele>97</ele>
        <time>2013-11-03T13:54:50Z</time>
      </trkpt>
      <trkpt lat="47.8626" lon="1.86553">
        <ele>96</ele>
        <time>2013-11-03T13:54:53Z</time>
      </trkpt>
      <trkpt lat="47.86264" lon="1.86552">
        <ele>98</ele>
        <time>2013-11-03T13:54:56Z</time>
      </trkpt>
      <trkpt lat="47.86268" lon="1.8655">
        <ele>97</ele>
        <time>2013-11-03T13:54:59Z</time>
      </trkpt>
      <trkpt lat="47.86279" lon="1.86549">
        <ele>97</ele>
        <time>2013-11-03T13:55:07Z</time>
      </trkpt>
      <trkpt lat="47.86285" lon="1.86548">
        <ele>97</ele>
        <time>2013-11-03T13:55:11Z</time>
      </trkpt>
      <trkpt lat="47.8629" lon="1.86547">
        <ele>98</ele>
        <time>2013-11-03T13:55:14Z</time>
      </trkpt>
      <trkpt lat="47.86295" lon="1.86547">
        <ele>98</ele>
        <time>2013-11-03T13:55:17Z</time>
      </trkpt>
      <trkpt lat="47.86301" lon="1.86547">
        <ele>100</ele>
        <time>2013-11-03T13:55:21Z</time>
      </trkpt>
      <trkpt lat="47.86305" lon="1.86546">
        <ele>101</ele>
        <time>2013-11-03T13:55:24Z</time>
      </trkpt>
      <trkpt lat="47.86311" lon="1.86545">
        <ele>101</ele>
        <time>2013-11-03T13:55:27Z</time>
      </trkpt>
      <trkpt lat="47.86316" lon="1.86545">
        <ele>98</ele>
        <time>2013-11-03T13:55:30Z</time>
      </trkpt>
      <trkpt lat="47.86322" lon="1.86544">
        <ele>99</ele>
        <time>2013-11-03T13:55:34Z</time>
      </trkpt>
      <trkpt lat="47.86327" lon="1.86544">
        <ele>97</ele>
        <time>2013-11-03T13:55:37Z</time>
      </trkpt>
      <trkpt lat="47.86333" lon="1.86543">
        <ele>98</ele>
        <time>2013-11-03T13:55:41Z</time>
      </trkpt>
      <trkpt lat="47.86338" lon="1.86542">
        <ele>99</ele>
        <time>2013-11-03T13:55:45Z</time>
      </trkpt>
      <trkpt lat="47.86349" lon="1.86541">
        <ele>100</ele>
        <time>2013-11-03T13:55:53Z</time>
      </trkpt>
      <trkpt lat="47.86354" lon="1.86538">
        <ele>99</ele>
        <time>2013-11-03T13:55:57Z</time>
      </trkpt>
      <trkpt lat="47.8636" lon="1.86536">
        <ele>99</ele>
        <time>2013-11-03T13:56:01Z</time>
      </trkpt>
      <trkpt lat="47.86364" lon="1.86536">
        <ele>98</ele>
        <time>2013-11-03T13:56:04Z</time>
      </trkpt>
      <trkpt lat="47.8637" lon="1.86537">
        <ele>99</ele>
        <time>2013-11-03T13:56:07Z</time>
      </trkpt>
      <trkpt lat="47.86375" lon="1.86537">
        <ele>98</ele>
        <time>2013-11-03T13:56:10Z</time>
      </trkpt>
      <trkpt lat="47.8638" lon="1.86536">
        <ele>99</ele>
        <time>2013-11-03T13:56:13Z</time>
      </trkpt>
      <trkpt lat="47.86385" lon="1.86535">
        <ele>97</ele>
        <time>2013-11-03T13:56:16Z</time>
      </trkpt>
      <trkpt lat="47.8639" lon="1.86534">
        <ele>98</ele>
        <time>2013-11-03T13:56:19Z</time>
      </trkpt>
      <trkpt lat="47.86395" lon="1.86533">
        <ele>97</ele>
        <time>2013-11-03T13:56:23Z</time>
      </trkpt>
      <trkpt lat="47.864" lon="1.86535">
        <ele>97</ele>
        <time>2013-11-03T13:56:27Z</time>
      </trkpt>
      <trkpt lat="47.86406" lon="1.86534">
        <ele>100</ele>
        <time>2013-11-03T13:56:31Z</time>
      </trkpt>
      <trkpt lat="47.86411" lon="1.86531">
        <ele>99</ele>
        <time>2013-11-03T13:56:34Z</time>
      </trkpt>
      <trkpt lat="47.86416" lon="1.86529">
        <ele>97</ele>
        <time>2013-11-03T13:56:37Z</time>
      </trkpt>
      <trkpt lat="47.8642" lon="1.86527">
        <ele>98</ele>
        <time>2013-11-03T13:56:40Z</time>
      </trkpt>
      <trkpt lat="47.86425" lon="1.86525">
        <ele>98</ele>
        <time>2013-11-03T13:56:43Z</time>
      </trkpt>
      <trkpt lat="47.86435" lon="1.86523">
        <ele>96</ele>
        <time>2013-11-03T13:56:50Z</time>
      </trkpt>
      <trkpt lat="47.86441" lon="1.86524">
        <ele>98</ele>
        <time>2013-11-03T13:56:54Z</time>
      </trkpt>
      <trkpt lat="47.86447" lon="1.86525">
        <ele>96</ele>
        <time>2013-11-03T13:56:58Z</time>
      </trkpt>
      <trkpt lat="47.86452" lon="1.86523">
        <ele>95</ele>
        <time>2013-11-03T13:57:01Z</time>
      </trkpt>
      <trkpt lat="47.86457" lon="1.86523">
        <ele>96</ele>
        <time>2013-11-03T13:57:05Z</time>
      </trkpt>
      <trkpt lat="47.86462" lon="1.86523">
        <ele>96</ele>
        <time>2013-11-03T13:57:09Z</time>
      </trkpt>
      <trkpt lat="47.86467" lon="1.86522">
        <ele>95</ele>
        <time>2013-11-03T13:57:12Z</time>
      </trkpt>
      <trkpt lat="47.86471" lon="1.86521">
        <ele>95</ele>
        <time>2013-11-03T13:57:15Z</time>
      </trkpt>
      <trkpt lat="47.86477" lon="1.86521">
        <ele>93</ele>
        <time>2013-11-03T13:57:19Z</time>
      </trkpt>
      <trkpt lat="47.86482" lon="1.86521">
        <ele>92</ele>
        <time>2013-11-03T13:57:22Z</time>
      </trkpt>
      <trkpt lat="47.86491" lon="1.86519">
        <ele>94</ele>
        <time>2013-11-03T13:57:28Z</time>
      </trkpt>
      <trkpt lat="47.86496" lon="1.86517">
        <ele>96</ele>
        <time>2013-11-03T13:57:31Z</time>
      </trkpt>
      <trkpt lat="47.86501" lon="1.86518">
        <ele>97</ele>
        <time>2013-11-03T13:57:34Z</time>
      </trkpt>
      <trkpt lat="47.86507" lon="1.86517">
        <ele>96</ele>
        <time>2013-11-03T13:57:38Z</time>
      </trkpt>
      <trkpt lat="47.86512" lon="1.86517">
        <ele>98</ele>
        <time>2013-11-03T13:57:41Z</time>
      </trkpt>
      <trkpt lat="47.86517" lon="1.8652">
        <ele>99</ele>
        <time>2013-11-03T13:57:45Z</time>
      </trkpt>
      <trkpt lat="47.86522" lon="1.86519">
        <ele>100</ele>
        <time>2013-11-03T13:57:49Z</time>
      </trkpt>
      <trkpt lat="47.86527" lon="1.86519">
        <ele>101</ele>
        <time>2013-11-03T13:57:52Z</time>
      </trkpt>
      <trkpt lat="47.86531" lon="1.86518">
        <ele>101</ele>
        <time>2013-11-03T13:57:55Z</time>
      </trkpt>
      <trkpt lat="47.86537" lon="1.86517">
        <ele>101</ele>
        <time>2013-11-03T13:57:59Z</time>
      </trkpt>
      <trkpt lat="47.86548" lon="1.86515">
        <ele>101</ele>
        <time>2013-11-03T13:58:06Z</time>
      </trkpt>
      <trkpt lat="47.86554" lon="1.86515">
        <ele>101</ele>
        <time>2013-11-03T13:58:10Z</time>
      </trkpt>
      <trkpt lat="47.86558" lon="1.86514">
        <ele>99</ele>
        <time>2013-11-03T13:58:13Z</time>
      </trkpt>
      <trkpt lat="47.86562" lon="1.86513">
        <ele>100</ele>
        <time>2013-11-03T13:58:16Z</time>
      </trkpt>
      <trkpt lat="47.86568" lon="1.86512">
        <ele>98</ele>
        <time>2013-11-03T13:58:20Z</time>
      </trkpt>
      <trkpt lat="47.86573" lon="1.86511">
        <ele>98</ele>
        <time>2013-11-03T13:58:24Z</time>
      </trkpt>
      <trkpt lat="47.86579" lon="1.86512">
        <ele>100</ele>
        <time>2013-11-03T13:58:28Z</time>
      </trkpt>
      <trkpt lat="47.86585" lon="1.86511">
        <ele>101</ele>
        <time>2013-11-03T13:58:32Z</time>
      </trkpt>
      <trkpt lat="47.8659" lon="1.86511">
        <ele>95</ele>
        <time>2013-11-03T13:58:36Z</time>
      </trkpt>
      <trkpt lat="47.866" lon="1.8651">
        <ele>93</ele>
        <time>2013-11-03T13:58:44Z</time>
      </trkpt>
      <trkpt lat="47.86606" lon="1.86509">
        <ele>96</ele>
        <time>2013-11-03T13:58:48Z</time>
      </trkpt>
      <trkpt lat="47.86612" lon="1.8651">
        <ele>96</ele>
        <time>2013-11-03T13:58:52Z</time>
      </trkpt>
      <trkpt lat="47.86617" lon="1.86512">
        <ele>94</ele>
        <time>2013-11-03T13:58:55Z</time>
      </trkpt>
      <trkpt lat="47.86623" lon="1.86513">
        <ele>94</ele>
        <time>2013-11-03T13:58:58Z</time>
      </trkpt>
      <trkpt lat="47.86628" lon="1.86514">
        <ele>92</ele>
        <time>2013-11-03T13:59:02Z</time>
      </trkpt>
      <trkpt lat="47.86633" lon="1.86512">
        <ele>94</ele>
        <time>2013-11-03T13:59:06Z</time>
      </trkpt>
      <trkpt lat="47.86637" lon="1.86509">
        <ele>96</ele>
        <time>2013-11-03T13:59:09Z</time>
      </trkpt>
      <trkpt lat="47.86643" lon="1.86507">
        <ele>95</ele>
        <time>2013-11-03T13:59:13Z</time>
      </trkpt>
      <trkpt lat="47.86647" lon="1.86506">
        <ele>93</ele>
        <time>2013-11-03T13:59:16Z</time>
      </trkpt>
      <trkpt lat="47.86657" lon="1.86504">
        <ele>90</ele>
        <time>2013-11-03T13:59:24Z</time>
      </trkpt>
      <trkpt lat="47.86663" lon="1.86504">
        <ele>92</ele>
        <time>2013-11-03T13:59:28Z</time>
      </trkpt>
      <trkpt lat="47.86667" lon="1.86503">
        <ele>94</ele>
        <time>2013-11-03T13:59:31Z</time>
      </trkpt>
      <trkpt lat="47.86672" lon="1.86503">
        <ele>93</ele>
        <time>2013-11-03T13:59:34Z</time>
      </trkpt>
      <trkpt lat="47.86677" lon="1.86502">
        <ele>94</ele>
        <time>2013-11-03T13:59:37Z</time>
      </trkpt>
      <trkpt lat="47.86682" lon="1.86504">
        <ele>95</ele>
        <time>2013-11-03T13:59:40Z</time>
      </trkpt>
      <trkpt lat="47.86686" lon="1.86509">
        <ele>96</ele>
        <time>2013-11-03T13:59:43Z</time>
      </trkpt>
      <trkpt lat="47.86689" lon="1.86516">
        <ele>95</ele>
        <time>2013-11-03T13:59:47Z</time>
      </trkpt>
      <trkpt lat="47.86691" lon="1.86523">
        <ele>94</ele>
        <time>2013-11-03T13:59:51Z</time>
      </trkpt>
      <trkpt lat="47.86694" lon="1.86531">
        <ele>93</ele>
        <time>2013-11-03T13:59:55Z</time>
      </trkpt>
      <trkpt lat="47.86699" lon="1.86549">
        <ele>95</ele>
        <time>2013-11-03T14:00:04Z</time>
      </trkpt>
      <trkpt lat="47.867" lon="1.86557">
        <ele>95</ele>
        <time>2013-11-03T14:00:08Z</time>
      </trkpt>
      <trkpt lat="47.86702" lon="1.86565">
        <ele>96</ele>
        <time>2013-11-03T14:00:12Z</time>
      </trkpt>
      <trkpt lat="47.86704" lon="1.86573">
        <ele>99</ele>
        <time>2013-11-03T14:00:16Z</time>
      </trkpt>
      <trkpt lat="47.86706" lon="1.86582">
        <ele>99</ele>
        <time>2013-11-03T14:00:20Z</time>
      </trkpt>
      <trkpt lat="47.86707" lon="1.8659">
        <ele>95</ele>
        <time>2013-11-03T14:00:24Z</time>
      </trkpt>
      <trkpt lat="47.86709" lon="1.86598">
        <ele>97</ele>
        <time>2013-11-03T14:00:28Z</time>
      </trkpt>
      <trkpt lat="47.86711" lon="1.86604">
        <ele>96</ele>
        <time>2013-11-03T14:00:31Z</time>
      </trkpt>
      <trkpt lat="47.86713" lon="1.86611">
        <ele>97</ele>
        <time>2013-11-03T14:00:34Z</time>
      </trkpt>
      <trkpt lat="47.86715" lon="1.86618">
        <ele>96</ele>
        <time>2013-11-03T14:00:37Z</time>
      </trkpt>
      <trkpt lat="47.86717" lon="1.86626">
        <ele>95</ele>
        <time>2013-11-03T14:00:40Z</time>
      </trkpt>
      <trkpt lat="47.86721" lon="1.86632">
        <ele>96</ele>
        <time>2013-11-03T14:00:43Z</time>
      </trkpt>
      <trkpt lat="47.86725" lon="1.86638">
        <ele>95</ele>
        <time>2013-11-03T14:00:46Z</time>
      </trkpt>
      <trkpt lat="47.86729" lon="1.86645">
        <ele>97</ele>
        <time>2013-11-03T14:00:49Z</time>
      </trkpt>
      <trkpt lat="47.86733" lon="1.86651">
        <ele>97</ele>
        <time>2013-11-03T14:00:52Z</time>
      </trkpt>
      <trkpt lat="47.86736" lon="1.86656">
        <ele>97</ele>
        <time>2013-11-03T14:00:55Z</time>
      </trkpt>
      <trkpt lat="47.8674" lon="1.86663">
        <ele>97</ele>
        <time>2013-11-03T14:00:59Z</time>
      </trkpt>
      <trkpt lat="47.86744" lon="1.86666">
        <ele>97</ele>
        <time>2013-11-03T14:01:02Z</time>
      </trkpt>
      <trkpt lat="47.86749" lon="1.8667">
        <ele>97</ele>
        <time>2013-11-03T14:01:05Z</time>
      </trkpt>
      <trkpt lat="47.86754" lon="1.86674">
        <ele>95</ele>
        <time>2013-11-03T14:01:08Z</time>
      </trkpt>
      <trkpt lat="47.86758" lon="1.86679">
        <ele>94</ele>
        <time>2013-11-03T14:01:12Z</time>
      </trkpt>
      <trkpt lat="47.86762" lon="1.86685">
        <ele>96</ele>
        <time>2013-11-03T14:01:16Z</time>
      </trkpt>
      <trkpt lat="47.86766" lon="1.8669">
        <ele>97</ele>
        <time>2013-11-03T14:01:20Z</time>
      </trkpt>
      <trkpt lat="47.8677" lon="1.86695">
        <ele>102</ele>
        <time>2013-11-03T14:01:23Z</time>
      </trkpt>
      <trkpt lat="47.86774" lon="1.867">
        <ele>102</ele>
        <time>2013-11-03T14:01:26Z</time>
      </trkpt>
      <trkpt lat="47.86777" lon="1.86704">
        <ele>103</ele>
        <time>2013-11-03T14:01:29Z</time>
      </trkpt>
      <trkpt lat="47.86782" lon="1.86708">
        <ele>101</ele>
        <time>2013-11-03T14:01:32Z</time>
      </trkpt>
      <trkpt lat="47.86787" lon="1.86712">
        <ele>103</ele>
        <time>2013-11-03T14:01:35Z</time>
      </trkpt>
      <trkpt lat="47.86791" lon="1.86716">
        <ele>99</ele>
        <time>2013-11-03T14:01:38Z</time>
      </trkpt>
      <trkpt lat="47.86796" lon="1.86718">
        <ele>97</ele>
        <time>2013-11-03T14:01:41Z</time>
      </trkpt>
      <trkpt lat="47.86799" lon="1.86723">
        <ele>97</ele>
        <time>2013-11-03T14:01:45Z</time>
      </trkpt>
      <trkpt lat="47.86802" lon="1.8673">
        <ele>96</ele>
        <time>2013-11-03T14:01:49Z</time>
      </trkpt>
      <trkpt lat="47.86796" lon="1.86752">
        <ele>100</ele>
        <time>2013-11-03T14:02:00Z</time>
      </trkpt>
      <trkpt lat="47.86795" lon="1.86759">
        <ele>101</ele>
        <time>2013-11-03T14:02:04Z</time>
      </trkpt>
      <trkpt lat="47.86794" lon="1.86765">
        <ele>103</ele>
        <time>2013-11-03T14:02:08Z</time>
      </trkpt>
      <trkpt lat="47.86795" lon="1.86774">
        <ele>104</ele>
        <time>2013-11-03T14:02:12Z</time>
      </trkpt>
      <trkpt lat="47.86795" lon="1.86783">
        <ele>105</ele>
        <time>2013-11-03T14:02:15Z</time>
      </trkpt>
      <trkpt lat="47.86795" lon="1.86791">
        <ele>106</ele>
        <time>2013-11-03T14:02:18Z</time>
      </trkpt>
      <trkpt lat="47.86795" lon="1.86797">
        <ele>104</ele>
        <time>2013-11-03T14:02:21Z</time>
      </trkpt>
      <trkpt lat="47.86797" lon="1.86804">
        <ele>100</ele>
        <time>2013-11-03T14:02:25Z</time>
      </trkpt>
      <trkpt lat="47.868" lon="1.8681">
        <ele>101</ele>
        <time>2013-11-03T14:02:28Z</time>
      </trkpt>
      <trkpt lat="47.86803" lon="1.86816">
        <ele>104</ele>
        <time>2013-11-03T14:02:31Z</time>
      </trkpt>
      <trkpt lat="47.86811" lon="1.86822">
        <ele>101</ele>
        <time>2013-11-03T14:02:38Z</time>
      </trkpt>
      <trkpt lat="47.86817" lon="1.86821">
        <ele>100</ele>
        <time>2013-11-03T14:02:42Z</time>
      </trkpt>
      <trkpt lat="47.86821" lon="1.86825">
        <ele>104</ele>
        <time>2013-11-03T14:02:46Z</time>
      </trkpt>
      <trkpt lat="47.86826" lon="1.86829">
        <ele>100</ele>
        <time>2013-11-03T14:02:49Z</time>
      </trkpt>
      <trkpt lat="47.86832" lon="1.86831">
        <ele>95</ele>
        <time>2013-11-03T14:02:52Z</time>
      </trkpt>
      <trkpt lat="47.86837" lon="1.8683">
        <ele>90</ele>
        <time>2013-11-03T14:02:55Z</time>
      </trkpt>
      <trkpt lat="47.86842" lon="1.8683">
        <ele>93</ele>
        <time>2013-11-03T14:02:58Z</time>
      </trkpt>
      <trkpt lat="47.86846" lon="1.86832">
        <ele>94</ele>
        <time>2013-11-03T14:03:01Z</time>
      </trkpt>
      <trkpt lat="47.86852" lon="1.86835">
        <ele>96</ele>
        <time>2013-11-03T14:03:05Z</time>
      </trkpt>
      <trkpt lat="47.86857" lon="1.86835">
        <ele>94</ele>
        <time>2013-11-03T14:03:08Z</time>
      </trkpt>
      <trkpt lat="47.86863" lon="1.86834">
        <ele>93</ele>
        <time>2013-11-03T14:03:12Z</time>
      </trkpt>
      <trkpt lat="47.86868" lon="1.86834">
        <ele>93</ele>
        <time>2013-11-03T14:03:16Z</time>
      </trkpt>
      <trkpt lat="47.86873" lon="1.86833">
        <ele>90</ele>
        <time>2013-11-03T14:03:20Z</time>
      </trkpt>
      <trkpt lat="47.86884" lon="1.86831">
        <ele>90</ele>
        <time>2013-11-03T14:03:27Z</time>
      </trkpt>
      <trkpt lat="47.86889" lon="1.86832">
        <ele>90</ele>
        <time>2013-11-03T14:03:31Z</time>
      </trkpt>
      <trkpt lat="47.86894" lon="1.86832">
        <ele>91</ele>
        <time>2013-11-03T14:03:35Z</time>
      </trkpt>
      <trkpt lat="47.86901" lon="1.86832">
        <ele>93</ele>
        <time>2013-11-03T14:03:38Z</time>
      </trkpt>
      <trkpt lat="47.86906" lon="1.86831">
        <ele>88</ele>
        <time>2013-11-03T14:03:40Z</time>
      </trkpt>
      <trkpt lat="47.8691" lon="1.86831">
        <ele>88</ele>
        <time>2013-11-03T14:03:42Z</time>
      </trkpt>
      <trkpt lat="47.86917" lon="1.86831">
        <ele>91</ele>
        <time>2013-11-03T14:03:45Z</time>
      </trkpt>
      <trkpt lat="47.86922" lon="1.8683">
        <ele>91</ele>
        <time>2013-11-03T14:03:48Z</time>
      </trkpt>
      <trkpt lat="47.86927" lon="1.86831">
        <ele>89</ele>
        <time>2013-11-03T14:03:51Z</time>
      </trkpt>
      <trkpt lat="47.86932" lon="1.86832">
        <ele>90</ele>
        <time>2013-11-03T14:03:54Z</time>
      </trkpt>
      <trkpt lat="47.86938" lon="1.86833">
        <ele>90</ele>
        <time>2013-11-03T14:03:58Z</time>
      </trkpt>
      <trkpt lat="47.86942" lon="1.86835">
        <ele>91</ele>
        <time>2013-11-03T14:04:02Z</time>
      </trkpt>
      <trkpt lat="47.86947" lon="1.86837">
        <ele>92</ele>
        <time>2013-11-03T14:04:06Z</time>
      </trkpt>
      <trkpt lat="47.86952" lon="1.86841">
        <ele>92</ele>
        <time>2013-11-03T14:04:10Z</time>
      </trkpt>
      <trkpt lat="47.8696" lon="1.86848">
        <ele>92</ele>
        <time>2013-11-03T14:04:16Z</time>
      </trkpt>
      <trkpt lat="47.86965" lon="1.86851">
        <ele>94</ele>
        <time>2013-11-03T14:04:19Z</time>
      </trkpt>
      <trkpt lat="47.86969" lon="1.86857">
        <ele>96</ele>
        <time>2013-11-03T14:04:22Z</time>
      </trkpt>
      <trkpt lat="47.86973" lon="1.86864">
        <ele>96</ele>
        <time>2013-11-03T14:04:26Z</time>
      </trkpt>
      <trkpt lat="47.86975" lon="1.86871">
        <ele>97</ele>
        <time>2013-11-03T14:04:30Z</time>
      </trkpt>
      <trkpt lat="47.86978" lon="1.86878">
        <ele>98</ele>
        <time>2013-11-03T14:04:33Z</time>
      </trkpt>
      <trkpt lat="47.86981" lon="1.86884">
        <ele>96</ele>
        <time>2013-11-03T14:04:37Z</time>
      </trkpt>
      <trkpt lat="47.86984" lon="1.86891">
        <ele>97</ele>
        <time>2013-11-03T14:04:40Z</time>
      </trkpt>
      <trkpt lat="47.86985" lon="1.86899">
        <ele>95</ele>
        <time>2013-11-03T14:04:43Z</time>
      </trkpt>
      <trkpt lat="47.86988" lon="1.86906">
        <ele>96</ele>
        <time>2013-11-03T14:04:46Z</time>
      </trkpt>
      <trkpt lat="47.8699" lon="1.86913">
        <ele>95</ele>
        <time>2013-11-03T14:04:49Z</time>
      </trkpt>
      <trkpt lat="47.86993" lon="1.8692">
        <ele>95</ele>
        <time>2013-11-03T14:04:53Z</time>
      </trkpt>
      <trkpt lat="47.86995" lon="1.86927">
        <ele>94</ele>
        <time>2013-11-03T14:04:57Z</time>
      </trkpt>
      <trkpt lat="47.86998" lon="1.86933">
        <ele>92</ele>
        <time>2013-11-03T14:05:01Z</time>
      </trkpt>
      <trkpt lat="47.86993" lon="1.86947">
        <ele>89</ele>
        <time>2013-11-03T14:05:11Z</time>
      </trkpt>
      <trkpt lat="47.86992" lon="1.86955">
        <ele>89</ele>
        <time>2013-11-03T14:05:15Z</time>
      </trkpt>
      <trkpt lat="47.8699" lon="1.86962">
        <ele>89</ele>
        <time>2013-11-03T14:05:19Z</time>
      </trkpt>
      <trkpt lat="47.86991" lon="1.86969">
        <ele>87</ele>
        <time>2013-11-03T14:05:22Z</time>
      </trkpt>
      <trkpt lat="47.8699" lon="1.86976">
        <ele>89</ele>
        <time>2013-11-03T14:05:25Z</time>
      </trkpt>
      <trkpt lat="47.8699" lon="1.86983">
        <ele>85</ele>
        <time>2013-11-03T14:05:29Z</time>
      </trkpt>
      <trkpt lat="47.86987" lon="1.8699">
        <ele>84</ele>
        <time>2013-11-03T14:05:34Z</time>
      </trkpt>
      <trkpt lat="47.86984" lon="1.86993">
        <ele>83</ele>
        <time>2013-11-03T14:05:37Z</time>
      </trkpt>
      <trkpt lat="47.86982" lon="1.87">
        <ele>85</ele>
        <time>2013-11-03T14:05:40Z</time>
      </trkpt>
      <trkpt lat="47.86981" lon="1.87008">
        <ele>89</ele>
        <time>2013-11-03T14:05:43Z</time>
      </trkpt>
      <trkpt lat="47.8698" lon="1.87023">
        <ele>85</ele>
        <time>2013-11-03T14:05:49Z</time>
      </trkpt>
      <trkpt lat="47.86978" lon="1.87031">
        <ele>87</ele>
        <time>2013-11-03T14:05:53Z</time>
      </trkpt>
      <trkpt lat="47.86977" lon="1.87038">
        <ele>85</ele>
        <time>2013-11-03T14:05:56Z</time>
      </trkpt>
      <trkpt lat="47.86976" lon="1.87046">
        <ele>87</ele>
        <time>2013-11-03T14:06:00Z</time>
      </trkpt>
      <trkpt lat="47.86976" lon="1.87054">
        <ele>87</ele>
        <time>2013-11-03T14:06:04Z</time>
      </trkpt>
      <trkpt lat="47.86975" lon="1.87061">
        <ele>89</ele>
        <time>2013-11-03T14:06:13Z</time>
      </trkpt>
      <trkpt lat="47.86974" lon="1.87108">
        <ele>86</ele>
        <time>2013-11-03T14:06:43Z</time>
      </trkpt>
      <trkpt lat="47.86974" lon="1.87115">
        <ele>87</ele>
        <time>2013-11-03T14:06:46Z</time>
      </trkpt>
      <trkpt lat="47.86972" lon="1.87123">
        <ele>86</ele>
        <time>2013-11-03T14:06:49Z</time>
      </trkpt>
      <trkpt lat="47.86969" lon="1.87131">
        <ele>86</ele>
        <time>2013-11-03T14:06:52Z</time>
      </trkpt>
      <trkpt lat="47.86967" lon="1.87138">
        <ele>87</ele>
        <time>2013-11-03T14:06:54Z</time>
      </trkpt>
      <trkpt lat="47.86966" lon="1.87145">
        <ele>86</ele>
        <time>2013-11-03T14:06:56Z</time>
      </trkpt>
      <trkpt lat="47.86966" lon="1.87153">
        <ele>88</ele>
        <time>2013-11-03T14:06:59Z</time>
      </trkpt>
      <trkpt lat="47.86963" lon="1.87161">
        <ele>86</ele>
        <time>2013-11-03T14:07:02Z</time>
      </trkpt>
      <trkpt lat="47.86962" lon="1.87168">
        <ele>87</ele>
        <time>2013-11-03T14:07:05Z</time>
      </trkpt>
      <trkpt lat="47.86961" lon="1.87175">
        <ele>91</ele>
        <time>2013-11-03T14:07:09Z</time>
      </trkpt>
      <trkpt lat="47.8696" lon="1.87183">
        <ele>92</ele>
        <time>2013-11-03T14:07:13Z</time>
      </trkpt>
      <trkpt lat="47.86959" lon="1.8719">
        <ele>95</ele>
        <time>2013-11-03T14:07:16Z</time>
      </trkpt>
      <trkpt lat="47.86957" lon="1.87198">
        <ele>94</ele>
        <time>2013-11-03T14:07:19Z</time>
      </trkpt>
      <trkpt lat="47.86956" lon="1.87205">
        <ele>95</ele>
        <time>2013-11-03T14:07:22Z</time>
      </trkpt>
      <trkpt lat="47.86956" lon="1.87212">
        <ele>93</ele>
        <time>2013-11-03T14:07:26Z</time>
      </trkpt>
      <trkpt lat="47.86956" lon="1.87219">
        <ele>95</ele>
        <time>2013-11-03T14:07:29Z</time>
      </trkpt>
      <trkpt lat="47.86955" lon="1.87232">
        <ele>95</ele>
        <time>2013-11-03T14:07:36Z</time>
      </trkpt>
      <trkpt lat="47.8695" lon="1.87237">
        <ele>92</ele>
        <time>2013-11-03T14:07:39Z</time>
      </trkpt>
      <trkpt lat="47.86947" lon="1.87243">
        <ele>91</ele>
        <time>2013-11-03T14:07:42Z</time>
      </trkpt>
      <trkpt lat="47.86943" lon="1.87249">
        <ele>89</ele>
        <time>2013-11-03T14:07:45Z</time>
      </trkpt>
      <trkpt lat="47.86939" lon="1.87256">
        <ele>90</ele>
        <time>2013-11-03T14:07:48Z</time>
      </trkpt>
      <trkpt lat="47.86936" lon="1.87263">
        <ele>88</ele>
        <time>2013-11-03T14:07:51Z</time>
      </trkpt>
      <trkpt lat="47.86936" lon="1.87273">
        <ele>90</ele>
        <time>2013-11-03T14:07:54Z</time>
      </trkpt>
      <trkpt lat="47.86934" lon="1.87282">
        <ele>89</ele>
        <time>2013-11-03T14:07:57Z</time>
      </trkpt>
      <trkpt lat="47.86932" lon="1.8729">
        <ele>89</ele>
        <time>2013-11-03T14:08:00Z</time>
      </trkpt>
      <trkpt lat="47.86931" lon="1.87298">
        <ele>88</ele>
        <time>2013-11-03T14:08:03Z</time>
      </trkpt>
      <trkpt lat="47.86931" lon="1.87305">
        <ele>86</ele>
        <time>2013-11-03T14:08:06Z</time>
      </trkpt>
      <trkpt lat="47.8693" lon="1.87313">
        <ele>85</ele>
        <time>2013-11-03T14:08:09Z</time>
      </trkpt>
      <trkpt lat="47.86927" lon="1.8732">
        <ele>84</ele>
        <time>2013-11-03T14:08:12Z</time>
      </trkpt>
      <trkpt lat="47.86926" lon="1.87327">
        <ele>86</ele>
        <time>2013-11-03T14:08:15Z</time>
      </trkpt>
      <trkpt lat="47.86925" lon="1.87335">
        <ele>86</ele>
        <time>2013-11-03T14:08:18Z</time>
      </trkpt>
      <trkpt lat="47.86923" lon="1.87342">
        <ele>84</ele>
        <time>2013-11-03T14:08:21Z</time>
      </trkpt>
      <trkpt lat="47.86923" lon="1.87351">
        <ele>83</ele>
        <time>2013-11-03T14:08:24Z</time>
      </trkpt>
      <trkpt lat="47.86923" lon="1.87357">
        <ele>85</ele>
        <time>2013-11-03T14:08:26Z</time>
      </trkpt>
      <trkpt lat="47.86924" lon="1.87367">
        <ele>84</ele>
        <time>2013-11-03T14:08:29Z</time>
      </trkpt>
      <trkpt lat="47.86924" lon="1.87373">
        <ele>84</ele>
        <time>2013-11-03T14:08:32Z</time>
      </trkpt>
      <trkpt lat="47.86924" lon="1.87381">
        <ele>87</ele>
        <time>2013-11-03T14:08:36Z</time>
      </trkpt>
      <trkpt lat="47.86924" lon="1.87388">
        <ele>89</ele>
        <time>2013-11-03T14:08:41Z</time>
      </trkpt>
      <trkpt lat="47.86922" lon="1.87403">
        <ele>89</ele>
        <time>2013-11-03T14:08:50Z</time>
      </trkpt>
      <trkpt lat="47.86921" lon="1.87411">
        <ele>87</ele>
        <time>2013-11-03T14:08:54Z</time>
      </trkpt>
      <trkpt lat="47.86919" lon="1.87418">
        <ele>86</ele>
        <time>2013-11-03T14:08:58Z</time>
      </trkpt>
      <trkpt lat="47.86918" lon="1.87425">
        <ele>88</ele>
        <time>2013-11-03T14:09:02Z</time>
      </trkpt>
      <trkpt lat="47.86919" lon="1.87432">
        <ele>89</ele>
        <time>2013-11-03T14:09:06Z</time>
      </trkpt>
      <trkpt lat="47.86918" lon="1.8744">
        <ele>88</ele>
        <time>2013-11-03T14:09:09Z</time>
      </trkpt>
      <trkpt lat="47.86917" lon="1.87447">
        <ele>87</ele>
        <time>2013-11-03T14:09:12Z</time>
      </trkpt>
      <trkpt lat="47.86915" lon="1.87453">
        <ele>87</ele>
        <time>2013-11-03T14:09:15Z</time>
      </trkpt>
      <trkpt lat="47.86914" lon="1.87461">
        <ele>88</ele>
        <time>2013-11-03T14:09:18Z</time>
      </trkpt>
      <trkpt lat="47.86914" lon="1.87468">
        <ele>89</ele>
        <time>2013-11-03T14:09:21Z</time>
      </trkpt>
      <trkpt lat="47.86914" lon="1.87483">
        <ele>94</ele>
        <time>2013-11-03T14:09:27Z</time>
      </trkpt>
      <trkpt lat="47.86914" lon="1.87491">
        <ele>93</ele>
        <time>2013-11-03T14:09:30Z</time>
      </trkpt>
      <trkpt lat="47.86914" lon="1.87501">
        <ele>93</ele>
        <time>2013-11-03T14:09:33Z</time>
      </trkpt>
      <trkpt lat="47.86915" lon="1.8751">
        <ele>93</ele>
        <time>2013-11-03T14:09:36Z</time>
      </trkpt>
      <trkpt lat="47.86914" lon="1.87517">
        <ele>95</ele>
        <time>2013-11-03T14:09:40Z</time>
      </trkpt>
      <trkpt lat="47.86912" lon="1.87523">
        <ele>97</ele>
        <time>2013-11-03T14:09:44Z</time>
      </trkpt>
      <trkpt lat="47.86911" lon="1.87531">
        <ele>95</ele>
        <time>2013-11-03T14:09:47Z</time>
      </trkpt>
      <trkpt lat="47.86912" lon="1.87538">
        <ele>93</ele>
        <time>2013-11-03T14:09:50Z</time>
      </trkpt>
      <trkpt lat="47.86911" lon="1.87547">
        <ele>88</ele>
        <time>2013-11-03T14:09:54Z</time>
      </trkpt>
      <trkpt lat="47.86909" lon="1.87555">
        <ele>90</ele>
        <time>2013-11-03T14:09:58Z</time>
      </trkpt>
      <trkpt lat="47.86907" lon="1.87562">
        <ele>87</ele>
        <time>2013-11-03T14:10:01Z</time>
      </trkpt>
      <trkpt lat="47.86905" lon="1.8757">
        <ele>86</ele>
        <time>2013-11-03T14:10:04Z</time>
      </trkpt>
      <trkpt lat="47.86903" lon="1.87577">
        <ele>87</ele>
        <time>2013-11-03T14:10:07Z</time>
      </trkpt>
      <trkpt lat="47.86902" lon="1.87585">
        <ele>86</ele>
        <time>2013-11-03T14:10:10Z</time>
      </trkpt>
      <trkpt lat="47.86901" lon="1.87592">
        <ele>88</ele>
        <time>2013-11-03T14:10:13Z</time>
      </trkpt>
      <trkpt lat="47.869" lon="1.87599">
        <ele>87</ele>
        <time>2013-11-03T14:10:17Z</time>
      </trkpt>
      <trkpt lat="47.86899" lon="1.87606">
        <ele>87</ele>
        <time>2013-11-03T14:10:21Z</time>
      </trkpt>
      <trkpt lat="47.86898" lon="1.87613">
        <ele>89</ele>
        <time>2013-11-03T14:10:24Z</time>
      </trkpt>
      <trkpt lat="47.86897" lon="1.87629">
        <ele>85</ele>
        <time>2013-11-03T14:10:32Z</time>
      </trkpt>
      <trkpt lat="47.86898" lon="1.87636">
        <ele>85</ele>
        <time>2013-11-03T14:10:35Z</time>
      </trkpt>
      <trkpt lat="47.869" lon="1.87643">
        <ele>85</ele>
        <time>2013-11-03T14:10:38Z</time>
      </trkpt>
      <trkpt lat="47.869" lon="1.8765">
        <ele>82</ele>
        <time>2013-11-03T14:10:42Z</time>
      </trkpt>
      <trkpt lat="47.86903" lon="1.87658">
        <ele>85</ele>
        <time>2013-11-03T14:10:46Z</time>
      </trkpt>
      <trkpt lat="47.86905" lon="1.87666">
        <ele>85</ele>
        <time>2013-11-03T14:10:49Z</time>
      </trkpt>
      <trkpt lat="47.86906" lon="1.87673">
        <ele>85</ele>
        <time>2013-11-03T14:10:52Z</time>
      </trkpt>
      <trkpt lat="47.86907" lon="1.87681">
        <ele>85</ele>
        <time>2013-11-03T14:10:55Z</time>
      </trkpt>
      <trkpt lat="47.8691" lon="1.87689">
        <ele>86</ele>
        <time>2013-11-03T14:10:58Z</time>
      </trkpt>
      <trkpt lat="47.86914" lon="1.87694">
        <ele>88</ele>
        <time>2013-11-03T14:11:02Z</time>
      </trkpt>
      <trkpt lat="47.86945" lon="1.87655">
        <ele>76</ele>
        <time>2013-11-03T14:11:35Z</time>
      </trkpt>
      <trkpt lat="47.8695" lon="1.87652">
        <ele>77</ele>
        <time>2013-11-03T14:11:40Z</time>
      </trkpt>
      <trkpt lat="47.86955" lon="1.87648">
        <ele>75</ele>
        <time>2013-11-03T14:11:44Z</time>
      </trkpt>
      <trkpt lat="47.86959" lon="1.87651">
        <ele>76</ele>
        <time>2013-11-03T14:11:48Z</time>
      </trkpt>
      <trkpt lat="47.86962" lon="1.87657">
        <ele>75</ele>
        <time>2013-11-03T14:11:54Z</time>
      </trkpt>
      <trkpt lat="47.86964" lon="1.87665">
        <ele>74</ele>
        <time>2013-11-03T14:11:58Z</time>
      </trkpt>
      <trkpt lat="47.86966" lon="1.87673">
        <ele>75</ele>
        <time>2013-11-03T14:12:02Z</time>
      </trkpt>
      <trkpt lat="47.86969" lon="1.87678">
        <ele>79</ele>
        <time>2013-11-03T14:12:06Z</time>
      </trkpt>
      <trkpt lat="47.86983" lon="1.877">
        <ele>79</ele>
        <time>2013-11-03T14:12:23Z</time>
      </trkpt>
      <trkpt lat="47.86987" lon="1.87706">
        <ele>79</ele>
        <time>2013-11-03T14:12:26Z</time>
      </trkpt>
      <trkpt lat="47.8699" lon="1.87714">
        <ele>80</ele>
        <time>2013-11-03T14:12:29Z</time>
      </trkpt>
      <trkpt lat="47.86991" lon="1.87721">
        <ele>84</ele>
        <time>2013-11-03T14:12:32Z</time>
      </trkpt>
      <trkpt lat="47.86994" lon="1.8773">
        <ele>84</ele>
        <time>2013-11-03T14:12:36Z</time>
      </trkpt>
      <trkpt lat="47.87001" lon="1.87733">
        <ele>85</ele>
        <time>2013-11-03T14:12:39Z</time>
      </trkpt>
      <trkpt lat="47.87005" lon="1.87734">
        <ele>84</ele>
        <time>2013-11-03T14:12:41Z</time>
      </trkpt>
      <trkpt lat="47.8701" lon="1.87736">
        <ele>85</ele>
        <time>2013-11-03T14:12:44Z</time>
      </trkpt>
      <trkpt lat="47.87016" lon="1.87735">
        <ele>82</ele>
        <time>2013-11-03T14:12:47Z</time>
      </trkpt>
      <trkpt lat="47.87021" lon="1.87733">
        <ele>79</ele>
        <time>2013-11-03T14:12:51Z</time>
      </trkpt>
      <trkpt lat="47.87026" lon="1.87732">
        <ele>82</ele>
        <time>2013-11-03T14:12:55Z</time>
      </trkpt>
      <trkpt lat="47.87034" lon="1.87689">
        <ele>83</ele>
        <time>2013-11-03T14:13:28Z</time>
      </trkpt>
      <trkpt lat="47.87036" lon="1.87683">
        <ele>80</ele>
        <time>2013-11-03T14:13:31Z</time>
      </trkpt>
      <trkpt lat="47.87038" lon="1.87676">
        <ele>80</ele>
        <time>2013-11-03T14:13:34Z</time>
      </trkpt>
      <trkpt lat="47.8704" lon="1.87669">
        <ele>74</ele>
        <time>2013-11-03T14:13:37Z</time>
      </trkpt>
      <trkpt lat="47.87041" lon="1.87662">
        <ele>75</ele>
        <time>2013-11-03T14:13:41Z</time>
      </trkpt>
      <trkpt lat="47.87045" lon="1.87656">
        <ele>77</ele>
        <time>2013-11-03T14:13:45Z</time>
      </trkpt>
      <trkpt lat="47.87047" lon="1.8765">
        <ele>79</ele>
        <time>2013-11-03T14:13:47Z</time>
      </trkpt>
      <trkpt lat="47.8705" lon="1.87644">
        <ele>80</ele>
        <time>2013-11-03T14:13:52Z</time>
      </trkpt>
      <trkpt lat="47.87082" lon="1.87653">
        <ele>82</ele>
        <time>2013-11-03T14:14:15Z</time>
      </trkpt>
      <trkpt lat="47.87087" lon="1.87655">
        <ele>85</ele>
        <time>2013-11-03T14:14:19Z</time>
      </trkpt>
      <trkpt lat="47.87091" lon="1.87656">
        <ele>87</ele>
        <time>2013-11-03T14:14:23Z</time>
      </trkpt>
      <trkpt lat="47.87098" lon="1.87656">
        <ele>88</ele>
        <time>2013-11-03T14:14:26Z</time>
      </trkpt>
      <trkpt lat="47.87103" lon="1.8766">
        <ele>87</ele>
        <time>2013-11-03T14:14:29Z</time>
      </trkpt>
      <trkpt lat="47.87107" lon="1.87665">
        <ele>85</ele>
        <time>2013-11-03T14:14:33Z</time>
      </trkpt>
      <trkpt lat="47.87111" lon="1.87665">
        <ele>85</ele>
        <time>2013-11-03T14:14:37Z</time>
      </trkpt>
      <trkpt lat="47.87117" lon="1.87665">
        <ele>85</ele>
        <time>2013-11-03T14:14:40Z</time>
      </trkpt>
      <trkpt lat="47.87122" lon="1.87664">
        <ele>85</ele>
        <time>2013-11-03T14:14:43Z</time>
      </trkpt>
      <trkpt lat="47.87126" lon="1.87663">
        <ele>84</ele>
        <time>2013-11-03T14:14:46Z</time>
      </trkpt>
      <trkpt lat="47.87137" lon="1.87656">
        <ele>85</ele>
        <time>2013-11-03T14:14:52Z</time>
      </trkpt>
      <trkpt lat="47.87141" lon="1.87653">
        <ele>79</ele>
        <time>2013-11-03T14:14:55Z</time>
      </trkpt>
      <trkpt lat="47.87147" lon="1.87652">
        <ele>80</ele>
        <time>2013-11-03T14:14:59Z</time>
      </trkpt>
      <trkpt lat="47.87152" lon="1.87648">
        <ele>83</ele>
        <time>2013-11-03T14:15:03Z</time>
      </trkpt>
      <trkpt lat="47.87156" lon="1.87646">
        <ele>83</ele>
        <time>2013-11-03T14:15:06Z</time>
      </trkpt>
      <trkpt lat="47.87161" lon="1.8764">
        <ele>82</ele>
        <time>2013-11-03T14:15:09Z</time>
      </trkpt>
      <trkpt lat="47.87166" lon="1.87636">
        <ele>87</ele>
        <time>2013-11-03T14:15:13Z</time>
      </trkpt>
      <trkpt lat="47.8717" lon="1.87635">
        <ele>89</ele>
        <time>2013-11-03T14:15:17Z</time>
      </trkpt>
      <trkpt lat="47.87176" lon="1.87632">
        <ele>92</ele>
        <time>2013-11-03T14:15:21Z</time>
      </trkpt>
      <trkpt lat="47.87185" lon="1.87626">
        <ele>93</ele>
        <time>2013-11-03T14:15:29Z</time>
      </trkpt>
      <trkpt lat="47.87188" lon="1.87621">
        <ele>89</ele>
        <time>2013-11-03T14:15:34Z</time>
      </trkpt>
      <trkpt lat="47.87191" lon="1.87614">
        <ele>85</ele>
        <time>2013-11-03T14:15:38Z</time>
      </trkpt>
      <trkpt lat="47.87193" lon="1.87608">
        <ele>78</ele>
        <time>2013-11-03T14:15:42Z</time>
      </trkpt>
      <trkpt lat="47.87196" lon="1.87603">
        <ele>78</ele>
        <time>2013-11-03T14:15:55Z</time>
      </trkpt>
      <trkpt lat="47.87194" lon="1.87595">
        <ele>80</ele>
        <time>2013-11-03T14:16:03Z</time>
      </trkpt>
      <trkpt lat="47.87203" lon="1.87554">
        <ele>80</ele>
        <time>2013-11-03T14:16:20Z</time>
      </trkpt>
      <trkpt lat="47.87206" lon="1.87546">
        <ele>79</ele>
        <time>2013-11-03T14:16:23Z</time>
      </trkpt>
      <trkpt lat="47.87209" lon="1.87542">
        <ele>82</ele>
        <time>2013-11-03T14:16:27Z</time>
      </trkpt>
      <trkpt lat="47.87215" lon="1.87541">
        <ele>83</ele>
        <time>2013-11-03T14:16:35Z</time>
      </trkpt>
      <trkpt lat="47.8722" lon="1.87542">
        <ele>83</ele>
        <time>2013-11-03T14:16:38Z</time>
      </trkpt>
      <trkpt lat="47.87225" lon="1.87541">
        <ele>82</ele>
        <time>2013-11-03T14:16:42Z</time>
      </trkpt>
      <trkpt lat="47.87231" lon="1.87541">
        <ele>84</ele>
        <time>2013-11-03T14:16:46Z</time>
      </trkpt>
      <trkpt lat="47.87236" lon="1.87541">
        <ele>85</ele>
        <time>2013-11-03T14:16:49Z</time>
      </trkpt>
      <trkpt lat="47.87242" lon="1.87543">
        <ele>86</ele>
        <time>2013-11-03T14:16:52Z</time>
      </trkpt>
      <trkpt lat="47.87253" lon="1.87542">
        <ele>85</ele>
        <time>2013-11-03T14:16:57Z</time>
      </trkpt>
      <trkpt lat="47.87259" lon="1.87543">
        <ele>85</ele>
        <time>2013-11-03T14:17:00Z</time>
      </trkpt>
      <trkpt lat="47.87265" lon="1.87545">
        <ele>86</ele>
        <time>2013-11-03T14:17:03Z</time>
      </trkpt>
      <trkpt lat="47.87269" lon="1.87546">
        <ele>87</ele>
        <time>2013-11-03T14:17:06Z</time>
      </trkpt>
      <trkpt lat="47.87274" lon="1.87548">
        <ele>88</ele>
        <time>2013-11-03T14:17:10Z</time>
      </trkpt>
      <trkpt lat="47.8728" lon="1.87548">
        <ele>86</ele>
        <time>2013-11-03T14:17:15Z</time>
      </trkpt>
      <trkpt lat="47.87285" lon="1.87548">
        <ele>86</ele>
        <time>2013-11-03T14:17:19Z</time>
      </trkpt>
      <trkpt lat="47.87289" lon="1.8755">
        <ele>84</ele>
        <time>2013-11-03T14:17:22Z</time>
      </trkpt>
      <trkpt lat="47.87295" lon="1.87551">
        <ele>83</ele>
        <time>2013-11-03T14:17:26Z</time>
      </trkpt>
      <trkpt lat="47.87299" lon="1.87554">
        <ele>82</ele>
        <time>2013-11-03T14:17:29Z</time>
      </trkpt>
      <trkpt lat="47.8731" lon="1.87554">
        <ele>83</ele>
        <time>2013-11-03T14:17:37Z</time>
      </trkpt>
      <trkpt lat="47.87315" lon="1.87555">
        <ele>86</ele>
        <time>2013-11-03T14:17:41Z</time>
      </trkpt>
      <trkpt lat="47.8732" lon="1.87555">
        <ele>83</ele>
        <time>2013-11-03T14:17:45Z</time>
      </trkpt>
      <trkpt lat="47.87325" lon="1.87559">
        <ele>84</ele>
        <time>2013-11-03T14:17:49Z</time>
      </trkpt>
      <trkpt lat="47.8733" lon="1.87559">
        <ele>85</ele>
        <time>2013-11-03T14:17:53Z</time>
      </trkpt>
      <trkpt lat="47.87335" lon="1.87559">
        <ele>85</ele>
        <time>2013-11-03T14:17:56Z</time>
      </trkpt>
      <trkpt lat="47.87341" lon="1.87561">
        <ele>84</ele>
        <time>2013-11-03T14:17:59Z</time>
      </trkpt>
      <trkpt lat="47.87346" lon="1.87561">
        <ele>85</ele>
        <time>2013-11-03T14:18:03Z</time>
      </trkpt>
      <trkpt lat="47.87351" lon="1.87562">
        <ele>83</ele>
        <time>2013-11-03T14:18:06Z</time>
      </trkpt>
      <trkpt lat="47.87355" lon="1.87564">
        <ele>83</ele>
        <time>2013-11-03T14:18:09Z</time>
      </trkpt>
      <trkpt lat="47.87364" lon="1.87569">
        <ele>89</ele>
        <time>2013-11-03T14:18:19Z</time>
      </trkpt>
      <trkpt lat="47.87369" lon="1.87572">
        <ele>90</ele>
        <time>2013-11-03T14:18:23Z</time>
      </trkpt>
      <trkpt lat="47.87375" lon="1.87574">
        <ele>91</ele>
        <time>2013-11-03T14:18:27Z</time>
      </trkpt>
      <trkpt lat="47.87379" lon="1.87573">
        <ele>89</ele>
        <time>2013-11-03T14:18:30Z</time>
      </trkpt>
      <trkpt lat="47.87383" lon="1.87568">
        <ele>87</ele>
        <time>2013-11-03T14:18:35Z</time>
      </trkpt>
      <trkpt lat="47.87388" lon="1.87569">
        <ele>90</ele>
        <time>2013-11-03T14:18:44Z</time>
      </trkpt>
      <trkpt lat="47.87394" lon="1.87568">
        <ele>88</ele>
        <time>2013-11-03T14:18:49Z</time>
      </trkpt>
      <trkpt lat="47.87415" lon="1.87572">
        <ele>88</ele>
        <time>2013-11-03T14:19:02Z</time>
      </trkpt>
      <trkpt lat="47.8742" lon="1.87573">
        <ele>87</ele>
        <time>2013-11-03T14:19:05Z</time>
      </trkpt>
      <trkpt lat="47.87425" lon="1.87571">
        <ele>87</ele>
        <time>2013-11-03T14:19:08Z</time>
      </trkpt>
      <trkpt lat="47.87429" lon="1.87576">
        <ele>84</ele>
        <time>2013-11-03T14:19:13Z</time>
      </trkpt>
      <trkpt lat="47.8743" lon="1.87584">
        <ele>83</ele>
        <time>2013-11-03T14:19:17Z</time>
      </trkpt>
      <trkpt lat="47.87435" lon="1.87583">
        <ele>84</ele>
        <time>2013-11-03T14:19:22Z</time>
      </trkpt>
      <trkpt lat="47.8744" lon="1.87586">
        <ele>84</ele>
        <time>2013-11-03T14:19:27Z</time>
      </trkpt>
      <trkpt lat="47.87443" lon="1.87592">
        <ele>84</ele>
        <time>2013-11-03T14:19:30Z</time>
      </trkpt>
      <trkpt lat="47.87447" lon="1.87596">
        <ele>83</ele>
        <time>2013-11-03T14:19:33Z</time>
      </trkpt>
      <trkpt lat="47.87454" lon="1.87617">
        <ele>87</ele>
        <time>2013-11-03T14:19:44Z</time>
      </trkpt>
      <trkpt lat="47.87457" lon="1.87623">
        <ele>89</ele>
        <time>2013-11-03T14:19:47Z</time>
      </trkpt>
      <trkpt lat="47.87458" lon="1.87632">
        <ele>87</ele>
        <time>2013-11-03T14:19:51Z</time>
      </trkpt>
      <trkpt lat="47.87461" lon="1.87638">
        <ele>88</ele>
        <time>2013-11-03T14:19:54Z</time>
      </trkpt>
      <trkpt lat="47.87465" lon="1.87642">
        <ele>91</ele>
        <time>2013-11-03T14:19:57Z</time>
      </trkpt>
      <trkpt lat="47.87469" lon="1.87646">
        <ele>88</ele>
        <time>2013-11-03T14:20:00Z</time>
      </trkpt>
      <trkpt lat="47.87475" lon="1.87649">
        <ele>89</ele>
        <time>2013-11-03T14:20:03Z</time>
      </trkpt>
      <trkpt lat="47.87481" lon="1.87652">
        <ele>90</ele>
        <time>2013-11-03T14:20:06Z</time>
      </trkpt>
      <trkpt lat="47.87484" lon="1.87657">
        <ele>89</ele>
        <time>2013-11-03T14:20:09Z</time>
      </trkpt>
      <trkpt lat="47.87487" lon="1.87662">
        <ele>89</ele>
        <time>2013-11-03T14:20:12Z</time>
      </trkpt>
      <trkpt lat="47.87491" lon="1.87668">
        <ele>90</ele>
        <time>2013-11-03T14:20:16Z</time>
      </trkpt>
      <trkpt lat="47.87494" lon="1.87674">
        <ele>91</ele>
        <time>2013-11-03T14:20:20Z</time>
      </trkpt>
      <trkpt lat="47.87498" lon="1.87679">
        <ele>87</ele>
        <time>2013-11-03T14:20:24Z</time>
      </trkpt>
      <trkpt lat="47.87503" lon="1.87684">
        <ele>87</ele>
        <time>2013-11-03T14:20:28Z</time>
      </trkpt>
      <trkpt lat="47.87513" lon="1.8769">
        <ele>89</ele>
        <time>2013-11-03T14:20:36Z</time>
      </trkpt>
      <trkpt lat="47.87518" lon="1.87689">
        <ele>91</ele>
        <time>2013-11-03T14:20:40Z</time>
      </trkpt>
      <trkpt lat="47.87523" lon="1.8769">
        <ele>90</ele>
        <time>2013-11-03T14:20:46Z</time>
      </trkpt>
      <trkpt lat="47.87529" lon="1.87686">
        <ele>90</ele>
        <time>2013-11-03T14:20:49Z</time>
      </trkpt>
      <trkpt lat="47.87533" lon="1.87683">
        <ele>89</ele>
        <time>2013-11-03T14:20:51Z</time>
      </trkpt>
      <trkpt lat="47.87538" lon="1.87681">
        <ele>87</ele>
        <time>2013-11-03T14:20:54Z</time>
      </trkpt>
      <trkpt lat="47.87543" lon="1.87679">
        <ele>85</ele>
        <time>2013-11-03T14:20:57Z</time>
      </trkpt>
      <trkpt lat="47.87547" lon="1.87675">
        <ele>85</ele>
        <time>2013-11-03T14:21:00Z</time>
      </trkpt>
      <trkpt lat="47.8755" lon="1.8767">
        <ele>82</ele>
        <time>2013-11-03T14:21:03Z</time>
      </trkpt>
      <trkpt lat="47.87552" lon="1.87662">
        <ele>82</ele>
        <time>2013-11-03T14:21:06Z</time>
      </trkpt>
      <trkpt lat="47.87555" lon="1.87655">
        <ele>82</ele>
        <time>2013-11-03T14:21:09Z</time>
      </trkpt>
      <trkpt lat="47.87558" lon="1.8764">
        <ele>82</ele>
        <time>2013-11-03T14:21:15Z</time>
      </trkpt>
      <trkpt lat="47.8756" lon="1.87634">
        <ele>83</ele>
        <time>2013-11-03T14:21:18Z</time>
      </trkpt>
      <trkpt lat="47.87562" lon="1.87627">
        <ele>84</ele>
        <time>2013-11-03T14:21:22Z</time>
      </trkpt>
      <trkpt lat="47.87566" lon="1.8762">
        <ele>86</ele>
        <time>2013-11-03T14:21:26Z</time>
      </trkpt>
      <trkpt lat="47.87571" lon="1.8762">
        <ele>85</ele>
        <time>2013-11-03T14:21:30Z</time>
      </trkpt>
      <trkpt lat="47.87576" lon="1.87619">
        <ele>84</ele>
        <time>2013-11-03T14:21:34Z</time>
      </trkpt>
      <trkpt lat="47.8758" lon="1.87617">
        <ele>84</ele>
        <time>2013-11-03T14:21:38Z</time>
      </trkpt>
      <trkpt lat="47.87584" lon="1.87615">
        <ele>83</ele>
        <time>2013-11-03T14:21:42Z</time>
      </trkpt>
      <trkpt lat="47.876" lon="1.87675">
        <ele>86</ele>
        <time>2013-11-03T14:22:35Z</time>
      </trkpt>
      <trkpt lat="47.87598" lon="1.87682">
        <ele>84</ele>
        <time>2013-11-03T14:22:39Z</time>
      </trkpt>
      <trkpt lat="47.87597" lon="1.87688">
        <ele>83</ele>
        <time>2013-11-03T14:22:43Z</time>
      </trkpt>
      <trkpt lat="47.87598" lon="1.87696">
        <ele>83</ele>
        <time>2013-11-03T14:22:48Z</time>
      </trkpt>
      <trkpt lat="47.87598" lon="1.87703">
        <ele>84</ele>
        <time>2013-11-03T14:22:51Z</time>
      </trkpt>
      <trkpt lat="47.87598" lon="1.87711">
        <ele>85</ele>
        <time>2013-11-03T14:22:54Z</time>
      </trkpt>
      <trkpt lat="47.876" lon="1.87718">
        <ele>89</ele>
        <time>2013-11-03T14:22:57Z</time>
      </trkpt>
      <trkpt lat="47.876" lon="1.87727">
        <ele>89</ele>
        <time>2013-11-03T14:23:01Z</time>
      </trkpt>
      <trkpt lat="47.876" lon="1.87734">
        <ele>87</ele>
        <time>2013-11-03T14:23:04Z</time>
      </trkpt>
      <trkpt lat="47.87599" lon="1.87742">
        <ele>85</ele>
        <time>2013-11-03T14:23:08Z</time>
      </trkpt>
      <trkpt lat="47.87595" lon="1.87756">
        <ele>89</ele>
        <time>2013-11-03T14:23:17Z</time>
      </trkpt>
      <trkpt lat="47.87596" lon="1.87765">
        <ele>87</ele>
        <time>2013-11-03T14:23:21Z</time>
      </trkpt>
      <trkpt lat="47.87596" lon="1.87772">
        <ele>88</ele>
        <time>2013-11-03T14:23:24Z</time>
      </trkpt>
      <trkpt lat="47.87597" lon="1.87779">
        <ele>89</ele>
        <time>2013-11-03T14:23:28Z</time>
      </trkpt>
      <trkpt lat="47.87597" lon="1.87787">
        <ele>89</ele>
        <time>2013-11-03T14:23:32Z</time>
      </trkpt>
      <trkpt lat="47.87595" lon="1.87794">
        <ele>88</ele>
        <time>2013-11-03T14:23:35Z</time>
      </trkpt>
      <trkpt lat="47.87593" lon="1.87802">
        <ele>90</ele>
        <time>2013-11-03T14:23:38Z</time>
      </trkpt>
      <trkpt lat="47.87592" lon="1.87809">
        <ele>89</ele>
        <time>2013-11-03T14:23:40Z</time>
      </trkpt>
      <trkpt lat="47.87593" lon="1.87819">
        <ele>87</ele>
        <time>2013-11-03T14:23:43Z</time>
      </trkpt>
      <trkpt lat="47.87595" lon="1.87827">
        <ele>88</ele>
        <time>2013-11-03T14:23:46Z</time>
      </trkpt>
      <trkpt lat="47.87596" lon="1.87835">
        <ele>89</ele>
        <time>2013-11-03T14:23:50Z</time>
      </trkpt>
      <trkpt lat="47.87597" lon="1.87842">
        <ele>88</ele>
        <time>2013-11-03T14:23:53Z</time>
      </trkpt>
      <trkpt lat="47.87597" lon="1.87851">
        <ele>88</ele>
        <time>2013-11-03T14:23:56Z</time>
      </trkpt>
      <trkpt lat="47.87598" lon="1.87859">
        <ele>88</ele>
        <time>2013-11-03T14:23:59Z</time>
      </trkpt>
      <trkpt lat="47.87596" lon="1.87866">
        <ele>91</ele>
        <time>2013-11-03T14:24:03Z</time>
      </trkpt>
      <trkpt lat="47.87595" lon="1.87874">
        <ele>89</ele>
        <time>2013-11-03T14:24:07Z</time>
      </trkpt>
      <trkpt lat="47.87597" lon="1.87881">
        <ele>90</ele>
        <time>2013-11-03T14:24:11Z</time>
      </trkpt>
      <trkpt lat="47.87598" lon="1.87894">
        <ele>87</ele>
        <time>2013-11-03T14:24:18Z</time>
      </trkpt>
      <trkpt lat="47.87597" lon="1.87901">
        <ele>89</ele>
        <time>2013-11-03T14:24:21Z</time>
      </trkpt>
      <trkpt lat="47.87596" lon="1.87908">
        <ele>89</ele>
        <time>2013-11-03T14:24:24Z</time>
      </trkpt>
      <trkpt lat="47.87597" lon="1.87915">
        <ele>90</ele>
        <time>2013-11-03T14:24:27Z</time>
      </trkpt>
      <trkpt lat="47.87597" lon="1.87924">
        <ele>90</ele>
        <time>2013-11-03T14:24:31Z</time>
      </trkpt>
      <trkpt lat="47.87597" lon="1.87931">
        <ele>90</ele>
        <time>2013-11-03T14:24:34Z</time>
      </trkpt>
      <trkpt lat="47.87598" lon="1.87939">
        <ele>90</ele>
        <time>2013-11-03T14:24:38Z</time>
      </trkpt>
      <trkpt lat="47.87598" lon="1.87946">
        <ele>87</ele>
        <time>2013-11-03T14:24:41Z</time>
      </trkpt>
      <trkpt lat="47.87596" lon="1.87954">
        <ele>86</ele>
        <time>2013-11-03T14:24:44Z</time>
      </trkpt>
      <trkpt lat="47.87594" lon="1.87962">
        <ele>86</ele>
        <time>2013-11-03T14:24:47Z</time>
      </trkpt>
      <trkpt lat="47.87595" lon="1.87969">
        <ele>86</ele>
        <time>2013-11-03T14:24:50Z</time>
      </trkpt>
      <trkpt lat="47.87595" lon="1.87977">
        <ele>89</ele>
        <time>2013-11-03T14:24:53Z</time>
      </trkpt>
      <trkpt lat="47.87595" lon="1.87985">
        <ele>86</ele>
        <time>2013-11-03T14:24:57Z</time>
      </trkpt>
      <trkpt lat="47.87596" lon="1.87992">
        <ele>87</ele>
        <time>2013-11-03T14:25:00Z</time>
      </trkpt>
      <trkpt lat="47.87598" lon="1.88">
        <ele>89</ele>
        <time>2013-11-03T14:25:03Z</time>
      </trkpt>
      <trkpt lat="47.87599" lon="1.88007">
        <ele>89</ele>
        <time>2013-11-03T14:25:06Z</time>
      </trkpt>
      <trkpt lat="47.876" lon="1.88015">
        <ele>88</ele>
        <time>2013-11-03T14:25:09Z</time>
      </trkpt>
      <trkpt lat="47.87601" lon="1.88021">
        <ele>84</ele>
        <time>2013-11-03T14:25:12Z</time>
      </trkpt>
      <trkpt lat="47.87601" lon="1.8803">
        <ele>83</ele>
        <time>2013-11-03T14:25:16Z</time>
      </trkpt>
      <trkpt lat="47.87602" lon="1.88037">
        <ele>85</ele>
        <time>2013-11-03T14:25:19Z</time>
      </trkpt>
      <trkpt lat="47.87603" lon="1.88044">
        <ele>86</ele>
        <time>2013-11-03T14:25:22Z</time>
      </trkpt>
      <trkpt lat="47.87602" lon="1.88052">
        <ele>86</ele>
        <time>2013-11-03T14:25:25Z</time>
      </trkpt>
      <trkpt lat="47.876" lon="1.88059">
        <ele>88</ele>
        <time>2013-11-03T14:25:28Z</time>
      </trkpt>
      <trkpt lat="47.87602" lon="1.88065">
        <ele>90</ele>
        <time>2013-11-03T14:25:32Z</time>
      </trkpt>
      <trkpt lat="47.87603" lon="1.8808">
        <ele>91</ele>
        <time>2013-11-03T14:25:39Z</time>
      </trkpt>
      <trkpt lat="47.87604" lon="1.88088">
        <ele>90</ele>
        <time>2013-11-03T14:25:42Z</time>
      </trkpt>
      <trkpt lat="47.87606" lon="1.88094">
        <ele>82</ele>
        <time>2013-11-03T14:25:46Z</time>
      </trkpt>
      <trkpt lat="47.87602" lon="1.88098">
        <ele>88</ele>
        <time>2013-11-03T14:25:51Z</time>
      </trkpt>
      <trkpt lat="47.87596" lon="1.88099">
        <ele>90</ele>
        <time>2013-11-03T14:25:55Z</time>
      </trkpt>
      <trkpt lat="47.87592" lon="1.88104">
        <ele>89</ele>
        <time>2013-11-03T14:26:00Z</time>
      </trkpt>
      <trkpt lat="47.87591" lon="1.88112">
        <ele>90</ele>
        <time>2013-11-03T14:26:04Z</time>
      </trkpt>
      <trkpt lat="47.87587" lon="1.88116">
        <ele>90</ele>
        <time>2013-11-03T14:26:07Z</time>
      </trkpt>
      <trkpt lat="47.87582" lon="1.88118">
        <ele>93</ele>
        <time>2013-11-03T14:26:10Z</time>
      </trkpt>
      <trkpt lat="47.87621" lon="1.88153">
        <ele>90</ele>
        <time>2013-11-03T14:26:52Z</time>
      </trkpt>
      <trkpt lat="47.87624" lon="1.88159">
        <ele>90</ele>
        <time>2013-11-03T14:26:56Z</time>
      </trkpt>
      <trkpt lat="47.87627" lon="1.88166">
        <ele>90</ele>
        <time>2013-11-03T14:27:00Z</time>
      </trkpt>
      <trkpt lat="47.87631" lon="1.88171">
        <ele>91</ele>
        <time>2013-11-03T14:27:03Z</time>
      </trkpt>
      <trkpt lat="47.87634" lon="1.88175">
        <ele>90</ele>
        <time>2013-11-03T14:27:06Z</time>
      </trkpt>
      <trkpt lat="47.87638" lon="1.8818">
        <ele>91</ele>
        <time>2013-11-03T14:27:09Z</time>
      </trkpt>
      <trkpt lat="47.87641" lon="1.88184">
        <ele>89</ele>
        <time>2013-11-03T14:27:12Z</time>
      </trkpt>
      <trkpt lat="47.87645" lon="1.88188">
        <ele>89</ele>
        <time>2013-11-03T14:27:15Z</time>
      </trkpt>
      <trkpt lat="47.87649" lon="1.88193">
        <ele>88</ele>
        <time>2013-11-03T14:27:19Z</time>
      </trkpt>
      <trkpt lat="47.87653" lon="1.882">
        <ele>92</ele>
        <time>2013-11-03T14:27:23Z</time>
      </trkpt>
      <trkpt lat="47.8766" lon="1.88214">
        <ele>91</ele>
        <time>2013-11-03T14:27:31Z</time>
      </trkpt>
      <trkpt lat="47.87663" lon="1.88218">
        <ele>90</ele>
        <time>2013-11-03T14:27:34Z</time>
      </trkpt>
      <trkpt lat="47.87666" lon="1.88223">
        <ele>88</ele>
        <time>2013-11-03T14:27:37Z</time>
      </trkpt>
      <trkpt lat="47.8767" lon="1.88229">
        <ele>85</ele>
        <time>2013-11-03T14:27:41Z</time>
      </trkpt>
      <trkpt lat="47.87673" lon="1.88235">
        <ele>84</ele>
        <time>2013-11-03T14:27:44Z</time>
      </trkpt>
      <trkpt lat="47.87676" lon="1.88241">
        <ele>85</ele>
        <time>2013-11-03T14:27:47Z</time>
      </trkpt>
      <trkpt lat="47.8768" lon="1.88246">
        <ele>82</ele>
        <time>2013-11-03T14:27:51Z</time>
      </trkpt>
      <trkpt lat="47.87684" lon="1.8825">
        <ele>78</ele>
        <time>2013-11-03T14:27:54Z</time>
      </trkpt>
      <trkpt lat="47.87686" lon="1.88258">
        <ele>82</ele>
        <time>2013-11-03T14:27:58Z</time>
      </trkpt>
      <trkpt lat="47.87686" lon="1.88266">
        <ele>82</ele>
        <time>2013-11-03T14:28:01Z</time>
      </trkpt>
      <trkpt lat="47.87691" lon="1.88278">
        <ele>82</ele>
        <time>2013-11-03T14:28:07Z</time>
      </trkpt>
      <trkpt lat="47.87695" lon="1.88284">
        <ele>84</ele>
        <time>2013-11-03T14:28:11Z</time>
      </trkpt>
      <trkpt lat="47.877" lon="1.88289">
        <ele>87</ele>
        <time>2013-11-03T14:28:14Z</time>
      </trkpt>
      <trkpt lat="47.87704" lon="1.88294">
        <ele>89</ele>
        <time>2013-11-03T14:28:17Z</time>
      </trkpt>
      <trkpt lat="47.87708" lon="1.88298">
        <ele>90</ele>
        <time>2013-11-03T14:28:20Z</time>
      </trkpt>
      <trkpt lat="47.87711" lon="1.88303">
        <ele>90</ele>
        <time>2013-11-03T14:28:23Z</time>
      </trkpt>
      <trkpt lat="47.87715" lon="1.88309">
        <ele>90</ele>
        <time>2013-11-03T14:28:27Z</time>
      </trkpt>
      <trkpt lat="47.87719" lon="1.88313">
        <ele>90</ele>
        <time>2013-11-03T14:28:30Z</time>
      </trkpt>
      <trkpt lat="47.87724" lon="1.88317">
        <ele>89</ele>
        <time>2013-11-03T14:28:33Z</time>
      </trkpt>
      <trkpt lat="47.87727" lon="1.88321">
        <ele>88</ele>
        <time>2013-11-03T14:28:36Z</time>
      </trkpt>
      <trkpt lat="47.87731" lon="1.88326">
        <ele>90</ele>
        <time>2013-11-03T14:28:39Z</time>
      </trkpt>
      <trkpt lat="47.87734" lon="1.88333">
        <ele>86</ele>
        <time>2013-11-03T14:28:43Z</time>
      </trkpt>
      <trkpt lat="47.87743" lon="1.88338">
        <ele>86</ele>
        <time>2013-11-03T14:28:51Z</time>
      </trkpt>
      <trkpt lat="47.87748" lon="1.88341">
        <ele>87</ele>
        <time>2013-11-03T14:28:55Z</time>
      </trkpt>
      <trkpt lat="47.87753" lon="1.88345">
        <ele>87</ele>
        <time>2013-11-03T14:28:59Z</time>
      </trkpt>
      <trkpt lat="47.87757" lon="1.8835">
        <ele>86</ele>
        <time>2013-11-03T14:29:03Z</time>
      </trkpt>
      <trkpt lat="47.87761" lon="1.88354">
        <ele>84</ele>
        <time>2013-11-03T14:29:06Z</time>
      </trkpt>
      <trkpt lat="47.87766" lon="1.88357">
        <ele>83</ele>
        <time>2013-11-03T14:29:09Z</time>
      </trkpt>
      <trkpt lat="47.87769" lon="1.88362">
        <ele>85</ele>
        <time>2013-11-03T14:29:12Z</time>
      </trkpt>
      <trkpt lat="47.87769" lon="1.88369">
        <ele>84</ele>
        <time>2013-11-03T14:29:15Z</time>
      </trkpt>
      <trkpt lat="47.87766" lon="1.88374">
        <ele>86</ele>
        <time>2013-11-03T14:29:18Z</time>
      </trkpt>
      <trkpt lat="47.87763" lon="1.88381">
        <ele>87</ele>
        <time>2013-11-03T14:29:22Z</time>
      </trkpt>
      <trkpt lat="47.87753" lon="1.88408">
        <ele>91</ele>
        <time>2013-11-03T14:29:38Z</time>
      </trkpt>
      <trkpt lat="47.87751" lon="1.88415">
        <ele>92</ele>
        <time>2013-11-03T14:29:42Z</time>
      </trkpt>
      <trkpt lat="47.87751" lon="1.88423">
        <ele>92</ele>
        <time>2013-11-03T14:29:45Z</time>
      </trkpt>
      <trkpt lat="47.87749" lon="1.88429">
        <ele>94</ele>
        <time>2013-11-03T14:29:49Z</time>
      </trkpt>
      <trkpt lat="47.87746" lon="1.88436">
        <ele>93</ele>
        <time>2013-11-03T14:29:53Z</time>
      </trkpt>
      <trkpt lat="47.87745" lon="1.88444">
        <ele>93</ele>
        <time>2013-11-03T14:29:57Z</time>
      </trkpt>
      <trkpt lat="47.87744" lon="1.88453">
        <ele>91</ele>
        <time>2013-11-03T14:30:00Z</time>
      </trkpt>
      <trkpt lat="47.87743" lon="1.8846">
        <ele>89</ele>
        <time>2013-11-03T14:30:03Z</time>
      </trkpt>
      <trkpt lat="47.87743" lon="1.88467">
        <ele>91</ele>
        <time>2013-11-03T14:30:09Z</time>
      </trkpt>
      <trkpt lat="47.87741" lon="1.88485">
        <ele>91</ele>
        <time>2013-11-03T14:30:15Z</time>
      </trkpt>
      <trkpt lat="47.87738" lon="1.88491">
        <ele>92</ele>
        <time>2013-11-03T14:30:18Z</time>
      </trkpt>
      <trkpt lat="47.87735" lon="1.88499">
        <ele>92</ele>
        <time>2013-11-03T14:30:22Z</time>
      </trkpt>
      <trkpt lat="47.87733" lon="1.88505">
        <ele>93</ele>
        <time>2013-11-03T14:30:25Z</time>
      </trkpt>
      <trkpt lat="47.8773" lon="1.88511">
        <ele>92</ele>
        <time>2013-11-03T14:30:28Z</time>
      </trkpt>
      <trkpt lat="47.87727" lon="1.88518">
        <ele>91</ele>
        <time>2013-11-03T14:30:31Z</time>
      </trkpt>
      <trkpt lat="47.87723" lon="1.88523">
        <ele>92</ele>
        <time>2013-11-03T14:30:34Z</time>
      </trkpt>
      <trkpt lat="47.87719" lon="1.88528">
        <ele>94</ele>
        <time>2013-11-03T14:30:37Z</time>
      </trkpt>
      <trkpt lat="47.87715" lon="1.88532">
        <ele>94</ele>
        <time>2013-11-03T14:30:40Z</time>
      </trkpt>
      <trkpt lat="47.87712" lon="1.88539">
        <ele>92</ele>
        <time>2013-11-03T14:30:45Z</time>
      </trkpt>
      <trkpt lat="47.87709" lon="1.88544">
        <ele>94</ele>
        <time>2013-11-03T14:30:48Z</time>
      </trkpt>
      <trkpt lat="47.877" lon="1.88553">
        <ele>94</ele>
        <time>2013-11-03T14:30:56Z</time>
      </trkpt>
      <trkpt lat="47.87695" lon="1.88557">
        <ele>92</ele>
        <time>2013-11-03T14:31:00Z</time>
      </trkpt>
      <trkpt lat="47.8769" lon="1.88562">
        <ele>92</ele>
        <time>2013-11-03T14:31:04Z</time>
      </trkpt>
      <trkpt lat="47.87685" lon="1.88566">
        <ele>93</ele>
        <time>2013-11-03T14:31:07Z</time>
      </trkpt>
      <trkpt lat="47.87681" lon="1.88569">
        <ele>93</ele>
        <time>2013-11-03T14:31:10Z</time>
      </trkpt>
      <trkpt lat="47.87675" lon="1.88572">
        <ele>93</ele>
        <time>2013-11-03T14:31:14Z</time>
      </trkpt>
      <trkpt lat="47.8767" lon="1.88575">
        <ele>92</ele>
        <time>2013-11-03T14:31:17Z</time>
      </trkpt>
      <trkpt lat="47.87666" lon="1.88577">
        <ele>91</ele>
        <time>2013-11-03T14:31:20Z</time>
      </trkpt>
      <trkpt lat="47.87661" lon="1.8858">
        <ele>91</ele>
        <time>2013-11-03T14:31:23Z</time>
      </trkpt>
      <trkpt lat="47.87657" lon="1.8858">
        <ele>90</ele>
        <time>2013-11-03T14:31:26Z</time>
      </trkpt>
      <trkpt lat="47.87646" lon="1.88576">
        <ele>89</ele>
        <time>2013-11-03T14:31:34Z</time>
      </trkpt>
      <trkpt lat="47.8764" lon="1.88576">
        <ele>90</ele>
        <time>2013-11-03T14:31:38Z</time>
      </trkpt>
      <trkpt lat="47.87635" lon="1.88577">
        <ele>90</ele>
        <time>2013-11-03T14:31:41Z</time>
      </trkpt>
      <trkpt lat="47.8763" lon="1.88576">
        <ele>91</ele>
        <time>2013-11-03T14:31:45Z</time>
      </trkpt>
      <trkpt lat="47.87625" lon="1.88577">
        <ele>92</ele>
        <time>2013-11-03T14:31:48Z</time>
      </trkpt>
      <trkpt lat="47.8762" lon="1.88579">
        <ele>91</ele>
        <time>2013-11-03T14:31:51Z</time>
      </trkpt>
      <trkpt lat="47.87615" lon="1.8858">
        <ele>90</ele>
        <time>2013-11-03T14:31:54Z</time>
      </trkpt>
      <trkpt lat="47.87611" lon="1.8858">
        <ele>88</ele>
        <time>2013-11-03T14:31:57Z</time>
      </trkpt>
      <trkpt lat="47.87605" lon="1.88578">
        <ele>89</ele>
        <time>2013-11-03T14:32:01Z</time>
      </trkpt>
      <trkpt lat="47.876" lon="1.88575">
        <ele>88</ele>
        <time>2013-11-03T14:32:05Z</time>
      </trkpt>
      <trkpt lat="47.87589" lon="1.88568">
        <ele>85</ele>
        <time>2013-11-03T14:32:13Z</time>
      </trkpt>
      <trkpt lat="47.87584" lon="1.88569">
        <ele>87</ele>
        <time>2013-11-03T14:32:17Z</time>
      </trkpt>
      <trkpt lat="47.87578" lon="1.88569">
        <ele>87</ele>
        <time>2013-11-03T14:32:21Z</time>
      </trkpt>
      <trkpt lat="47.87573" lon="1.8857">
        <ele>86</ele>
        <time>2013-11-03T14:32:24Z</time>
      </trkpt>
      <trkpt lat="47.87568" lon="1.88569">
        <ele>85</ele>
        <time>2013-11-03T14:32:28Z</time>
      </trkpt>
      <trkpt lat="47.87563" lon="1.8857">
        <ele>84</ele>
        <time>2013-11-03T14:32:32Z</time>
      </trkpt>
      <trkpt lat="47.87558" lon="1.88571">
        <ele>82</ele>
        <time>2013-11-03T14:32:36Z</time>
      </trkpt>
      <trkpt lat="47.87553" lon="1.88572">
        <ele>83</ele>
        <time>2013-11-03T14:32:39Z</time>
      </trkpt>
      <trkpt lat="47.87548" lon="1.8857">
        <ele>83</ele>
        <time>2013-11-03T14:32:42Z</time>
      </trkpt>
      <trkpt lat="47.87543" lon="1.88569">
        <ele>82</ele>
        <time>2013-11-03T14:32:45Z</time>
      </trkpt>
      <trkpt lat="47.87534" lon="1.88565">
        <ele>82</ele>
        <time>2013-11-03T14:32:55Z</time>
      </trkpt>
      <trkpt lat="47.87528" lon="1.88564">
        <ele>83</ele>
        <time>2013-11-03T14:33:05Z</time>
      </trkpt>
      <trkpt lat="47.87524" lon="1.88564">
        <ele>80</ele>
        <time>2013-11-03T14:33:08Z</time>
      </trkpt>
      <trkpt lat="47.87519" lon="1.88564">
        <ele>80</ele>
        <time>2013-11-03T14:33:11Z</time>
      </trkpt>
      <trkpt lat="47.87513" lon="1.88564">
        <ele>80</ele>
        <time>2013-11-03T14:33:14Z</time>
      </trkpt>
      <trkpt lat="47.87507" lon="1.88565">
        <ele>81</ele>
        <time>2013-11-03T14:33:17Z</time>
      </trkpt>
      <trkpt lat="47.87502" lon="1.88564">
        <ele>81</ele>
        <time>2013-11-03T14:33:20Z</time>
      </trkpt>
      <trkpt lat="47.87497" lon="1.88563">
        <ele>81</ele>
        <time>2013-11-03T14:33:23Z</time>
      </trkpt>
      <trkpt lat="47.87492" lon="1.88562">
        <ele>83</ele>
        <time>2013-11-03T14:33:26Z</time>
      </trkpt>
      <trkpt lat="47.87487" lon="1.88561">
        <ele>82</ele>
        <time>2013-11-03T14:33:29Z</time>
      </trkpt>
      <trkpt lat="47.87481" lon="1.88562">
        <ele>82</ele>
        <time>2013-11-03T14:33:33Z</time>
      </trkpt>
      <trkpt lat="47.87476" lon="1.88561">
        <ele>83</ele>
        <time>2013-11-03T14:33:36Z</time>
      </trkpt>
      <trkpt lat="47.87471" lon="1.88561">
        <ele>83</ele>
        <time>2013-11-03T14:33:40Z</time>
      </trkpt>
      <trkpt lat="47.87467" lon="1.88558">
        <ele>87</ele>
        <time>2013-11-03T14:33:43Z</time>
      </trkpt>
      <trkpt lat="47.87462" lon="1.88557">
        <ele>87</ele>
        <time>2013-11-03T14:33:46Z</time>
      </trkpt>
      <trkpt lat="47.87451" lon="1.88556">
        <ele>87</ele>
        <time>2013-11-03T14:33:54Z</time>
      </trkpt>
      <trkpt lat="47.87446" lon="1.88556">
        <ele>91</ele>
        <time>2013-11-03T14:33:57Z</time>
      </trkpt>
      <trkpt lat="47.87442" lon="1.88556">
        <ele>90</ele>
        <time>2013-11-03T14:34:00Z</time>
      </trkpt>
      <trkpt lat="47.87437" lon="1.88555">
        <ele>90</ele>
        <time>2013-11-03T14:34:03Z</time>
      </trkpt>
      <trkpt lat="47.87431" lon="1.88555">
        <ele>87</ele>
        <time>2013-11-03T14:34:07Z</time>
      </trkpt>
      <trkpt lat="47.87426" lon="1.88557">
        <ele>85</ele>
        <time>2013-11-03T14:34:12Z</time>
      </trkpt>
      <trkpt lat="47.87421" lon="1.8856">
        <ele>84</ele>
        <time>2013-11-03T14:34:16Z</time>
      </trkpt>
      <trkpt lat="47.87419" lon="1.88567">
        <ele>84</ele>
        <time>2013-11-03T14:34:20Z</time>
      </trkpt>
      <trkpt lat="47.87418" lon="1.88574">
        <ele>85</ele>
        <time>2013-11-03T14:34:23Z</time>
      </trkpt>
      <trkpt lat="47.87416" lon="1.88606">
        <ele>90</ele>
        <time>2013-11-03T14:34:39Z</time>
      </trkpt>
      <trkpt lat="47.87416" lon="1.88613">
        <ele>92</ele>
        <time>2013-11-03T14:34:43Z</time>
      </trkpt>
      <trkpt lat="47.87417" lon="1.88621">
        <ele>94</ele>
        <time>2013-11-03T14:34:46Z</time>
      </trkpt>
      <trkpt lat="47.87418" lon="1.88629">
        <ele>92</ele>
        <time>2013-11-03T14:34:49Z</time>
      </trkpt>
      <trkpt lat="47.87418" lon="1.88636">
        <ele>90</ele>
        <time>2013-11-03T14:34:52Z</time>
      </trkpt>
      <trkpt lat="47.87419" lon="1.88644">
        <ele>88</ele>
        <time>2013-11-03T14:34:56Z</time>
      </trkpt>
      <trkpt lat="47.8742" lon="1.88652">
        <ele>87</ele>
        <time>2013-11-03T14:35:00Z</time>
      </trkpt>
      <trkpt lat="47.87419" lon="1.88658">
        <ele>89</ele>
        <time>2013-11-03T14:35:03Z</time>
      </trkpt>
      <trkpt lat="47.87419" lon="1.88667">
        <ele>93</ele>
        <time>2013-11-03T14:35:07Z</time>
      </trkpt>
      <trkpt lat="47.87419" lon="1.88674">
        <ele>93</ele>
        <time>2013-11-03T14:35:11Z</time>
      </trkpt>
      <trkpt lat="47.87421" lon="1.88689">
        <ele>95</ele>
        <time>2013-11-03T14:35:20Z</time>
      </trkpt>
      <trkpt lat="47.87421" lon="1.88698">
        <ele>95</ele>
        <time>2013-11-03T14:35:23Z</time>
      </trkpt>
      <trkpt lat="47.87421" lon="1.88704">
        <ele>94</ele>
        <time>2013-11-03T14:35:26Z</time>
      </trkpt>
      <trkpt lat="47.8742" lon="1.88711">
        <ele>94</ele>
        <time>2013-11-03T14:35:29Z</time>
      </trkpt>
      <trkpt lat="47.87418" lon="1.88718">
        <ele>92</ele>
        <time>2013-11-03T14:35:32Z</time>
      </trkpt>
      <trkpt lat="47.87416" lon="1.88724">
        <ele>90</ele>
        <time>2013-11-03T14:35:35Z</time>
      </trkpt>
      <trkpt lat="47.87416" lon="1.88732">
        <ele>92</ele>
        <time>2013-11-03T14:35:39Z</time>
      </trkpt>
      <trkpt lat="47.87416" lon="1.88741">
        <ele>93</ele>
        <time>2013-11-03T14:35:43Z</time>
      </trkpt>
      <trkpt lat="47.87415" lon="1.88747">
        <ele>95</ele>
        <time>2013-11-03T14:35:46Z</time>
      </trkpt>
      <trkpt lat="47.87414" lon="1.88754">
        <ele>95</ele>
        <time>2013-11-03T14:35:49Z</time>
      </trkpt>
      <trkpt lat="47.87413" lon="1.88761">
        <ele>95</ele>
        <time>2013-11-03T14:35:52Z</time>
      </trkpt>
      <trkpt lat="47.87414" lon="1.88776">
        <ele>97</ele>
        <time>2013-11-03T14:35:58Z</time>
      </trkpt>
      <trkpt lat="47.87413" lon="1.88785">
        <ele>94</ele>
        <time>2013-11-03T14:36:01Z</time>
      </trkpt>
      <trkpt lat="47.87413" lon="1.88793">
        <ele>93</ele>
        <time>2013-11-03T14:36:04Z</time>
      </trkpt>
      <trkpt lat="47.87411" lon="1.88801">
        <ele>90</ele>
        <time>2013-11-03T14:36:07Z</time>
      </trkpt>
      <trkpt lat="47.8741" lon="1.88808">
        <ele>88</ele>
        <time>2013-11-03T14:36:10Z</time>
      </trkpt>
      <trkpt lat="47.87411" lon="1.88815">
        <ele>91</ele>
        <time>2013-11-03T14:36:13Z</time>
      </trkpt>
      <trkpt lat="47.87412" lon="1.88824">
        <ele>90</ele>
        <time>2013-11-03T14:36:17Z</time>
      </trkpt>
      <trkpt lat="47.87414" lon="1.88831">
        <ele>88</ele>
        <time>2013-11-03T14:36:22Z</time>
      </trkpt>
      <trkpt lat="47.87413" lon="1.88841">
        <ele>90</ele>
        <time>2013-11-03T14:36:26Z</time>
      </trkpt>
      <trkpt lat="47.8741" lon="1.88848">
        <ele>88</ele>
        <time>2013-11-03T14:36:29Z</time>
      </trkpt>
      <trkpt lat="47.87408" lon="1.88857">
        <ele>87</ele>
        <time>2013-11-03T14:36:32Z</time>
      </trkpt>
      <trkpt lat="47.87407" lon="1.88865">
        <ele>87</ele>
        <time>2013-11-03T14:36:35Z</time>
      </trkpt>
      <trkpt lat="47.87406" lon="1.88872">
        <ele>85</ele>
        <time>2013-11-03T14:36:38Z</time>
      </trkpt>
      <trkpt lat="47.87404" lon="1.88878">
        <ele>87</ele>
        <time>2013-11-03T14:36:41Z</time>
      </trkpt>
      <trkpt lat="47.87397" lon="1.8889">
        <ele>95</ele>
        <time>2013-11-03T14:36:49Z</time>
      </trkpt>
      <trkpt lat="47.87397" lon="1.88898">
        <ele>95</ele>
        <time>2013-11-03T14:36:53Z</time>
      </trkpt>
      <trkpt lat="47.87396" lon="1.88905">
        <ele>93</ele>
        <time>2013-11-03T14:36:56Z</time>
      </trkpt>
      <trkpt lat="47.87394" lon="1.88913">
        <ele>90</ele>
        <time>2013-11-03T14:37:00Z</time>
      </trkpt>
      <trkpt lat="47.87393" lon="1.88921">
        <ele>88</ele>
        <time>2013-11-03T14:37:03Z</time>
      </trkpt>
      <trkpt lat="47.87392" lon="1.88928">
        <ele>88</ele>
        <time>2013-11-03T14:37:06Z</time>
      </trkpt>
      <trkpt lat="47.87392" lon="1.88936">
        <ele>87</ele>
        <time>2013-11-03T14:37:09Z</time>
      </trkpt>
      <trkpt lat="47.8739" lon="1.88944">
        <ele>87</ele>
        <time>2013-11-03T14:37:12Z</time>
      </trkpt>
      <trkpt lat="47.87387" lon="1.8895">
        <ele>88</ele>
        <time>2013-11-03T14:37:16Z</time>
      </trkpt>
      <trkpt lat="47.87382" lon="1.8895">
        <ele>89</ele>
        <time>2013-11-03T14:37:19Z</time>
      </trkpt>
      <trkpt lat="47.87367" lon="1.88948">
        <ele>90</ele>
        <time>2013-11-03T14:37:31Z</time>
      </trkpt>
      <trkpt lat="47.87361" lon="1.88948">
        <ele>91</ele>
        <time>2013-11-03T14:37:35Z</time>
      </trkpt>
      <trkpt lat="47.87356" lon="1.88948">
        <ele>91</ele>
        <time>2013-11-03T14:37:39Z</time>
      </trkpt>
      <trkpt lat="47.87351" lon="1.88946">
        <ele>91</ele>
        <time>2013-11-03T14:37:43Z</time>
      </trkpt>
      <trkpt lat="47.87345" lon="1.88945">
        <ele>88</ele>
        <time>2013-11-03T14:37:47Z</time>
      </trkpt>
      <trkpt lat="47.8734" lon="1.88945">
        <ele>86</ele>
        <time>2013-11-03T14:37:51Z</time>
      </trkpt>
      <trkpt lat="47.87334" lon="1.88946">
        <ele>90</ele>
        <time>2013-11-03T14:37:55Z</time>
      </trkpt>
      <trkpt lat="47.87329" lon="1.88945">
        <ele>90</ele>
        <time>2013-11-03T14:37:59Z</time>
      </trkpt>
      <trkpt lat="47.87323" lon="1.88941">
        <ele>88</ele>
        <time>2013-11-03T14:38:03Z</time>
      </trkpt>
      <trkpt lat="47.87314" lon="1.88939">
        <ele>88</ele>
        <time>2013-11-03T14:38:11Z</time>
      </trkpt>
      <trkpt lat="47.87309" lon="1.88943">
        <ele>87</ele>
        <time>2013-11-03T14:38:15Z</time>
      </trkpt>
      <trkpt lat="47.87304" lon="1.88946">
        <ele>87</ele>
        <time>2013-11-03T14:38:19Z</time>
      </trkpt>
      <trkpt lat="47.873" lon="1.8895">
        <ele>89</ele>
        <time>2013-11-03T14:38:22Z</time>
      </trkpt>
      <trkpt lat="47.87294" lon="1.88953">
        <ele>93</ele>
        <time>2013-11-03T14:38:25Z</time>
      </trkpt>
      <trkpt lat="47.87289" lon="1.88957">
        <ele>93</ele>
        <time>2013-11-03T14:38:28Z</time>
      </trkpt>
      <trkpt lat="47.87285" lon="1.88963">
        <ele>92</ele>
        <time>2013-11-03T14:38:32Z</time>
      </trkpt>
      <trkpt lat="47.87282" lon="1.88969">
        <ele>94</ele>
        <time>2013-11-03T14:38:35Z</time>
      </trkpt>
      <trkpt lat="47.87278" lon="1.88974">
        <ele>94</ele>
        <time>2013-11-03T14:38:38Z</time>
      </trkpt>
      <trkpt lat="47.87274" lon="1.88988">
        <ele>97</ele>
        <time>2013-11-03T14:38:49Z</time>
      </trkpt>
      <trkpt lat="47.87272" lon="1.88995">
        <ele>95</ele>
        <time>2013-11-03T14:38:53Z</time>
      </trkpt>
      <trkpt lat="47.8727" lon="1.89002">
        <ele>92</ele>
        <time>2013-11-03T14:38:57Z</time>
      </trkpt>
      <trkpt lat="47.87268" lon="1.89009">
        <ele>94</ele>
        <time>2013-11-03T14:39:01Z</time>
      </trkpt>
      <trkpt lat="47.87267" lon="1.89016">
        <ele>91</ele>
        <time>2013-11-03T14:39:04Z</time>
      </trkpt>
      <trkpt lat="47.87265" lon="1.89022">
        <ele>92</ele>
        <time>2013-11-03T14:39:07Z</time>
      </trkpt>
      <trkpt lat="47.87262" lon="1.8903">
        <ele>91</ele>
        <time>2013-11-03T14:39:11Z</time>
      </trkpt>
      <trkpt lat="47.87259" lon="1.89036">
        <ele>93</ele>
        <time>2013-11-03T14:39:15Z</time>
      </trkpt>
      <trkpt lat="47.87254" lon="1.89041">
        <ele>93</ele>
        <time>2013-11-03T14:39:19Z</time>
      </trkpt>
      <trkpt lat="47.87252" lon="1.89047">
        <ele>93</ele>
        <time>2013-11-03T14:39:22Z</time>
      </trkpt>
      <trkpt lat="47.87246" lon="1.89059">
        <ele>95</ele>
        <time>2013-11-03T14:39:28Z</time>
      </trkpt>
      <trkpt lat="47.87243" lon="1.89064">
        <ele>94</ele>
        <time>2013-11-03T14:39:31Z</time>
      </trkpt>
      <trkpt lat="47.8724" lon="1.89071">
        <ele>95</ele>
        <time>2013-11-03T14:39:34Z</time>
      </trkpt>
      <trkpt lat="47.87238" lon="1.89078">
        <ele>95</ele>
        <time>2013-11-03T14:39:37Z</time>
      </trkpt>
      <trkpt lat="47.87234" lon="1.89084">
        <ele>95</ele>
        <time>2013-11-03T14:39:40Z</time>
      </trkpt>
      <trkpt lat="47.87231" lon="1.89091">
        <ele>95</ele>
        <time>2013-11-03T14:39:43Z</time>
      </trkpt>
      <trkpt lat="47.87228" lon="1.89097">
        <ele>97</ele>
        <time>2013-11-03T14:39:47Z</time>
      </trkpt>
      <trkpt lat="47.87226" lon="1.89106">
        <ele>92</ele>
        <time>2013-11-03T14:39:51Z</time>
      </trkpt>
      <trkpt lat="47.87226" lon="1.89114">
        <ele>92</ele>
        <time>2013-11-03T14:39:55Z</time>
      </trkpt>
      <trkpt lat="47.87223" lon="1.89121">
        <ele>89</ele>
        <time>2013-11-03T14:39:59Z</time>
      </trkpt>
      <trkpt lat="47.87223" lon="1.89128">
        <ele>88</ele>
        <time>2013-11-03T14:40:01Z</time>
      </trkpt>
      <trkpt lat="47.87218" lon="1.89134">
        <ele>89</ele>
        <time>2013-11-03T14:40:04Z</time>
      </trkpt>
      <trkpt lat="47.87215" lon="1.89141">
        <ele>92</ele>
        <time>2013-11-03T14:40:08Z</time>
      </trkpt>
      <trkpt lat="47.87209" lon="1.89152">
        <ele>93</ele>
        <time>2013-11-03T14:40:17Z</time>
      </trkpt>
      <trkpt lat="47.87209" lon="1.89161">
        <ele>92</ele>
        <time>2013-11-03T14:40:21Z</time>
      </trkpt>
      <trkpt lat="47.87207" lon="1.89168">
        <ele>97</ele>
        <time>2013-11-03T14:40:25Z</time>
      </trkpt>
      <trkpt lat="47.87207" lon="1.89175">
        <ele>96</ele>
        <time>2013-11-03T14:40:29Z</time>
      </trkpt>
      <trkpt lat="47.87207" lon="1.89182">
        <ele>93</ele>
        <time>2013-11-03T14:40:33Z</time>
      </trkpt>
      <trkpt lat="47.87207" lon="1.8919">
        <ele>93</ele>
        <time>2013-11-03T14:40:37Z</time>
      </trkpt>
      <trkpt lat="47.87207" lon="1.89198">
        <ele>94</ele>
        <time>2013-11-03T14:40:40Z</time>
      </trkpt>
      <trkpt lat="47.87207" lon="1.89205">
        <ele>94</ele>
        <time>2013-11-03T14:40:45Z</time>
      </trkpt>
      <trkpt lat="47.87207" lon="1.89214">
        <ele>93</ele>
        <time>2013-11-03T14:40:50Z</time>
      </trkpt>
      <trkpt lat="47.87204" lon="1.8923">
        <ele>93</ele>
        <time>2013-11-03T14:40:58Z</time>
      </trkpt>
      <trkpt lat="47.87203" lon="1.89236">
        <ele>94</ele>
        <time>2013-11-03T14:41:01Z</time>
      </trkpt>
      <trkpt lat="47.87201" lon="1.89244">
        <ele>95</ele>
        <time>2013-11-03T14:41:05Z</time>
      </trkpt>
      <trkpt lat="47.87201" lon="1.89253">
        <ele>93</ele>
        <time>2013-11-03T14:41:09Z</time>
      </trkpt>
      <trkpt lat="47.872" lon="1.89262">
        <ele>93</ele>
        <time>2013-11-03T14:41:13Z</time>
      </trkpt>
      <trkpt lat="47.872" lon="1.8927">
        <ele>94</ele>
        <time>2013-11-03T14:41:16Z</time>
      </trkpt>
      <trkpt lat="47.87198" lon="1.89276">
        <ele>96</ele>
        <time>2013-11-03T14:41:20Z</time>
      </trkpt>
      <trkpt lat="47.87196" lon="1.89283">
        <ele>97</ele>
        <time>2013-11-03T14:41:24Z</time>
      </trkpt>
      <trkpt lat="47.87197" lon="1.8929">
        <ele>97</ele>
        <time>2013-11-03T14:41:28Z</time>
      </trkpt>
      <trkpt lat="47.87191" lon="1.89323">
        <ele>95</ele>
        <time>2013-11-03T14:41:49Z</time>
      </trkpt>
      <trkpt lat="47.87188" lon="1.89331">
        <ele>97</ele>
        <time>2013-11-03T14:41:52Z</time>
      </trkpt>
      <trkpt lat="47.87187" lon="1.8934">
        <ele>97</ele>
        <time>2013-11-03T14:41:55Z</time>
      </trkpt>
      <trkpt lat="47.87186" lon="1.89349">
        <ele>99</ele>
        <time>2013-11-03T14:41:58Z</time>
      </trkpt>
      <trkpt lat="47.87184" lon="1.89356">
        <ele>97</ele>
        <time>2013-11-03T14:42:01Z</time>
      </trkpt>
      <trkpt lat="47.87185" lon="1.89363">
        <ele>96</ele>
        <time>2013-11-03T14:42:04Z</time>
      </trkpt>
      <trkpt lat="47.87183" lon="1.89371">
        <ele>97</ele>
        <time>2013-11-03T14:42:07Z</time>
      </trkpt>
      <trkpt lat="47.8718" lon="1.89377">
        <ele>95</ele>
        <time>2013-11-03T14:42:10Z</time>
      </trkpt>
      <trkpt lat="47.87178" lon="1.89384">
        <ele>98</ele>
        <time>2013-11-03T14:42:13Z</time>
      </trkpt>
      <trkpt lat="47.87177" lon="1.89391">
        <ele>97</ele>
        <time>2013-11-03T14:42:17Z</time>
      </trkpt>
      <trkpt lat="47.87174" lon="1.89399">
        <ele>100</ele>
        <time>2013-11-03T14:42:22Z</time>
      </trkpt>
      <trkpt lat="47.87175" lon="1.89406">
        <ele>100</ele>
        <time>2013-11-03T14:42:25Z</time>
      </trkpt>
      <trkpt lat="47.87171" lon="1.8942">
        <ele>97</ele>
        <time>2013-11-03T14:42:31Z</time>
      </trkpt>
      <trkpt lat="47.87173" lon="1.89429">
        <ele>95</ele>
        <time>2013-11-03T14:42:37Z</time>
      </trkpt>
      <trkpt lat="47.87178" lon="1.89435">
        <ele>97</ele>
        <time>2013-11-03T14:42:40Z</time>
      </trkpt>
      <trkpt lat="47.87182" lon="1.89441">
        <ele>94</ele>
        <time>2013-11-03T14:42:43Z</time>
      </trkpt>
      <trkpt lat="47.87186" lon="1.89445">
        <ele>91</ele>
        <time>2013-11-03T14:42:46Z</time>
      </trkpt>
      <trkpt lat="47.8719" lon="1.89449">
        <ele>90</ele>
        <time>2013-11-03T14:42:49Z</time>
      </trkpt>
      <trkpt lat="47.87195" lon="1.89451">
        <ele>92</ele>
        <time>2013-11-03T14:42:52Z</time>
      </trkpt>
      <trkpt lat="47.872" lon="1.89454">
        <ele>91</ele>
        <time>2013-11-03T14:42:56Z</time>
      </trkpt>
      <trkpt lat="47.87205" lon="1.89452">
        <ele>91</ele>
        <time>2013-11-03T14:43:04Z</time>
      </trkpt>
      <trkpt lat="47.87215" lon="1.89458">
        <ele>87</ele>
        <time>2013-11-03T14:43:12Z</time>
      </trkpt>
      <trkpt lat="47.8722" lon="1.89462">
        <ele>88</ele>
        <time>2013-11-03T14:43:15Z</time>
      </trkpt>
      <trkpt lat="47.87224" lon="1.89466">
        <ele>87</ele>
        <time>2013-11-03T14:43:17Z</time>
      </trkpt>
      <trkpt lat="47.87229" lon="1.89471">
        <ele>86</ele>
        <time>2013-11-03T14:43:20Z</time>
      </trkpt>
      <trkpt lat="47.87234" lon="1.89476">
        <ele>85</ele>
        <time>2013-11-03T14:43:23Z</time>
      </trkpt>
      <trkpt lat="47.87238" lon="1.89481">
        <ele>85</ele>
        <time>2013-11-03T14:43:26Z</time>
      </trkpt>
      <trkpt lat="47.87242" lon="1.89486">
        <ele>86</ele>
        <time>2013-11-03T14:43:30Z</time>
      </trkpt>
      <trkpt lat="47.87246" lon="1.89491">
        <ele>85</ele>
        <time>2013-11-03T14:43:33Z</time>
      </trkpt>
      <trkpt lat="47.87249" lon="1.89495">
        <ele>86</ele>
        <time>2013-11-03T14:43:36Z</time>
      </trkpt>
      <trkpt lat="47.87254" lon="1.895">
        <ele>88</ele>
        <time>2013-11-03T14:43:40Z</time>
      </trkpt>
      <trkpt lat="47.87259" lon="1.89504">
        <ele>86</ele>
        <time>2013-11-03T14:43:44Z</time>
      </trkpt>
      <trkpt lat="47.87264" lon="1.89507">
        <ele>87</ele>
        <time>2013-11-03T14:43:48Z</time>
      </trkpt>
      <trkpt lat="47.87268" lon="1.8952">
        <ele>89</ele>
        <time>2013-11-03T14:43:58Z</time>
      </trkpt>
      <trkpt lat="47.87265" lon="1.89526">
        <ele>89</ele>
        <time>2013-11-03T14:44:05Z</time>
      </trkpt>
      <trkpt lat="47.87269" lon="1.89522">
        <ele>87</ele>
        <time>2013-11-03T14:44:33Z</time>
      </trkpt>
      <trkpt lat="47.87296" lon="1.89581">
        <ele>93</ele>
        <time>2013-11-03T14:45:13Z</time>
      </trkpt>
      <trkpt lat="47.87298" lon="1.89589">
        <ele>93</ele>
        <time>2013-11-03T14:45:17Z</time>
      </trkpt>
      <trkpt lat="47.87295" lon="1.89596">
        <ele>93</ele>
        <time>2013-11-03T14:45:21Z</time>
      </trkpt>
      <trkpt lat="47.87291" lon="1.89601">
        <ele>94</ele>
        <time>2013-11-03T14:45:26Z</time>
      </trkpt>
      <trkpt lat="47.87287" lon="1.89604">
        <ele>95</ele>
        <time>2013-11-03T14:45:30Z</time>
      </trkpt>
      <trkpt lat="47.87249" lon="1.89602">
        <ele>98</ele>
        <time>2013-11-03T14:46:28Z</time>
      </trkpt>
      <trkpt lat="47.87244" lon="1.89605">
        <ele>98</ele>
        <time>2013-11-03T14:46:31Z</time>
      </trkpt>
      <trkpt lat="47.87239" lon="1.89604">
        <ele>100</ele>
        <time>2013-11-03T14:46:35Z</time>
      </trkpt>
      <trkpt lat="47.87233" lon="1.89604">
        <ele>100</ele>
        <time>2013-11-03T14:46:41Z</time>
      </trkpt>
      <trkpt lat="47.87229" lon="1.896">
        <ele>99</ele>
        <time>2013-11-03T14:46:45Z</time>
      </trkpt>
      <trkpt lat="47.87223" lon="1.89599">
        <ele>100</ele>
        <time>2013-11-03T14:46:48Z</time>
      </trkpt>
      <trkpt lat="47.87214" lon="1.89599">
        <ele>98</ele>
        <time>2013-11-03T14:46:53Z</time>
      </trkpt>
      <trkpt lat="47.87206" lon="1.89598">
        <ele>96</ele>
        <time>2013-11-03T14:46:58Z</time>
      </trkpt>
      <trkpt lat="47.87196" lon="1.89604">
        <ele>93</ele>
        <time>2013-11-03T14:47:05Z</time>
      </trkpt>
      <trkpt lat="47.87193" lon="1.89612">
        <ele>96</ele>
        <time>2013-11-03T14:47:09Z</time>
      </trkpt>
      <trkpt lat="47.87191" lon="1.8962">
        <ele>93</ele>
        <time>2013-11-03T14:47:14Z</time>
      </trkpt>
      <trkpt lat="47.8719" lon="1.89627">
        <ele>94</ele>
        <time>2013-11-03T14:47:16Z</time>
      </trkpt>
      <trkpt lat="47.87187" lon="1.89633">
        <ele>95</ele>
        <time>2013-11-03T14:47:19Z</time>
      </trkpt>
      <trkpt lat="47.87185" lon="1.89649">
        <ele>95</ele>
        <time>2013-11-03T14:47:25Z</time>
      </trkpt>
      <trkpt lat="47.87177" lon="1.89718">
        <ele>95</ele>
        <time>2013-11-03T14:47:58Z</time>
      </trkpt>
      <trkpt lat="47.87175" lon="1.89725">
        <ele>96</ele>
        <time>2013-11-03T14:48:02Z</time>
      </trkpt>
      <trkpt lat="47.87174" lon="1.89731">
        <ele>95</ele>
        <time>2013-11-03T14:48:07Z</time>
      </trkpt>
      <trkpt lat="47.87174" lon="1.8974">
        <ele>97</ele>
        <time>2013-11-03T14:48:11Z</time>
      </trkpt>
      <trkpt lat="47.87173" lon="1.89746">
        <ele>98</ele>
        <time>2013-11-03T14:48:16Z</time>
      </trkpt>
      <trkpt lat="47.8717" lon="1.8976">
        <ele>97</ele>
        <time>2013-11-03T14:48:21Z</time>
      </trkpt>
      <trkpt lat="47.87169" lon="1.89768">
        <ele>93</ele>
        <time>2013-11-03T14:48:24Z</time>
      </trkpt>
      <trkpt lat="47.87166" lon="1.89774">
        <ele>91</ele>
        <time>2013-11-03T14:48:28Z</time>
      </trkpt>
      <trkpt lat="47.87136" lon="1.89774">
        <ele>85</ele>
        <time>2013-11-03T14:48:55Z</time>
      </trkpt>
      <trkpt lat="47.8713" lon="1.89773">
        <ele>88</ele>
        <time>2013-11-03T14:48:57Z</time>
      </trkpt>
      <trkpt lat="47.87124" lon="1.89771">
        <ele>89</ele>
        <time>2013-11-03T14:49:00Z</time>
      </trkpt>
      <trkpt lat="47.87118" lon="1.8977">
        <ele>90</ele>
        <time>2013-11-03T14:49:04Z</time>
      </trkpt>
      <trkpt lat="47.87112" lon="1.89767">
        <ele>88</ele>
        <time>2013-11-03T14:49:07Z</time>
      </trkpt>
      <trkpt lat="47.87108" lon="1.89765">
        <ele>89</ele>
        <time>2013-11-03T14:49:09Z</time>
      </trkpt>
      <trkpt lat="47.87102" lon="1.89763">
        <ele>92</ele>
        <time>2013-11-03T14:49:12Z</time>
      </trkpt>
      <trkpt lat="47.87097" lon="1.8976">
        <ele>95</ele>
        <time>2013-11-03T14:49:15Z</time>
      </trkpt>
      <trkpt lat="47.87092" lon="1.89759">
        <ele>96</ele>
        <time>2013-11-03T14:49:18Z</time>
      </trkpt>
      <trkpt lat="47.87088" lon="1.89758">
        <ele>95</ele>
        <time>2013-11-03T14:49:21Z</time>
      </trkpt>
      <trkpt lat="47.87083" lon="1.89758">
        <ele>93</ele>
        <time>2013-11-03T14:49:24Z</time>
      </trkpt>
      <trkpt lat="47.87071" lon="1.89757">
        <ele>94</ele>
        <time>2013-11-03T14:49:33Z</time>
      </trkpt>
      <trkpt lat="47.87067" lon="1.89755">
        <ele>93</ele>
        <time>2013-11-03T14:49:36Z</time>
      </trkpt>
      <trkpt lat="47.87062" lon="1.89754">
        <ele>95</ele>
        <time>2013-11-03T14:49:40Z</time>
      </trkpt>
      <trkpt lat="47.87052" lon="1.89754">
        <ele>93</ele>
        <time>2013-11-03T14:49:46Z</time>
      </trkpt>
      <trkpt lat="47.87043" lon="1.89749">
        <ele>96</ele>
        <time>2013-11-03T14:49:53Z</time>
      </trkpt>
      <trkpt lat="47.87037" lon="1.89748">
        <ele>97</ele>
        <time>2013-11-03T14:49:55Z</time>
      </trkpt>
      <trkpt lat="47.8703" lon="1.89745">
        <ele>98</ele>
        <time>2013-11-03T14:50:00Z</time>
      </trkpt>
      <trkpt lat="47.87026" lon="1.89743">
        <ele>94</ele>
        <time>2013-11-03T14:50:02Z</time>
      </trkpt>
      <trkpt lat="47.8702" lon="1.89742">
        <ele>93</ele>
        <time>2013-11-03T14:50:06Z</time>
      </trkpt>
      <trkpt lat="47.87015" lon="1.89743">
        <ele>93</ele>
        <time>2013-11-03T14:50:09Z</time>
      </trkpt>
      <trkpt lat="47.87009" lon="1.89744">
        <ele>91</ele>
        <time>2013-11-03T14:50:14Z</time>
      </trkpt>
      <trkpt lat="47.87004" lon="1.89744">
        <ele>94</ele>
        <time>2013-11-03T14:50:16Z</time>
      </trkpt>
      <trkpt lat="47.86998" lon="1.89744">
        <ele>96</ele>
        <time>2013-11-03T14:50:19Z</time>
      </trkpt>
      <trkpt lat="47.86993" lon="1.89743">
        <ele>96</ele>
        <time>2013-11-03T14:50:22Z</time>
      </trkpt>
      <trkpt lat="47.86986" lon="1.89744">
        <ele>95</ele>
        <time>2013-11-03T14:50:25Z</time>
      </trkpt>
      <trkpt lat="47.86982" lon="1.89746">
        <ele>93</ele>
        <time>2013-11-03T14:50:28Z</time>
      </trkpt>
      <trkpt lat="47.86979" lon="1.89753">
        <ele>93</ele>
        <time>2013-11-03T14:50:33Z</time>
      </trkpt>
      <trkpt lat="47.8698" lon="1.89773">
        <ele>93</ele>
        <time>2013-11-03T14:50:44Z</time>
      </trkpt>
      <trkpt lat="47.86981" lon="1.8978">
        <ele>93</ele>
        <time>2013-11-03T14:50:46Z</time>
      </trkpt>
      <trkpt lat="47.86982" lon="1.89788">
        <ele>91</ele>
        <time>2013-11-03T14:50:50Z</time>
      </trkpt>
      <trkpt lat="47.86984" lon="1.898">
        <ele>91</ele>
        <time>2013-11-03T14:50:55Z</time>
      </trkpt>
      <trkpt lat="47.86984" lon="1.89807">
        <ele>90</ele>
        <time>2013-11-03T14:50:57Z</time>
      </trkpt>
      <trkpt lat="47.86984" lon="1.89815">
        <ele>88</ele>
        <time>2013-11-03T14:51:01Z</time>
      </trkpt>
      <trkpt lat="47.86987" lon="1.89846">
        <ele>89</ele>
        <time>2013-11-03T14:51:13Z</time>
      </trkpt>
      <trkpt lat="47.86986" lon="1.89854">
        <ele>91</ele>
        <time>2013-11-03T14:51:16Z</time>
      </trkpt>
      <trkpt lat="47.86986" lon="1.89863">
        <ele>92</ele>
        <time>2013-11-03T14:51:19Z</time>
      </trkpt>
      <trkpt lat="47.86988" lon="1.89872">
        <ele>92</ele>
        <time>2013-11-03T14:51:21Z</time>
      </trkpt>
      <trkpt lat="47.86989" lon="1.89881">
        <ele>90</ele>
        <time>2013-11-03T14:51:23Z</time>
      </trkpt>
      <trkpt lat="47.86992" lon="1.89889">
        <ele>90</ele>
        <time>2013-11-03T14:51:25Z</time>
      </trkpt>
      <trkpt lat="47.86994" lon="1.89897">
        <ele>88</ele>
        <time>2013-11-03T14:51:28Z</time>
      </trkpt>
      <trkpt lat="47.86996" lon="1.89905">
        <ele>90</ele>
        <time>2013-11-03T14:51:30Z</time>
      </trkpt>
      <trkpt lat="47.86997" lon="1.89913">
        <ele>90</ele>
        <time>2013-11-03T14:51:31Z</time>
      </trkpt>
      <trkpt lat="47.87" lon="1.8994">
        <ele>93</ele>
        <time>2013-11-03T14:51:43Z</time>
      </trkpt>
      <trkpt lat="47.87001" lon="1.89946">
        <ele>93</ele>
        <time>2013-11-03T14:51:45Z</time>
      </trkpt>
      <trkpt lat="47.87004" lon="1.89957">
        <ele>91</ele>
        <time>2013-11-03T14:51:51Z</time>
      </trkpt>
      <trkpt lat="47.87002" lon="1.89964">
        <ele>91</ele>
        <time>2013-11-03T14:51:55Z</time>
      </trkpt>
      <trkpt lat="47.87001" lon="1.89971">
        <ele>91</ele>
        <time>2013-11-03T14:51:59Z</time>
      </trkpt>
      <trkpt lat="47.87014" lon="1.90014">
        <ele>91</ele>
        <time>2013-11-03T14:52:16Z</time>
      </trkpt>
      <trkpt lat="47.87014" lon="1.9002">
        <ele>89</ele>
        <time>2013-11-03T14:52:18Z</time>
      </trkpt>
      <trkpt lat="47.87016" lon="1.90027">
        <ele>90</ele>
        <time>2013-11-03T14:52:21Z</time>
      </trkpt>
      <trkpt lat="47.87017" lon="1.90037">
        <ele>87</ele>
        <time>2013-11-03T14:52:26Z</time>
      </trkpt>
      <trkpt lat="47.87019" lon="1.90049">
        <ele>88</ele>
        <time>2013-11-03T14:52:30Z</time>
      </trkpt>
      <trkpt lat="47.87021" lon="1.90055">
        <ele>89</ele>
        <time>2013-11-03T14:52:33Z</time>
      </trkpt>
      <trkpt lat="47.87024" lon="1.90096">
        <ele>87</ele>
        <time>2013-11-03T14:52:52Z</time>
      </trkpt>
      <trkpt lat="47.87025" lon="1.90104">
        <ele>87</ele>
        <time>2013-11-03T14:52:56Z</time>
      </trkpt>
      <trkpt lat="47.87027" lon="1.90111">
        <ele>87</ele>
        <time>2013-11-03T14:52:59Z</time>
      </trkpt>
      <trkpt lat="47.8703" lon="1.90135">
        <ele>85</ele>
        <time>2013-11-03T14:53:09Z</time>
      </trkpt>
      <trkpt lat="47.87034" lon="1.90148">
        <ele>88</ele>
        <time>2013-11-03T14:53:16Z</time>
      </trkpt>
      <trkpt lat="47.87036" lon="1.90157">
        <ele>87</ele>
        <time>2013-11-03T14:53:19Z</time>
      </trkpt>
      <trkpt lat="47.87038" lon="1.90165">
        <ele>88</ele>
        <time>2013-11-03T14:53:22Z</time>
      </trkpt>
      <trkpt lat="47.8704" lon="1.90173">
        <ele>87</ele>
        <time>2013-11-03T14:53:24Z</time>
      </trkpt>
      <trkpt lat="47.87042" lon="1.90181">
        <ele>88</ele>
        <time>2013-11-03T14:53:27Z</time>
      </trkpt>
      <trkpt lat="47.87046" lon="1.9019">
        <ele>89</ele>
        <time>2013-11-03T14:53:30Z</time>
      </trkpt>
      <trkpt lat="47.87048" lon="1.90199">
        <ele>88</ele>
        <time>2013-11-03T14:53:33Z</time>
      </trkpt>
      <trkpt lat="47.87049" lon="1.90209">
        <ele>85</ele>
        <time>2013-11-03T14:53:38Z</time>
      </trkpt>
      <trkpt lat="47.87049" lon="1.90216">
        <ele>85</ele>
        <time>2013-11-03T14:53:41Z</time>
      </trkpt>
      <trkpt lat="47.87051" lon="1.90224">
        <ele>82</ele>
        <time>2013-11-03T14:53:45Z</time>
      </trkpt>
      <trkpt lat="47.87054" lon="1.90231">
        <ele>87</ele>
        <time>2013-11-03T14:53:49Z</time>
      </trkpt>
      <trkpt lat="47.87055" lon="1.90238">
        <ele>88</ele>
        <time>2013-11-03T14:53:52Z</time>
      </trkpt>
      <trkpt lat="47.87057" lon="1.90245">
        <ele>86</ele>
        <time>2013-11-03T14:53:55Z</time>
      </trkpt>
      <trkpt lat="47.87058" lon="1.90252">
        <ele>84</ele>
        <time>2013-11-03T14:53:58Z</time>
      </trkpt>
      <trkpt lat="47.87058" lon="1.90259">
        <ele>84</ele>
        <time>2013-11-03T14:54:00Z</time>
      </trkpt>
      <trkpt lat="47.87058" lon="1.90267">
        <ele>85</ele>
        <time>2013-11-03T14:54:03Z</time>
      </trkpt>
      <trkpt lat="47.87056" lon="1.90284">
        <ele>79</ele>
        <time>2013-11-03T14:54:11Z</time>
      </trkpt>
      <trkpt lat="47.87056" lon="1.90292">
        <ele>78</ele>
        <time>2013-11-03T14:54:16Z</time>
      </trkpt>
      <trkpt lat="47.87058" lon="1.90302">
        <ele>75</ele>
        <time>2013-11-03T14:54:20Z</time>
      </trkpt>
      <trkpt lat="47.87058" lon="1.9031">
        <ele>77</ele>
        <time>2013-11-03T14:54:23Z</time>
      </trkpt>
      <trkpt lat="47.87057" lon="1.90317">
        <ele>80</ele>
        <time>2013-11-03T14:54:25Z</time>
      </trkpt>
      <trkpt lat="47.87057" lon="1.90325">
        <ele>80</ele>
        <time>2013-11-03T14:54:29Z</time>
      </trkpt>
      <trkpt lat="47.87059" lon="1.90331">
        <ele>81</ele>
        <time>2013-11-03T14:54:33Z</time>
      </trkpt>
      <trkpt lat="47.8706" lon="1.9034">
        <ele>82</ele>
        <time>2013-11-03T14:54:35Z</time>
      </trkpt>
      <trkpt lat="47.87061" lon="1.90348">
        <ele>84</ele>
        <time>2013-11-03T14:54:38Z</time>
      </trkpt>
      <trkpt lat="47.87056" lon="1.90353">
        <ele>87</ele>
        <time>2013-11-03T14:54:42Z</time>
      </trkpt>
      <trkpt lat="47.87051" lon="1.9035">
        <ele>89</ele>
        <time>2013-11-03T14:54:46Z</time>
      </trkpt>
      <trkpt lat="47.87011" lon="1.90331">
        <ele>95</ele>
        <time>2013-11-03T14:55:17Z</time>
      </trkpt>
      <trkpt lat="47.87007" lon="1.90331">
        <ele>96</ele>
        <time>2013-11-03T14:55:20Z</time>
      </trkpt>
      <trkpt lat="47.87002" lon="1.90329">
        <ele>98</ele>
        <time>2013-11-03T14:55:24Z</time>
      </trkpt>
      <trkpt lat="47.86997" lon="1.90329">
        <ele>99</ele>
        <time>2013-11-03T14:55:26Z</time>
      </trkpt>
      <trkpt lat="47.86993" lon="1.90327">
        <ele>97</ele>
        <time>2013-11-03T14:55:29Z</time>
      </trkpt>
      <trkpt lat="47.86988" lon="1.90324">
        <ele>97</ele>
        <time>2013-11-03T14:55:32Z</time>
      </trkpt>
      <trkpt lat="47.86983" lon="1.90322">
        <ele>96</ele>
        <time>2013-11-03T14:55:36Z</time>
      </trkpt>
      <trkpt lat="47.86978" lon="1.90318">
        <ele>99</ele>
        <time>2013-11-03T14:55:41Z</time>
      </trkpt>
      <trkpt lat="47.86974" lon="1.90313">
        <ele>101</ele>
        <time>2013-11-03T14:55:43Z</time>
      </trkpt>
      <trkpt lat="47.8697" lon="1.9031">
        <ele>102</ele>
        <time>2013-11-03T14:55:47Z</time>
      </trkpt>
      <trkpt lat="47.8696" lon="1.90303">
        <ele>99</ele>
        <time>2013-11-03T14:55:54Z</time>
      </trkpt>
      <trkpt lat="47.86955" lon="1.90299">
        <ele>101</ele>
        <time>2013-11-03T14:55:58Z</time>
      </trkpt>
      <trkpt lat="47.8695" lon="1.90295">
        <ele>100</ele>
        <time>2013-11-03T14:56:03Z</time>
      </trkpt>
      <trkpt lat="47.8694" lon="1.9029">
        <ele>103</ele>
        <time>2013-11-03T14:56:08Z</time>
      </trkpt>
      <trkpt lat="47.86935" lon="1.90286">
        <ele>106</ele>
        <time>2013-11-03T14:56:12Z</time>
      </trkpt>
      <trkpt lat="47.86929" lon="1.9028">
        <ele>103</ele>
        <time>2013-11-03T14:56:17Z</time>
      </trkpt>
      <trkpt lat="47.86923" lon="1.90277">
        <ele>102</ele>
        <time>2013-11-03T14:56:22Z</time>
      </trkpt>
      <trkpt lat="47.86919" lon="1.90273">
        <ele>101</ele>
        <time>2013-11-03T14:56:24Z</time>
      </trkpt>
      <trkpt lat="47.86914" lon="1.90269">
        <ele>102</ele>
        <time>2013-11-03T14:56:28Z</time>
      </trkpt>
      <trkpt lat="47.8691" lon="1.90265">
        <ele>102</ele>
        <time>2013-11-03T14:56:31Z</time>
      </trkpt>
      <trkpt lat="47.86905" lon="1.90263">
        <ele>102</ele>
        <time>2013-11-03T14:56:34Z</time>
      </trkpt>
      <trkpt lat="47.869" lon="1.90259">
        <ele>101</ele>
        <time>2013-11-03T14:56:38Z</time>
      </trkpt>
      <trkpt lat="47.8689" lon="1.90253">
        <ele>98</ele>
        <time>2013-11-03T14:56:46Z</time>
      </trkpt>
      <trkpt lat="47.86883" lon="1.90248">
        <ele>98</ele>
        <time>2013-11-03T14:56:52Z</time>
      </trkpt>
      <trkpt lat="47.86876" lon="1.90244">
        <ele>98</ele>
        <time>2013-11-03T14:56:58Z</time>
      </trkpt>
      <trkpt lat="47.86865" lon="1.90239">
        <ele>96</ele>
        <time>2013-11-03T14:57:07Z</time>
      </trkpt>
      <trkpt lat="47.8686" lon="1.90236">
        <ele>96</ele>
        <time>2013-11-03T14:57:10Z</time>
      </trkpt>
      <trkpt lat="47.86855" lon="1.90232">
        <ele>98</ele>
        <time>2013-11-03T14:57:14Z</time>
      </trkpt>
      <trkpt lat="47.86849" lon="1.90227">
        <ele>99</ele>
        <time>2013-11-03T14:57:17Z</time>
      </trkpt>
      <trkpt lat="47.86845" lon="1.90222">
        <ele>98</ele>
        <time>2013-11-03T14:57:19Z</time>
      </trkpt>
      <trkpt lat="47.8684" lon="1.90219">
        <ele>100</ele>
        <time>2013-11-03T14:57:23Z</time>
      </trkpt>
      <trkpt lat="47.86831" lon="1.90214">
        <ele>97</ele>
        <time>2013-11-03T14:57:29Z</time>
      </trkpt>
      <trkpt lat="47.86826" lon="1.90211">
        <ele>97</ele>
        <time>2013-11-03T14:57:34Z</time>
      </trkpt>
      <trkpt lat="47.8682" lon="1.90208">
        <ele>98</ele>
        <time>2013-11-03T14:57:38Z</time>
      </trkpt>
      <trkpt lat="47.86813" lon="1.90201">
        <ele>95</ele>
        <time>2013-11-03T14:57:44Z</time>
      </trkpt>
      <trkpt lat="47.86808" lon="1.90198">
        <ele>92</ele>
        <time>2013-11-03T14:57:48Z</time>
      </trkpt>
      <trkpt lat="47.86804" lon="1.90194">
        <ele>93</ele>
        <time>2013-11-03T14:57:52Z</time>
      </trkpt>
      <trkpt lat="47.86799" lon="1.90191">
        <ele>95</ele>
        <time>2013-11-03T14:57:57Z</time>
      </trkpt>
      <trkpt lat="47.86783" lon="1.90179">
        <ele>96</ele>
        <time>2013-11-03T14:58:10Z</time>
      </trkpt>
      <trkpt lat="47.86778" lon="1.90175">
        <ele>97</ele>
        <time>2013-11-03T14:58:13Z</time>
      </trkpt>
      <trkpt lat="47.86774" lon="1.90171">
        <ele>98</ele>
        <time>2013-11-03T14:58:17Z</time>
      </trkpt>
      <trkpt lat="47.86767" lon="1.90167">
        <ele>98</ele>
        <time>2013-11-03T14:58:23Z</time>
      </trkpt>
      <trkpt lat="47.86762" lon="1.90163">
        <ele>100</ele>
        <time>2013-11-03T14:58:27Z</time>
      </trkpt>
      <trkpt lat="47.86757" lon="1.90159">
        <ele>101</ele>
        <time>2013-11-03T14:58:29Z</time>
      </trkpt>
      <trkpt lat="47.86761" lon="1.90155">
        <ele>98</ele>
        <time>2013-11-03T14:58:35Z</time>
      </trkpt>
      <trkpt lat="47.86765" lon="1.90159">
        <ele>95</ele>
        <time>2013-11-03T14:58:39Z</time>
      </trkpt>
      <trkpt lat="47.86819" lon="1.90197">
        <ele>79</ele>
        <time>2013-11-03T15:02:48Z</time>
      </trkpt>
      <trkpt lat="47.86814" lon="1.90196">
        <ele>84</ele>
        <time>2013-11-03T15:02:52Z</time>
      </trkpt>
      <trkpt lat="47.86811" lon="1.90191">
        <ele>84</ele>
        <time>2013-11-03T15:02:56Z</time>
      </trkpt>
      <trkpt lat="47.86806" lon="1.90188">
        <ele>85</ele>
        <time>2013-11-03T15:03:00Z</time>
      </trkpt>
      <trkpt lat="47.86802" lon="1.90184">
        <ele>86</ele>
        <time>2013-11-03T15:03:03Z</time>
      </trkpt>
      <trkpt lat="47.86797" lon="1.90185">
        <ele>86</ele>
        <time>2013-11-03T15:03:07Z</time>
      </trkpt>
      <trkpt lat="47.86792" lon="1.90181">
        <ele>87</ele>
        <time>2013-11-03T15:03:11Z</time>
      </trkpt>
      <trkpt lat="47.86789" lon="1.90176">
        <ele>87</ele>
        <time>2013-11-03T15:03:15Z</time>
      </trkpt>
      <trkpt lat="47.86779" lon="1.90163">
        <ele>90</ele>
        <time>2013-11-03T15:03:27Z</time>
      </trkpt>
      <trkpt lat="47.86774" lon="1.90159">
        <ele>91</ele>
        <time>2013-11-03T15:03:32Z</time>
      </trkpt>
      <trkpt lat="47.86769" lon="1.90158">
        <ele>91</ele>
        <time>2013-11-03T15:03:36Z</time>
      </trkpt>
      <trkpt lat="47.86764" lon="1.90158">
        <ele>91</ele>
        <time>2013-11-03T15:03:40Z</time>
      </trkpt>
      <trkpt lat="47.86758" lon="1.90158">
        <ele>89</ele>
        <time>2013-11-03T15:03:44Z</time>
      </trkpt>
      <trkpt lat="47.86754" lon="1.90158">
        <ele>90</ele>
        <time>2013-11-03T15:03:48Z</time>
      </trkpt>
      <trkpt lat="47.86749" lon="1.90155">
        <ele>91</ele>
        <time>2013-11-03T15:03:52Z</time>
      </trkpt>
      <trkpt lat="47.86744" lon="1.90153">
        <ele>93</ele>
        <time>2013-11-03T15:03:56Z</time>
      </trkpt>
      <trkpt lat="47.86739" lon="1.90149">
        <ele>95</ele>
        <time>2013-11-03T15:04:00Z</time>
      </trkpt>
      <trkpt lat="47.86729" lon="1.90149">
        <ele>94</ele>
        <time>2013-11-03T15:04:06Z</time>
      </trkpt>
      <trkpt lat="47.86723" lon="1.9015">
        <ele>93</ele>
        <time>2013-11-03T15:04:10Z</time>
      </trkpt>
      <trkpt lat="47.86718" lon="1.9015">
        <ele>93</ele>
        <time>2013-11-03T15:04:14Z</time>
      </trkpt>
      <trkpt lat="47.86713" lon="1.90146">
        <ele>94</ele>
        <time>2013-11-03T15:04:19Z</time>
      </trkpt>
      <trkpt lat="47.86709" lon="1.90147">
        <ele>92</ele>
        <time>2013-11-03T15:04:23Z</time>
      </trkpt>
      <trkpt lat="47.86704" lon="1.90145">
        <ele>91</ele>
        <time>2013-11-03T15:04:28Z</time>
      </trkpt>
      <trkpt lat="47.86699" lon="1.90145">
        <ele>91</ele>
        <time>2013-11-03T15:04:32Z</time>
      </trkpt>
      <trkpt lat="47.86694" lon="1.90148">
        <ele>91</ele>
        <time>2013-11-03T15:04:35Z</time>
      </trkpt>
      <trkpt lat="47.86689" lon="1.90151">
        <ele>90</ele>
        <time>2013-11-03T15:04:38Z</time>
      </trkpt>
      <trkpt lat="47.86674" lon="1.90159">
        <ele>87</ele>
        <time>2013-11-03T15:04:47Z</time>
      </trkpt>
      <trkpt lat="47.86669" lon="1.90161">
        <ele>92</ele>
        <time>2013-11-03T15:04:50Z</time>
      </trkpt>
      <trkpt lat="47.86664" lon="1.9016">
        <ele>92</ele>
        <time>2013-11-03T15:04:53Z</time>
      </trkpt>
      <trkpt lat="47.86661" lon="1.90155">
        <ele>93</ele>
        <time>2013-11-03T15:04:58Z</time>
      </trkpt>
      <trkpt lat="47.86656" lon="1.90154">
        <ele>93</ele>
        <time>2013-11-03T15:05:01Z</time>
      </trkpt>
      <trkpt lat="47.8665" lon="1.90154">
        <ele>93</ele>
        <time>2013-11-03T15:05:04Z</time>
      </trkpt>
      <trkpt lat="47.86644" lon="1.90156">
        <ele>91</ele>
        <time>2013-11-03T15:05:07Z</time>
      </trkpt>
      <trkpt lat="47.86639" lon="1.90155">
        <ele>93</ele>
        <time>2013-11-03T15:05:11Z</time>
      </trkpt>
      <trkpt lat="47.86634" lon="1.90155">
        <ele>93</ele>
        <time>2013-11-03T15:05:16Z</time>
      </trkpt>
      <trkpt lat="47.8662" lon="1.90152">
        <ele>93</ele>
        <time>2013-11-03T15:05:28Z</time>
      </trkpt>
      <trkpt lat="47.86615" lon="1.90148">
        <ele>94</ele>
        <time>2013-11-03T15:05:32Z</time>
      </trkpt>
      <trkpt lat="47.8661" lon="1.90145">
        <ele>96</ele>
        <time>2013-11-03T15:05:35Z</time>
      </trkpt>
      <trkpt lat="47.86606" lon="1.90144">
        <ele>96</ele>
        <time>2013-11-03T15:05:37Z</time>
      </trkpt>
      <trkpt lat="47.86601" lon="1.90146">
        <ele>95</ele>
        <time>2013-11-03T15:05:39Z</time>
      </trkpt>
      <trkpt lat="47.86595" lon="1.90147">
        <ele>94</ele>
        <time>2013-11-03T15:05:42Z</time>
      </trkpt>
      <trkpt lat="47.86591" lon="1.90142">
        <ele>95</ele>
        <time>2013-11-03T15:05:45Z</time>
      </trkpt>
      <trkpt lat="47.86587" lon="1.90134">
        <ele>100</ele>
        <time>2013-11-03T15:05:48Z</time>
      </trkpt>
      <trkpt lat="47.86583" lon="1.90131">
        <ele>100</ele>
        <time>2013-11-03T15:05:51Z</time>
      </trkpt>
      <trkpt lat="47.86577" lon="1.90133">
        <ele>100</ele>
        <time>2013-11-03T15:05:54Z</time>
      </trkpt>
      <trkpt lat="47.86573" lon="1.90135">
        <ele>96</ele>
        <time>2013-11-03T15:05:58Z</time>
      </trkpt>
      <trkpt lat="47.86567" lon="1.90136">
        <ele>99</ele>
        <time>2013-11-03T15:06:03Z</time>
      </trkpt>
      <trkpt lat="47.86563" lon="1.90133">
        <ele>100</ele>
        <time>2013-11-03T15:06:06Z</time>
      </trkpt>
      <trkpt lat="47.86554" lon="1.90133">
        <ele>98</ele>
        <time>2013-11-03T15:06:13Z</time>
      </trkpt>
      <trkpt lat="47.86549" lon="1.90133">
        <ele>96</ele>
        <time>2013-11-03T15:06:17Z</time>
      </trkpt>
      <trkpt lat="47.86543" lon="1.90131">
        <ele>95</ele>
        <time>2013-11-03T15:06:21Z</time>
      </trkpt>
      <trkpt lat="47.8654" lon="1.90126">
        <ele>96</ele>
        <time>2013-11-03T15:06:25Z</time>
      </trkpt>
      <trkpt lat="47.86534" lon="1.90123">
        <ele>95</ele>
        <time>2013-11-03T15:06:30Z</time>
      </trkpt>
      <trkpt lat="47.8653" lon="1.90118">
        <ele>96</ele>
        <time>2013-11-03T15:06:33Z</time>
      </trkpt>
      <trkpt lat="47.86525" lon="1.90112">
        <ele>97</ele>
        <time>2013-11-03T15:06:36Z</time>
      </trkpt>
      <trkpt lat="47.86521" lon="1.9011">
        <ele>97</ele>
        <time>2013-11-03T15:06:39Z</time>
      </trkpt>
      <trkpt lat="47.86517" lon="1.90107">
        <ele>98</ele>
        <time>2013-11-03T15:06:42Z</time>
      </trkpt>
      <trkpt lat="47.86515" lon="1.90101">
        <ele>99</ele>
        <time>2013-11-03T15:06:45Z</time>
      </trkpt>
      <trkpt lat="47.86518" lon="1.9008">
        <ele>97</ele>
        <time>2013-11-03T15:06:57Z</time>
      </trkpt>
      <trkpt lat="47.86523" lon="1.90077">
        <ele>94</ele>
        <time>2013-11-03T15:07:02Z</time>
      </trkpt>
      <trkpt lat="47.86528" lon="1.90075">
        <ele>100</ele>
        <time>2013-11-03T15:07:05Z</time>
      </trkpt>
      <trkpt lat="47.8653" lon="1.90068">
        <ele>95</ele>
        <time>2013-11-03T15:07:08Z</time>
      </trkpt>
      <trkpt lat="47.86533" lon="1.90061">
        <ele>91</ele>
        <time>2013-11-03T15:07:12Z</time>
      </trkpt>
      <trkpt lat="47.86534" lon="1.90053">
        <ele>89</ele>
        <time>2013-11-03T15:07:15Z</time>
      </trkpt>
      <trkpt lat="47.86533" lon="1.90043">
        <ele>88</ele>
        <time>2013-11-03T15:07:18Z</time>
      </trkpt>
      <trkpt lat="47.86533" lon="1.90036">
        <ele>87</ele>
        <time>2013-11-03T15:07:21Z</time>
      </trkpt>
      <trkpt lat="47.86538" lon="1.90032">
        <ele>86</ele>
        <time>2013-11-03T15:07:25Z</time>
      </trkpt>
      <trkpt lat="47.86541" lon="1.90026">
        <ele>86</ele>
        <time>2013-11-03T15:07:28Z</time>
      </trkpt>
      <trkpt lat="47.86545" lon="1.90022">
        <ele>88</ele>
        <time>2013-11-03T15:07:31Z</time>
      </trkpt>
      <trkpt lat="47.86551" lon="1.90011">
        <ele>93</ele>
        <time>2013-11-03T15:07:37Z</time>
      </trkpt>
      <trkpt lat="47.86552" lon="1.90004">
        <ele>96</ele>
        <time>2013-11-03T15:07:41Z</time>
      </trkpt>
      <trkpt lat="47.86555" lon="1.89996">
        <ele>97</ele>
        <time>2013-11-03T15:07:45Z</time>
      </trkpt>
      <trkpt lat="47.86556" lon="1.89989">
        <ele>95</ele>
        <time>2013-11-03T15:07:48Z</time>
      </trkpt>
      <trkpt lat="47.8656" lon="1.89985">
        <ele>97</ele>
        <time>2013-11-03T15:07:52Z</time>
      </trkpt>
      <trkpt lat="47.86561" lon="1.89976">
        <ele>94</ele>
        <time>2013-11-03T15:07:56Z</time>
      </trkpt>
      <trkpt lat="47.86562" lon="1.89969">
        <ele>95</ele>
        <time>2013-11-03T15:07:59Z</time>
      </trkpt>
      <trkpt lat="47.86565" lon="1.89961">
        <ele>94</ele>
        <time>2013-11-03T15:08:03Z</time>
      </trkpt>
      <trkpt lat="47.86567" lon="1.89952">
        <ele>93</ele>
        <time>2013-11-03T15:08:06Z</time>
      </trkpt>
      <trkpt lat="47.86569" lon="1.89943">
        <ele>94</ele>
        <time>2013-11-03T15:08:09Z</time>
      </trkpt>
      <trkpt lat="47.86571" lon="1.89938">
        <ele>96</ele>
        <time>2013-11-03T15:08:12Z</time>
      </trkpt>
      <trkpt lat="47.8658" lon="1.89939">
        <ele>92</ele>
        <time>2013-11-03T15:08:18Z</time>
      </trkpt>
      <trkpt lat="47.86585" lon="1.89934">
        <ele>94</ele>
        <time>2013-11-03T15:08:22Z</time>
      </trkpt>
      <trkpt lat="47.86588" lon="1.89928">
        <ele>99</ele>
        <time>2013-11-03T15:08:25Z</time>
      </trkpt>
      <trkpt lat="47.86588" lon="1.89921">
        <ele>98</ele>
        <time>2013-11-03T15:08:28Z</time>
      </trkpt>
      <trkpt lat="47.86592" lon="1.89926">
        <ele>91</ele>
        <time>2013-11-03T15:08:36Z</time>
      </trkpt>
      <trkpt lat="47.86596" lon="1.8993">
        <ele>92</ele>
        <time>2013-11-03T15:08:39Z</time>
      </trkpt>
      <trkpt lat="47.866" lon="1.89935">
        <ele>93</ele>
        <time>2013-11-03T15:08:42Z</time>
      </trkpt>
      <trkpt lat="47.86604" lon="1.89941">
        <ele>96</ele>
        <time>2013-11-03T15:08:46Z</time>
      </trkpt>
      <trkpt lat="47.86609" lon="1.89943">
        <ele>96</ele>
        <time>2013-11-03T15:08:49Z</time>
      </trkpt>
      <trkpt lat="47.86628" lon="1.89954">
        <ele>91</ele>
        <time>2013-11-03T15:09:03Z</time>
      </trkpt>
      <trkpt lat="47.86631" lon="1.89959">
        <ele>95</ele>
        <time>2013-11-03T15:09:06Z</time>
      </trkpt>
      <trkpt lat="47.86632" lon="1.89966">
        <ele>95</ele>
        <time>2013-11-03T15:09:09Z</time>
      </trkpt>
      <trkpt lat="47.86634" lon="1.89974">
        <ele>98</ele>
        <time>2013-11-03T15:09:12Z</time>
      </trkpt>
      <trkpt lat="47.86638" lon="1.8998">
        <ele>99</ele>
        <time>2013-11-03T15:09:15Z</time>
      </trkpt>
      <trkpt lat="47.86644" lon="1.89978">
        <ele>98</ele>
        <time>2013-11-03T15:09:17Z</time>
      </trkpt>
      <trkpt lat="47.86649" lon="1.89977">
        <ele>98</ele>
        <time>2013-11-03T15:09:19Z</time>
      </trkpt>
      <trkpt lat="47.86654" lon="1.89976">
        <ele>99</ele>
        <time>2013-11-03T15:09:22Z</time>
      </trkpt>
      <trkpt lat="47.86659" lon="1.89977">
        <ele>98</ele>
        <time>2013-11-03T15:09:26Z</time>
      </trkpt>
      <trkpt lat="47.86663" lon="1.89974">
        <ele>96</ele>
        <time>2013-11-03T15:09:30Z</time>
      </trkpt>
      <trkpt lat="47.86667" lon="1.89969">
        <ele>93</ele>
        <time>2013-11-03T15:09:34Z</time>
      </trkpt>
      <trkpt lat="47.86676" lon="1.89952">
        <ele>94</ele>
        <time>2013-11-03T15:09:43Z</time>
      </trkpt>
      <trkpt lat="47.86676" lon="1.89945">
        <ele>95</ele>
        <time>2013-11-03T15:09:46Z</time>
      </trkpt>
      <trkpt lat="47.86678" lon="1.89938">
        <ele>95</ele>
        <time>2013-11-03T15:09:49Z</time>
      </trkpt>
      <trkpt lat="47.8668" lon="1.89931">
        <ele>96</ele>
        <time>2013-11-03T15:09:53Z</time>
      </trkpt>
      <trkpt lat="47.86678" lon="1.89924">
        <ele>98</ele>
        <time>2013-11-03T15:09:56Z</time>
      </trkpt>
      <trkpt lat="47.86678" lon="1.89917">
        <ele>97</ele>
        <time>2013-11-03T15:09:59Z</time>
      </trkpt>
      <trkpt lat="47.86678" lon="1.89909">
        <ele>99</ele>
        <time>2013-11-03T15:10:02Z</time>
      </trkpt>
      <trkpt lat="47.86678" lon="1.89901">
        <ele>98</ele>
        <time>2013-11-03T15:10:05Z</time>
      </trkpt>
      <trkpt lat="47.86678" lon="1.89894">
        <ele>100</ele>
        <time>2013-11-03T15:10:08Z</time>
      </trkpt>
      <trkpt lat="47.86678" lon="1.89887">
        <ele>100</ele>
        <time>2013-11-03T15:10:11Z</time>
      </trkpt>
      <trkpt lat="47.86678" lon="1.89878">
        <ele>99</ele>
        <time>2013-11-03T15:10:15Z</time>
      </trkpt>
      <trkpt lat="47.86684" lon="1.89866">
        <ele>98</ele>
        <time>2013-11-03T15:10:26Z</time>
      </trkpt>
      <trkpt lat="47.86684" lon="1.89858">
        <ele>102</ele>
        <time>2013-11-03T15:10:29Z</time>
      </trkpt>
      <trkpt lat="47.86682" lon="1.89852">
        <ele>102</ele>
        <time>2013-11-03T15:10:31Z</time>
      </trkpt>
      <trkpt lat="47.86681" lon="1.89842">
        <ele>101</ele>
        <time>2013-11-03T15:10:34Z</time>
      </trkpt>
      <trkpt lat="47.86681" lon="1.89834">
        <ele>101</ele>
        <time>2013-11-03T15:10:37Z</time>
      </trkpt>
      <trkpt lat="47.86683" lon="1.89826">
        <ele>100</ele>
        <time>2013-11-03T15:10:40Z</time>
      </trkpt>
      <trkpt lat="47.86682" lon="1.89817">
        <ele>100</ele>
        <time>2013-11-03T15:10:44Z</time>
      </trkpt>
      <trkpt lat="47.86681" lon="1.89809">
        <ele>98</ele>
        <time>2013-11-03T15:10:48Z</time>
      </trkpt>
      <trkpt lat="47.86684" lon="1.89804">
        <ele>95</ele>
        <time>2013-11-03T15:10:55Z</time>
      </trkpt>
      <trkpt lat="47.8668" lon="1.89791">
        <ele>97</ele>
        <time>2013-11-03T15:11:16Z</time>
      </trkpt>
      <trkpt lat="47.86678" lon="1.89785">
        <ele>96</ele>
        <time>2013-11-03T15:11:19Z</time>
      </trkpt>
      <trkpt lat="47.86676" lon="1.89776">
        <ele>96</ele>
        <time>2013-11-03T15:11:22Z</time>
      </trkpt>
      <trkpt lat="47.86674" lon="1.89768">
        <ele>98</ele>
        <time>2013-11-03T15:11:25Z</time>
      </trkpt>
      <trkpt lat="47.86675" lon="1.8976">
        <ele>99</ele>
        <time>2013-11-03T15:11:28Z</time>
      </trkpt>
      <trkpt lat="47.86676" lon="1.89752">
        <ele>100</ele>
        <time>2013-11-03T15:11:30Z</time>
      </trkpt>
      <trkpt lat="47.86677" lon="1.89744">
        <ele>101</ele>
        <time>2013-11-03T15:11:33Z</time>
      </trkpt>
      <trkpt lat="47.86681" lon="1.89739">
        <ele>99</ele>
        <time>2013-11-03T15:11:37Z</time>
      </trkpt>
      <trkpt lat="47.86683" lon="1.89732">
        <ele>101</ele>
        <time>2013-11-03T15:11:41Z</time>
      </trkpt>
      <trkpt lat="47.86686" lon="1.89726">
        <ele>99</ele>
        <time>2013-11-03T15:11:45Z</time>
      </trkpt>
      <trkpt lat="47.86689" lon="1.89712">
        <ele>100</ele>
        <time>2013-11-03T15:11:53Z</time>
      </trkpt>
      <trkpt lat="47.8669" lon="1.89704">
        <ele>101</ele>
        <time>2013-11-03T15:11:57Z</time>
      </trkpt>
      <trkpt lat="47.86692" lon="1.89697">
        <ele>101</ele>
        <time>2013-11-03T15:12:00Z</time>
      </trkpt>
      <trkpt lat="47.8669" lon="1.89689">
        <ele>101</ele>
        <time>2013-11-03T15:12:03Z</time>
      </trkpt>
      <trkpt lat="47.86688" lon="1.89681">
        <ele>101</ele>
        <time>2013-11-03T15:12:06Z</time>
      </trkpt>
      <trkpt lat="47.86685" lon="1.89675">
        <ele>102</ele>
        <time>2013-11-03T15:12:09Z</time>
      </trkpt>
      <trkpt lat="47.86681" lon="1.89672">
        <ele>100</ele>
        <time>2013-11-03T15:12:12Z</time>
      </trkpt>
      <trkpt lat="47.86676" lon="1.89673">
        <ele>101</ele>
        <time>2013-11-03T15:12:16Z</time>
      </trkpt>
      <trkpt lat="47.86671" lon="1.89676">
        <ele>95</ele>
        <time>2013-11-03T15:12:22Z</time>
      </trkpt>
      <trkpt lat="47.86651" lon="1.8967">
        <ele>95</ele>
        <time>2013-11-03T15:12:41Z</time>
      </trkpt>
      <trkpt lat="47.86646" lon="1.89667">
        <ele>94</ele>
        <time>2013-11-03T15:12:45Z</time>
      </trkpt>
      <trkpt lat="47.86641" lon="1.89664">
        <ele>93</ele>
        <time>2013-11-03T15:12:49Z</time>
      </trkpt>
      <trkpt lat="47.86636" lon="1.89661">
        <ele>93</ele>
        <time>2013-11-03T15:12:52Z</time>
      </trkpt>
      <trkpt lat="47.86632" lon="1.89657">
        <ele>93</ele>
        <time>2013-11-03T15:12:55Z</time>
      </trkpt>
      <trkpt lat="47.86628" lon="1.89653">
        <ele>93</ele>
        <time>2013-11-03T15:12:59Z</time>
      </trkpt>
      <trkpt lat="47.86622" lon="1.89652">
        <ele>92</ele>
        <time>2013-11-03T15:13:03Z</time>
      </trkpt>
      <trkpt lat="47.86617" lon="1.89649">
        <ele>93</ele>
        <time>2013-11-03T15:13:07Z</time>
      </trkpt>
      <trkpt lat="47.86613" lon="1.89645">
        <ele>94</ele>
        <time>2013-11-03T15:13:11Z</time>
      </trkpt>
      <trkpt lat="47.86603" lon="1.89638">
        <ele>96</ele>
        <time>2013-11-03T15:13:19Z</time>
      </trkpt>
      <trkpt lat="47.86598" lon="1.89635">
        <ele>95</ele>
        <time>2013-11-03T15:13:23Z</time>
      </trkpt>
      <trkpt lat="47.86595" lon="1.89629">
        <ele>95</ele>
        <time>2013-11-03T15:13:27Z</time>
      </trkpt>
      <trkpt lat="47.86594" lon="1.89626">
        <ele>95</ele>
        <time>2013-11-03T15:13:50Z</time>
      </trkpt>
      <trkpt lat="47.86548" lon="1.89607">
        <ele>96</ele>
        <time>2013-11-03T15:14:48Z</time>
      </trkpt>
      <trkpt lat="47.86543" lon="1.89603">
        <ele>100</ele>
        <time>2013-11-03T15:14:51Z</time>
      </trkpt>
      <trkpt lat="47.86539" lon="1.89601">
        <ele>96</ele>
        <time>2013-11-03T15:14:55Z</time>
      </trkpt>
      <trkpt lat="47.86533" lon="1.89598">
        <ele>95</ele>
        <time>2013-11-03T15:15:00Z</time>
      </trkpt>
      <trkpt lat="47.86529" lon="1.89594">
        <ele>93</ele>
        <time>2013-11-03T15:15:03Z</time>
      </trkpt>
      <trkpt lat="47.86524" lon="1.89594">
        <ele>96</ele>
        <time>2013-11-03T15:15:06Z</time>
      </trkpt>
      <trkpt lat="47.86519" lon="1.89594">
        <ele>95</ele>
        <time>2013-11-03T15:15:09Z</time>
      </trkpt>
      <trkpt lat="47.86513" lon="1.89594">
        <ele>97</ele>
        <time>2013-11-03T15:15:12Z</time>
      </trkpt>
      <trkpt lat="47.86507" lon="1.89591">
        <ele>97</ele>
        <time>2013-11-03T15:15:15Z</time>
      </trkpt>
      <trkpt lat="47.86506" lon="1.89533">
        <ele>93</ele>
        <time>2013-11-03T15:15:47Z</time>
      </trkpt>
      <trkpt lat="47.86507" lon="1.89526">
        <ele>95</ele>
        <time>2013-11-03T15:15:49Z</time>
      </trkpt>
      <trkpt lat="47.86509" lon="1.8952">
        <ele>95</ele>
        <time>2013-11-03T15:15:52Z</time>
      </trkpt>
      <trkpt lat="47.86512" lon="1.89515">
        <ele>99</ele>
        <time>2013-11-03T15:15:56Z</time>
      </trkpt>
      <trkpt lat="47.86514" lon="1.89507">
        <ele>95</ele>
        <time>2013-11-03T15:16:00Z</time>
      </trkpt>
      <trkpt lat="47.86517" lon="1.89498">
        <ele>93</ele>
        <time>2013-11-03T15:16:03Z</time>
      </trkpt>
      <trkpt lat="47.86518" lon="1.89491">
        <ele>91</ele>
        <time>2013-11-03T15:16:06Z</time>
      </trkpt>
      <trkpt lat="47.8652" lon="1.89485">
        <ele>88</ele>
        <time>2013-11-03T15:16:09Z</time>
      </trkpt>
      <trkpt lat="47.86523" lon="1.89479">
        <ele>90</ele>
        <time>2013-11-03T15:16:12Z</time>
      </trkpt>
      <trkpt lat="47.86526" lon="1.89471">
        <ele>92</ele>
        <time>2013-11-03T15:16:16Z</time>
      </trkpt>
      <trkpt lat="47.86528" lon="1.89456">
        <ele>94</ele>
        <time>2013-11-03T15:16:22Z</time>
      </trkpt>
      <trkpt lat="47.86528" lon="1.89448">
        <ele>94</ele>
        <time>2013-11-03T15:16:25Z</time>
      </trkpt>
      <trkpt lat="47.86528" lon="1.89441">
        <ele>96</ele>
        <time>2013-11-03T15:16:28Z</time>
      </trkpt>
      <trkpt lat="47.86529" lon="1.89434">
        <ele>98</ele>
        <time>2013-11-03T15:16:31Z</time>
      </trkpt>
      <trkpt lat="47.86529" lon="1.89426">
        <ele>98</ele>
        <time>2013-11-03T15:16:34Z</time>
      </trkpt>
      <trkpt lat="47.8653" lon="1.89418">
        <ele>98</ele>
        <time>2013-11-03T15:16:38Z</time>
      </trkpt>
      <trkpt lat="47.86533" lon="1.89412">
        <ele>100</ele>
        <time>2013-11-03T15:16:42Z</time>
      </trkpt>
      <trkpt lat="47.86536" lon="1.89405">
        <ele>99</ele>
        <time>2013-11-03T15:16:46Z</time>
      </trkpt>
      <trkpt lat="47.86538" lon="1.89397">
        <ele>98</ele>
        <time>2013-11-03T15:16:50Z</time>
      </trkpt>
      <trkpt lat="47.86541" lon="1.8939">
        <ele>99</ele>
        <time>2013-11-03T15:16:54Z</time>
      </trkpt>
      <trkpt lat="47.86528" lon="1.89368">
        <ele>100</ele>
        <time>2013-11-03T15:17:09Z</time>
      </trkpt>
      <trkpt lat="47.86527" lon="1.89359">
        <ele>101</ele>
        <time>2013-11-03T15:17:12Z</time>
      </trkpt>
      <trkpt lat="47.86526" lon="1.89351">
        <ele>101</ele>
        <time>2013-11-03T15:17:15Z</time>
      </trkpt>
      <trkpt lat="47.86525" lon="1.89343">
        <ele>101</ele>
        <time>2013-11-03T15:17:18Z</time>
      </trkpt>
      <trkpt lat="47.86525" lon="1.89336">
        <ele>101</ele>
        <time>2013-11-03T15:17:21Z</time>
      </trkpt>
      <trkpt lat="47.86527" lon="1.89328">
        <ele>100</ele>
        <time>2013-11-03T15:17:25Z</time>
      </trkpt>
      <trkpt lat="47.86531" lon="1.89325">
        <ele>99</ele>
        <time>2013-11-03T15:17:28Z</time>
      </trkpt>
      <trkpt lat="47.86536" lon="1.89324">
        <ele>99</ele>
        <time>2013-11-03T15:17:31Z</time>
      </trkpt>
      <trkpt lat="47.86541" lon="1.89324">
        <ele>99</ele>
        <time>2013-11-03T15:17:35Z</time>
      </trkpt>
      <trkpt lat="47.86545" lon="1.89321">
        <ele>99</ele>
        <time>2013-11-03T15:17:39Z</time>
      </trkpt>
      <trkpt lat="47.86546" lon="1.89296">
        <ele>99</ele>
        <time>2013-11-03T15:17:48Z</time>
      </trkpt>
      <trkpt lat="47.86549" lon="1.89291">
        <ele>100</ele>
        <time>2013-11-03T15:17:51Z</time>
      </trkpt>
      <trkpt lat="47.86551" lon="1.89283">
        <ele>100</ele>
        <time>2013-11-03T15:17:54Z</time>
      </trkpt>
      <trkpt lat="47.86551" lon="1.89274">
        <ele>101</ele>
        <time>2013-11-03T15:17:57Z</time>
      </trkpt>
      <trkpt lat="47.86552" lon="1.89267">
        <ele>100</ele>
        <time>2013-11-03T15:18:00Z</time>
      </trkpt>
      <trkpt lat="47.86554" lon="1.89261">
        <ele>99</ele>
        <time>2013-11-03T15:18:05Z</time>
      </trkpt>
      <trkpt lat="47.86556" lon="1.89255">
        <ele>101</ele>
        <time>2013-11-03T15:18:08Z</time>
      </trkpt>
      <trkpt lat="47.86559" lon="1.89248">
        <ele>100</ele>
        <time>2013-11-03T15:18:12Z</time>
      </trkpt>
      <trkpt lat="47.86559" lon="1.89241">
        <ele>102</ele>
        <time>2013-11-03T15:18:15Z</time>
      </trkpt>
      <trkpt lat="47.86564" lon="1.89237">
        <ele>100</ele>
        <time>2013-11-03T15:18:18Z</time>
      </trkpt>
      <trkpt lat="47.86588" lon="1.89256">
        <ele>90</ele>
        <time>2013-11-03T15:18:39Z</time>
      </trkpt>
      <trkpt lat="47.86593" lon="1.8926">
        <ele>90</ele>
        <time>2013-11-03T15:18:43Z</time>
      </trkpt>
      <trkpt lat="47.86597" lon="1.89263">
        <ele>90</ele>
        <time>2013-11-03T15:18:46Z</time>
      </trkpt>
      <trkpt lat="47.86602" lon="1.89266">
        <ele>92</ele>
        <time>2013-11-03T15:18:50Z</time>
      </trkpt>
      <trkpt lat="47.86607" lon="1.89269">
        <ele>92</ele>
        <time>2013-11-03T15:18:54Z</time>
      </trkpt>
      <trkpt lat="47.86612" lon="1.8927">
        <ele>92</ele>
        <time>2013-11-03T15:18:57Z</time>
      </trkpt>
      <trkpt lat="47.86617" lon="1.8927">
        <ele>90</ele>
        <time>2013-11-03T15:19:00Z</time>
      </trkpt>
      <trkpt lat="47.86622" lon="1.8927">
        <ele>91</ele>
        <time>2013-11-03T15:19:03Z</time>
      </trkpt>
      <trkpt lat="47.86626" lon="1.89268">
        <ele>94</ele>
        <time>2013-11-03T15:19:07Z</time>
      </trkpt>
      <trkpt lat="47.86631" lon="1.89268">
        <ele>96</ele>
        <time>2013-11-03T15:19:11Z</time>
      </trkpt>
      <trkpt lat="47.86643" lon="1.89266">
        <ele>95</ele>
        <time>2013-11-03T15:19:18Z</time>
      </trkpt>
      <trkpt lat="47.86648" lon="1.89262">
        <ele>93</ele>
        <time>2013-11-03T15:19:22Z</time>
      </trkpt>
      <trkpt lat="47.86651" lon="1.89257">
        <ele>93</ele>
        <time>2013-11-03T15:19:25Z</time>
      </trkpt>
      <trkpt lat="47.86653" lon="1.8925">
        <ele>92</ele>
        <time>2013-11-03T15:19:28Z</time>
      </trkpt>
      <trkpt lat="47.86656" lon="1.89245">
        <ele>91</ele>
        <time>2013-11-03T15:19:33Z</time>
      </trkpt>
      <trkpt lat="47.8666" lon="1.89246">
        <ele>92</ele>
        <time>2013-11-03T15:19:38Z</time>
      </trkpt>
      <trkpt lat="47.86665" lon="1.89248">
        <ele>94</ele>
        <time>2013-11-03T15:19:42Z</time>
      </trkpt>
      <trkpt lat="47.8667" lon="1.89252">
        <ele>93</ele>
        <time>2013-11-03T15:19:46Z</time>
      </trkpt>
      <trkpt lat="47.86675" lon="1.89256">
        <ele>91</ele>
        <time>2013-11-03T15:19:49Z</time>
      </trkpt>
      <trkpt lat="47.8668" lon="1.89258">
        <ele>93</ele>
        <time>2013-11-03T15:19:52Z</time>
      </trkpt>
      <trkpt lat="47.867" lon="1.89252">
        <ele>91</ele>
        <time>2013-11-03T15:20:07Z</time>
      </trkpt>
      <trkpt lat="47.86706" lon="1.89252">
        <ele>93</ele>
        <time>2013-11-03T15:20:11Z</time>
      </trkpt>
      <trkpt lat="47.8671" lon="1.8925">
        <ele>93</ele>
        <time>2013-11-03T15:20:14Z</time>
      </trkpt>
      <trkpt lat="47.8671" lon="1.89242">
        <ele>92</ele>
        <time>2013-11-03T15:20:17Z</time>
      </trkpt>
      <trkpt lat="47.86711" lon="1.89234">
        <ele>94</ele>
        <time>2013-11-03T15:20:20Z</time>
      </trkpt>
      <trkpt lat="47.86712" lon="1.89227">
        <ele>94</ele>
        <time>2013-11-03T15:20:23Z</time>
      </trkpt>
      <trkpt lat="47.86712" lon="1.89219">
        <ele>98</ele>
        <time>2013-11-03T15:20:26Z</time>
      </trkpt>
      <trkpt lat="47.86711" lon="1.89212">
        <ele>99</ele>
        <time>2013-11-03T15:20:28Z</time>
      </trkpt>
      <trkpt lat="47.8671" lon="1.89204">
        <ele>99</ele>
        <time>2013-11-03T15:20:31Z</time>
      </trkpt>
      <trkpt lat="47.86711" lon="1.89195">
        <ele>96</ele>
        <time>2013-11-03T15:20:34Z</time>
      </trkpt>
      <trkpt lat="47.86711" lon="1.89186">
        <ele>97</ele>
        <time>2013-11-03T15:20:37Z</time>
      </trkpt>
      <trkpt lat="47.86713" lon="1.89179">
        <ele>99</ele>
        <time>2013-11-03T15:20:41Z</time>
      </trkpt>
      <trkpt lat="47.86717" lon="1.89173">
        <ele>102</ele>
        <time>2013-11-03T15:20:45Z</time>
      </trkpt>
      <trkpt lat="47.86717" lon="1.89164">
        <ele>102</ele>
        <time>2013-11-03T15:20:49Z</time>
      </trkpt>
      <trkpt lat="47.86716" lon="1.89156">
        <ele>104</ele>
        <time>2013-11-03T15:20:52Z</time>
      </trkpt>
      <trkpt lat="47.86719" lon="1.8915">
        <ele>105</ele>
        <time>2013-11-03T15:20:56Z</time>
      </trkpt>
      <trkpt lat="47.86702" lon="1.89134">
        <ele>97</ele>
        <time>2013-11-03T15:21:12Z</time>
      </trkpt>
      <trkpt lat="47.86697" lon="1.89136">
        <ele>98</ele>
        <time>2013-11-03T15:21:15Z</time>
      </trkpt>
      <trkpt lat="47.86692" lon="1.89134">
        <ele>88</ele>
        <time>2013-11-03T15:21:22Z</time>
      </trkpt>
      <trkpt lat="47.86688" lon="1.89135">
        <ele>91</ele>
        <time>2013-11-03T15:21:26Z</time>
      </trkpt>
      <trkpt lat="47.86683" lon="1.89138">
        <ele>96</ele>
        <time>2013-11-03T15:21:30Z</time>
      </trkpt>
      <trkpt lat="47.8668" lon="1.89144">
        <ele>96</ele>
        <time>2013-11-03T15:21:34Z</time>
      </trkpt>
      <trkpt lat="47.86677" lon="1.89151">
        <ele>99</ele>
        <time>2013-11-03T15:21:38Z</time>
      </trkpt>
      <trkpt lat="47.86672" lon="1.89155">
        <ele>98</ele>
        <time>2013-11-03T15:21:41Z</time>
      </trkpt>
      <trkpt lat="47.86668" lon="1.8915">
        <ele>95</ele>
        <time>2013-11-03T15:21:44Z</time>
      </trkpt>
      <trkpt lat="47.86647" lon="1.89142">
        <ele>100</ele>
        <time>2013-11-03T15:21:56Z</time>
      </trkpt>
      <trkpt lat="47.86641" lon="1.89142">
        <ele>99</ele>
        <time>2013-11-03T15:21:59Z</time>
      </trkpt>
      <trkpt lat="47.86637" lon="1.89142">
        <ele>95</ele>
        <time>2013-11-03T15:22:02Z</time>
      </trkpt>
      <trkpt lat="47.86631" lon="1.89141">
        <ele>100</ele>
        <time>2013-11-03T15:22:05Z</time>
      </trkpt>
      <trkpt lat="47.86626" lon="1.8914">
        <ele>101</ele>
        <time>2013-11-03T15:22:09Z</time>
      </trkpt>
      <trkpt lat="47.8662" lon="1.89138">
        <ele>99</ele>
        <time>2013-11-03T15:22:13Z</time>
      </trkpt>
      <trkpt lat="47.86615" lon="1.89136">
        <ele>96</ele>
        <time>2013-11-03T15:22:17Z</time>
      </trkpt>
      <trkpt lat="47.8661" lon="1.89137">
        <ele>95</ele>
        <time>2013-11-03T15:22:21Z</time>
      </trkpt>
      <trkpt lat="47.86604" lon="1.89138">
        <ele>94</ele>
        <time>2013-11-03T15:22:25Z</time>
      </trkpt>
      <trkpt lat="47.86599" lon="1.89139">
        <ele>94</ele>
        <time>2013-11-03T15:22:28Z</time>
      </trkpt>
      <trkpt lat="47.86588" lon="1.89138">
        <ele>93</ele>
        <time>2013-11-03T15:22:34Z</time>
      </trkpt>
      <trkpt lat="47.86582" lon="1.89136">
        <ele>96</ele>
        <time>2013-11-03T15:22:37Z</time>
      </trkpt>
      <trkpt lat="47.86577" lon="1.89134">
        <ele>96</ele>
        <time>2013-11-03T15:22:40Z</time>
      </trkpt>
      <trkpt lat="47.86573" lon="1.8913">
        <ele>93</ele>
        <time>2013-11-03T15:22:43Z</time>
      </trkpt>
      <trkpt lat="47.86567" lon="1.89128">
        <ele>93</ele>
        <time>2013-11-03T15:22:47Z</time>
      </trkpt>
      <trkpt lat="47.86562" lon="1.89126">
        <ele>95</ele>
        <time>2013-11-03T15:22:51Z</time>
      </trkpt>
      <trkpt lat="47.86557" lon="1.89129">
        <ele>98</ele>
        <time>2013-11-03T15:22:54Z</time>
      </trkpt>
      <trkpt lat="47.86552" lon="1.89132">
        <ele>98</ele>
        <time>2013-11-03T15:22:59Z</time>
      </trkpt>
      <trkpt lat="47.86549" lon="1.89127">
        <ele>97</ele>
        <time>2013-11-03T15:23:02Z</time>
      </trkpt>
      <trkpt lat="47.86544" lon="1.89123">
        <ele>96</ele>
        <time>2013-11-03T15:23:06Z</time>
      </trkpt>
      <trkpt lat="47.86529" lon="1.8911">
        <ele>94</ele>
        <time>2013-11-03T15:23:29Z</time>
      </trkpt>
      <trkpt lat="47.86523" lon="1.89109">
        <ele>90</ele>
        <time>2013-11-03T15:23:34Z</time>
      </trkpt>
      <trkpt lat="47.86519" lon="1.89107">
        <ele>89</ele>
        <time>2013-11-03T15:23:38Z</time>
      </trkpt>
      <trkpt lat="47.86515" lon="1.89101">
        <ele>91</ele>
        <time>2013-11-03T15:23:42Z</time>
      </trkpt>
      <trkpt lat="47.8651" lon="1.89099">
        <ele>91</ele>
        <time>2013-11-03T15:23:45Z</time>
      </trkpt>
      <trkpt lat="47.86506" lon="1.89099">
        <ele>90</ele>
        <time>2013-11-03T15:23:48Z</time>
      </trkpt>
      <trkpt lat="47.865" lon="1.89099">
        <ele>87</ele>
        <time>2013-11-03T15:23:52Z</time>
      </trkpt>
      <trkpt lat="47.86495" lon="1.89099">
        <ele>86</ele>
        <time>2013-11-03T15:23:56Z</time>
      </trkpt>
      <trkpt lat="47.8649" lon="1.89096">
        <ele>86</ele>
        <time>2013-11-03T15:24:00Z</time>
      </trkpt>
      <trkpt lat="47.86485" lon="1.89093">
        <ele>89</ele>
        <time>2013-11-03T15:24:03Z</time>
      </trkpt>
      <trkpt lat="47.86475" lon="1.89089">
        <ele>91</ele>
        <time>2013-11-03T15:24:10Z</time>
      </trkpt>
      <trkpt lat="47.8647" lon="1.89087">
        <ele>91</ele>
        <time>2013-11-03T15:24:14Z</time>
      </trkpt>
      <trkpt lat="47.86466" lon="1.89084">
        <ele>92</ele>
        <time>2013-11-03T15:24:18Z</time>
      </trkpt>
      <trkpt lat="47.86461" lon="1.89082">
        <ele>89</ele>
        <time>2013-11-03T15:24:22Z</time>
      </trkpt>
      <trkpt lat="47.86456" lon="1.89083">
        <ele>88</ele>
        <time>2013-11-03T15:24:27Z</time>
      </trkpt>
      <trkpt lat="47.86452" lon="1.89077">
        <ele>86</ele>
        <time>2013-11-03T15:24:31Z</time>
      </trkpt>
      <trkpt lat="47.86447" lon="1.89072">
        <ele>85</ele>
        <time>2013-11-03T15:24:35Z</time>
      </trkpt>
      <trkpt lat="47.86442" lon="1.89069">
        <ele>84</ele>
        <time>2013-11-03T15:24:39Z</time>
      </trkpt>
      <trkpt lat="47.86437" lon="1.89068">
        <ele>86</ele>
        <time>2013-11-03T15:24:42Z</time>
      </trkpt>
      <trkpt lat="47.86427" lon="1.89064">
        <ele>87</ele>
        <time>2013-11-03T15:24:49Z</time>
      </trkpt>
      <trkpt lat="47.86422" lon="1.89063">
        <ele>89</ele>
        <time>2013-11-03T15:24:57Z</time>
      </trkpt>
      <trkpt lat="47.86417" lon="1.89058">
        <ele>89</ele>
        <time>2013-11-03T15:25:01Z</time>
      </trkpt>
      <trkpt lat="47.86414" lon="1.89052">
        <ele>88</ele>
        <time>2013-11-03T15:25:07Z</time>
      </trkpt>
      <trkpt lat="47.86409" lon="1.89053">
        <ele>89</ele>
        <time>2013-11-03T15:25:11Z</time>
      </trkpt>
      <trkpt lat="47.86404" lon="1.89051">
        <ele>86</ele>
        <time>2013-11-03T15:25:15Z</time>
      </trkpt>
      <trkpt lat="47.864" lon="1.89045">
        <ele>87</ele>
        <time>2013-11-03T15:25:19Z</time>
      </trkpt>
      <trkpt lat="47.86397" lon="1.8904">
        <ele>88</ele>
        <time>2013-11-03T15:25:22Z</time>
      </trkpt>
      <trkpt lat="47.86394" lon="1.89035">
        <ele>87</ele>
        <time>2013-11-03T15:25:25Z</time>
      </trkpt>
      <trkpt lat="47.86384" lon="1.89018">
        <ele>87</ele>
        <time>2013-11-03T15:25:35Z</time>
      </trkpt>
      <trkpt lat="47.8638" lon="1.89013">
        <ele>91</ele>
        <time>2013-11-03T15:25:38Z</time>
      </trkpt>
      <trkpt lat="47.86377" lon="1.89008">
        <ele>94</ele>
        <time>2013-11-03T15:25:41Z</time>
      </trkpt>
      <trkpt lat="47.86374" lon="1.89002">
        <ele>95</ele>
        <time>2013-11-03T15:25:44Z</time>
      </trkpt>
      <trkpt lat="47.86372" lon="1.88995">
        <ele>96</ele>
        <time>2013-11-03T15:25:47Z</time>
      </trkpt>
      <trkpt lat="47.86369" lon="1.88989">
        <ele>97</ele>
        <time>2013-11-03T15:25:50Z</time>
      </trkpt>
      <trkpt lat="47.86366" lon="1.88982">
        <ele>96</ele>
        <time>2013-11-03T15:25:54Z</time>
      </trkpt>
      <trkpt lat="47.86365" lon="1.88975">
        <ele>97</ele>
        <time>2013-11-03T15:25:58Z</time>
      </trkpt>
      <trkpt lat="47.86363" lon="1.88969">
        <ele>98</ele>
        <time>2013-11-03T15:26:01Z</time>
      </trkpt>
      <trkpt lat="47.8636" lon="1.88961">
        <ele>98</ele>
        <time>2013-11-03T15:26:05Z</time>
      </trkpt>
      <trkpt lat="47.86356" lon="1.88947">
        <ele>100</ele>
        <time>2013-11-03T15:26:11Z</time>
      </trkpt>
      <trkpt lat="47.86354" lon="1.8894">
        <ele>98</ele>
        <time>2013-11-03T15:26:15Z</time>
      </trkpt>
      <trkpt lat="47.86353" lon="1.88932">
        <ele>96</ele>
        <time>2013-11-03T15:26:21Z</time>
      </trkpt>
      <trkpt lat="47.86351" lon="1.88926">
        <ele>95</ele>
        <time>2013-11-03T15:26:25Z</time>
      </trkpt>
      <trkpt lat="47.86349" lon="1.88919">
        <ele>95</ele>
        <time>2013-11-03T15:26:28Z</time>
      </trkpt>
      <trkpt lat="47.86346" lon="1.8891">
        <ele>92</ele>
        <time>2013-11-03T15:26:32Z</time>
      </trkpt>
      <trkpt lat="47.86345" lon="1.88904">
        <ele>93</ele>
        <time>2013-11-03T15:26:35Z</time>
      </trkpt>
      <trkpt lat="47.86342" lon="1.88896">
        <ele>94</ele>
        <time>2013-11-03T15:26:39Z</time>
      </trkpt>
      <trkpt lat="47.8634" lon="1.88888">
        <ele>94</ele>
        <time>2013-11-03T15:26:43Z</time>
      </trkpt>
      <trkpt lat="47.86336" lon="1.88874">
        <ele>94</ele>
        <time>2013-11-03T15:26:50Z</time>
      </trkpt>
      <trkpt lat="47.86335" lon="1.88867">
        <ele>96</ele>
        <time>2013-11-03T15:26:53Z</time>
      </trkpt>
      <trkpt lat="47.86333" lon="1.8886">
        <ele>97</ele>
        <time>2013-11-03T15:26:56Z</time>
      </trkpt>
      <trkpt lat="47.86331" lon="1.88852">
        <ele>98</ele>
        <time>2013-11-03T15:27:00Z</time>
      </trkpt>
      <trkpt lat="47.86329" lon="1.88844">
        <ele>96</ele>
        <time>2013-11-03T15:27:04Z</time>
      </trkpt>
      <trkpt lat="47.86327" lon="1.88837">
        <ele>93</ele>
        <time>2013-11-03T15:27:08Z</time>
      </trkpt>
      <trkpt lat="47.86326" lon="1.88829">
        <ele>95</ele>
        <time>2013-11-03T15:27:12Z</time>
      </trkpt>
      <trkpt lat="47.86324" lon="1.88821">
        <ele>99</ele>
        <time>2013-11-03T15:27:16Z</time>
      </trkpt>
      <trkpt lat="47.86322" lon="1.88814">
        <ele>99</ele>
        <time>2013-11-03T15:27:19Z</time>
      </trkpt>
      <trkpt lat="47.86319" lon="1.88805">
        <ele>103</ele>
        <time>2013-11-03T15:27:22Z</time>
      </trkpt>
      <trkpt lat="47.86317" lon="1.88798">
        <ele>104</ele>
        <time>2013-11-03T15:27:24Z</time>
      </trkpt>
      <trkpt lat="47.86316" lon="1.88789">
        <ele>98</ele>
        <time>2013-11-03T15:27:27Z</time>
      </trkpt>
      <trkpt lat="47.86315" lon="1.88782">
        <ele>99</ele>
        <time>2013-11-03T15:27:30Z</time>
      </trkpt>
      <trkpt lat="47.86314" lon="1.88775">
        <ele>94</ele>
        <time>2013-11-03T15:27:35Z</time>
      </trkpt>
      <trkpt lat="47.86312" lon="1.88768">
        <ele>93</ele>
        <time>2013-11-03T15:27:40Z</time>
      </trkpt>
      <trkpt lat="47.86306" lon="1.88757">
        <ele>92</ele>
        <time>2013-11-03T15:27:47Z</time>
      </trkpt>
      <trkpt lat="47.86302" lon="1.88752">
        <ele>91</ele>
        <time>2013-11-03T15:27:50Z</time>
      </trkpt>
      <trkpt lat="47.86302" lon="1.88744">
        <ele>90</ele>
        <time>2013-11-03T15:27:53Z</time>
      </trkpt>
      <trkpt lat="47.86301" lon="1.88737">
        <ele>86</ele>
        <time>2013-11-03T15:27:56Z</time>
      </trkpt>
      <trkpt lat="47.86299" lon="1.88732">
        <ele>89</ele>
        <time>2013-11-03T15:28:00Z</time>
      </trkpt>
      <trkpt lat="47.86295" lon="1.88725">
        <ele>89</ele>
        <time>2013-11-03T15:28:04Z</time>
      </trkpt>
      <trkpt lat="47.86293" lon="1.88718">
        <ele>93</ele>
        <time>2013-11-03T15:28:07Z</time>
      </trkpt>
      <trkpt lat="47.86291" lon="1.88712">
        <ele>93</ele>
        <time>2013-11-03T15:28:10Z</time>
      </trkpt>
      <trkpt lat="47.86288" lon="1.88705">
        <ele>94</ele>
        <time>2013-11-03T15:28:13Z</time>
      </trkpt>
      <trkpt lat="47.86285" lon="1.88699">
        <ele>93</ele>
        <time>2013-11-03T15:28:16Z</time>
      </trkpt>
      <trkpt lat="47.86279" lon="1.88686">
        <ele>90</ele>
        <time>2013-11-03T15:28:24Z</time>
      </trkpt>
      <trkpt lat="47.86276" lon="1.88679">
        <ele>89</ele>
        <time>2013-11-03T15:28:28Z</time>
      </trkpt>
      <trkpt lat="47.86273" lon="1.88672">
        <ele>90</ele>
        <time>2013-11-03T15:28:31Z</time>
      </trkpt>
      <trkpt lat="47.86269" lon="1.88669">
        <ele>92</ele>
        <time>2013-11-03T15:28:34Z</time>
      </trkpt>
      <trkpt lat="47.86264" lon="1.88668">
        <ele>93</ele>
        <time>2013-11-03T15:28:37Z</time>
      </trkpt>
      <trkpt lat="47.86259" lon="1.88666">
        <ele>94</ele>
        <time>2013-11-03T15:28:40Z</time>
      </trkpt>
      <trkpt lat="47.86253" lon="1.88665">
        <ele>94</ele>
        <time>2013-11-03T15:28:43Z</time>
      </trkpt>
      <trkpt lat="47.86248" lon="1.88664">
        <ele>95</ele>
        <time>2013-11-03T15:28:46Z</time>
      </trkpt>
      <trkpt lat="47.86243" lon="1.88662">
        <ele>93</ele>
        <time>2013-11-03T15:28:49Z</time>
      </trkpt>
      <trkpt lat="47.86237" lon="1.88661">
        <ele>96</ele>
        <time>2013-11-03T15:28:53Z</time>
      </trkpt>
      <trkpt lat="47.86232" lon="1.88661">
        <ele>95</ele>
        <time>2013-11-03T15:28:56Z</time>
      </trkpt>
      <trkpt lat="47.86227" lon="1.88662">
        <ele>94</ele>
        <time>2013-11-03T15:28:59Z</time>
      </trkpt>
      <trkpt lat="47.86223" lon="1.88662">
        <ele>94</ele>
        <time>2013-11-03T15:29:02Z</time>
      </trkpt>
      <trkpt lat="47.86218" lon="1.88662">
        <ele>95</ele>
        <time>2013-11-03T15:29:05Z</time>
      </trkpt>
      <trkpt lat="47.86212" lon="1.88665">
        <ele>96</ele>
        <time>2013-11-03T15:29:08Z</time>
      </trkpt>
      <trkpt lat="47.86206" lon="1.88667">
        <ele>95</ele>
        <time>2013-11-03T15:29:11Z</time>
      </trkpt>
      <trkpt lat="47.86202" lon="1.88666">
        <ele>95</ele>
        <time>2013-11-03T15:29:14Z</time>
      </trkpt>
      <trkpt lat="47.86196" lon="1.88666">
        <ele>95</ele>
        <time>2013-11-03T15:29:18Z</time>
      </trkpt>
      <trkpt lat="47.86191" lon="1.88665">
        <ele>95</ele>
        <time>2013-11-03T15:29:22Z</time>
      </trkpt>
      <trkpt lat="47.86186" lon="1.88665">
        <ele>94</ele>
        <time>2013-11-03T15:29:26Z</time>
      </trkpt>
      <trkpt lat="47.8618" lon="1.88666">
        <ele>94</ele>
        <time>2013-11-03T15:29:30Z</time>
      </trkpt>
      <trkpt lat="47.86174" lon="1.88666">
        <ele>92</ele>
        <time>2013-11-03T15:29:34Z</time>
      </trkpt>
      <trkpt lat="47.86163" lon="1.88668">
        <ele>90</ele>
        <time>2013-11-03T15:29:42Z</time>
      </trkpt>
      <trkpt lat="47.86157" lon="1.88668">
        <ele>92</ele>
        <time>2013-11-03T15:29:46Z</time>
      </trkpt>
      <trkpt lat="47.86152" lon="1.88667">
        <ele>92</ele>
        <time>2013-11-03T15:29:49Z</time>
      </trkpt>
      <trkpt lat="47.86147" lon="1.88667">
        <ele>93</ele>
        <time>2013-11-03T15:29:52Z</time>
      </trkpt>
      <trkpt lat="47.86142" lon="1.88666">
        <ele>93</ele>
        <time>2013-11-03T15:29:55Z</time>
      </trkpt>
      <trkpt lat="47.86137" lon="1.88665">
        <ele>92</ele>
        <time>2013-11-03T15:29:58Z</time>
      </trkpt>
      <trkpt lat="47.86131" lon="1.88665">
        <ele>91</ele>
        <time>2013-11-03T15:30:02Z</time>
      </trkpt>
      <trkpt lat="47.86127" lon="1.88665">
        <ele>90</ele>
        <time>2013-11-03T15:30:05Z</time>
      </trkpt>
      <trkpt lat="47.86122" lon="1.88664">
        <ele>93</ele>
        <time>2013-11-03T15:30:08Z</time>
      </trkpt>
      <trkpt lat="47.86117" lon="1.88664">
        <ele>89</ele>
        <time>2013-11-03T15:30:11Z</time>
      </trkpt>
      <trkpt lat="47.86111" lon="1.88663">
        <ele>90</ele>
        <time>2013-11-03T15:30:15Z</time>
      </trkpt>
      <trkpt lat="47.86105" lon="1.88662">
        <ele>90</ele>
        <time>2013-11-03T15:30:19Z</time>
      </trkpt>
      <trkpt lat="47.861" lon="1.88662">
        <ele>90</ele>
        <time>2013-11-03T15:30:22Z</time>
      </trkpt>
      <trkpt lat="47.86095" lon="1.88662">
        <ele>89</ele>
        <time>2013-11-03T15:30:25Z</time>
      </trkpt>
      <trkpt lat="47.86091" lon="1.88661">
        <ele>87</ele>
        <time>2013-11-03T15:30:28Z</time>
      </trkpt>
      <trkpt lat="47.86085" lon="1.8866">
        <ele>89</ele>
        <time>2013-11-03T15:30:32Z</time>
      </trkpt>
      <trkpt lat="47.8608" lon="1.88659">
        <ele>90</ele>
        <time>2013-11-03T15:30:35Z</time>
      </trkpt>
      <trkpt lat="47.86074" lon="1.88657">
        <ele>90</ele>
        <time>2013-11-03T15:30:39Z</time>
      </trkpt>
      <trkpt lat="47.86069" lon="1.88656">
        <ele>91</ele>
        <time>2013-11-03T15:30:42Z</time>
      </trkpt>
      <trkpt lat="47.86064" lon="1.88655">
        <ele>93</ele>
        <time>2013-11-03T15:30:45Z</time>
      </trkpt>
      <trkpt lat="47.86058" lon="1.88654">
        <ele>94</ele>
        <time>2013-11-03T15:30:48Z</time>
      </trkpt>
      <trkpt lat="47.86053" lon="1.88653">
        <ele>96</ele>
        <time>2013-11-03T15:30:51Z</time>
      </trkpt>
      <trkpt lat="47.86048" lon="1.88652">
        <ele>97</ele>
        <time>2013-11-03T15:30:54Z</time>
      </trkpt>
      <trkpt lat="47.86044" lon="1.88652">
        <ele>96</ele>
        <time>2013-11-03T15:30:57Z</time>
      </trkpt>
      <trkpt lat="47.86039" lon="1.88651">
        <ele>98</ele>
        <time>2013-11-03T15:31:00Z</time>
      </trkpt>
      <trkpt lat="47.86034" lon="1.88651">
        <ele>97</ele>
        <time>2013-11-03T15:31:03Z</time>
      </trkpt>
      <trkpt lat="47.86029" lon="1.88651">
        <ele>97</ele>
        <time>2013-11-03T15:31:06Z</time>
      </trkpt>
      <trkpt lat="47.86024" lon="1.88651">
        <ele>100</ele>
        <time>2013-11-03T15:31:09Z</time>
      </trkpt>
      <trkpt lat="47.86019" lon="1.88651">
        <ele>100</ele>
        <time>2013-11-03T15:31:12Z</time>
      </trkpt>
      <trkpt lat="47.86014" lon="1.88651">
        <ele>101</ele>
        <time>2013-11-03T15:31:15Z</time>
      </trkpt>
      <trkpt lat="47.86009" lon="1.8865">
        <ele>101</ele>
        <time>2013-11-03T15:31:18Z</time>
      </trkpt>
      <trkpt lat="47.86004" lon="1.88648">
        <ele>102</ele>
        <time>2013-11-03T15:31:21Z</time>
      </trkpt>
      <trkpt lat="47.85999" lon="1.88648">
        <ele>102</ele>
        <time>2013-11-03T15:31:24Z</time>
      </trkpt>
      <trkpt lat="47.85994" lon="1.88649">
        <ele>100</ele>
        <time>2013-11-03T15:31:27Z</time>
      </trkpt>
      <trkpt lat="47.85989" lon="1.88651">
        <ele>99</ele>
        <time>2013-11-03T15:31:31Z</time>
      </trkpt>
      <trkpt lat="47.85984" lon="1.88652">
        <ele>100</ele>
        <time>2013-11-03T15:31:34Z</time>
      </trkpt>
      <trkpt lat="47.85979" lon="1.88653">
        <ele>100</ele>
        <time>2013-11-03T15:31:37Z</time>
      </trkpt>
      <trkpt lat="47.85975" lon="1.88654">
        <ele>99</ele>
        <time>2013-11-03T15:31:40Z</time>
      </trkpt>
      <trkpt lat="47.85969" lon="1.88652">
        <ele>99</ele>
        <time>2013-11-03T15:31:44Z</time>
      </trkpt>
      <trkpt lat="47.85958" lon="1.88654">
        <ele>101</ele>
        <time>2013-11-03T15:31:52Z</time>
      </trkpt>
      <trkpt lat="47.85954" lon="1.88657">
        <ele>100</ele>
        <time>2013-11-03T15:31:55Z</time>
      </trkpt>
      <trkpt lat="47.85948" lon="1.88659">
        <ele>99</ele>
        <time>2013-11-03T15:31:59Z</time>
      </trkpt>
      <trkpt lat="47.85945" lon="1.88653">
        <ele>97</ele>
        <time>2013-11-03T15:32:03Z</time>
      </trkpt>
      <trkpt lat="47.85944" lon="1.88647">
        <ele>98</ele>
        <time>2013-11-03T15:32:06Z</time>
      </trkpt>
      <trkpt lat="47.85943" lon="1.8864">
        <ele>99</ele>
        <time>2013-11-03T15:32:09Z</time>
      </trkpt>
      <trkpt lat="47.85939" lon="1.88636">
        <ele>99</ele>
        <time>2013-11-03T15:32:12Z</time>
      </trkpt>
      <trkpt lat="47.85933" lon="1.88634">
        <ele>99</ele>
        <time>2013-11-03T15:32:16Z</time>
      </trkpt>
      <trkpt lat="47.85928" lon="1.88635">
        <ele>100</ele>
        <time>2013-11-03T15:32:20Z</time>
      </trkpt>
      <trkpt lat="47.85923" lon="1.88636">
        <ele>99</ele>
        <time>2013-11-03T15:32:23Z</time>
      </trkpt>
      <trkpt lat="47.85907" lon="1.88634">
        <ele>99</ele>
        <time>2013-11-03T15:32:34Z</time>
      </trkpt>
      <trkpt lat="47.85902" lon="1.88633">
        <ele>97</ele>
        <time>2013-11-03T15:32:38Z</time>
      </trkpt>
      <trkpt lat="47.85896" lon="1.88632">
        <ele>96</ele>
        <time>2013-11-03T15:32:42Z</time>
      </trkpt>
      <trkpt lat="47.85892" lon="1.88631">
        <ele>95</ele>
        <time>2013-11-03T15:32:45Z</time>
      </trkpt>
      <trkpt lat="47.85887" lon="1.88631">
        <ele>95</ele>
        <time>2013-11-03T15:32:48Z</time>
      </trkpt>
      <trkpt lat="47.85882" lon="1.88629">
        <ele>96</ele>
        <time>2013-11-03T15:32:52Z</time>
      </trkpt>
      <trkpt lat="47.85877" lon="1.88628">
        <ele>97</ele>
        <time>2013-11-03T15:32:56Z</time>
      </trkpt>
      <trkpt lat="47.8587" lon="1.88627">
        <ele>99</ele>
        <time>2013-11-03T15:33:00Z</time>
      </trkpt>
      <trkpt lat="47.85866" lon="1.88626">
        <ele>98</ele>
        <time>2013-11-03T15:33:03Z</time>
      </trkpt>
      <trkpt lat="47.85861" lon="1.88625">
        <ele>97</ele>
        <time>2013-11-03T15:33:06Z</time>
      </trkpt>
      <trkpt lat="47.85851" lon="1.88623">
        <ele>98</ele>
        <time>2013-11-03T15:33:13Z</time>
      </trkpt>
      <trkpt lat="47.85846" lon="1.8862">
        <ele>98</ele>
        <time>2013-11-03T15:33:17Z</time>
      </trkpt>
      <trkpt lat="47.85841" lon="1.88618">
        <ele>97</ele>
        <time>2013-11-03T15:33:20Z</time>
      </trkpt>
      <trkpt lat="47.85837" lon="1.88616">
        <ele>97</ele>
        <time>2013-11-03T15:33:23Z</time>
      </trkpt>
      <trkpt lat="47.85831" lon="1.88613">
        <ele>97</ele>
        <time>2013-11-03T15:33:27Z</time>
      </trkpt>
      <trkpt lat="47.85827" lon="1.88612">
        <ele>96</ele>
        <time>2013-11-03T15:33:30Z</time>
      </trkpt>
      <trkpt lat="47.85822" lon="1.8861">
        <ele>97</ele>
        <time>2013-11-03T15:33:33Z</time>
      </trkpt>
      <trkpt lat="47.85817" lon="1.88609">
        <ele>96</ele>
        <time>2013-11-03T15:33:36Z</time>
      </trkpt>
      <trkpt lat="47.85813" lon="1.88607">
        <ele>95</ele>
        <time>2013-11-03T15:33:39Z</time>
      </trkpt>
      <trkpt lat="47.85807" lon="1.88606">
        <ele>94</ele>
        <time>2013-11-03T15:33:43Z</time>
      </trkpt>
      <trkpt lat="47.85802" lon="1.88605">
        <ele>95</ele>
        <time>2013-11-03T15:33:46Z</time>
      </trkpt>
      <trkpt lat="47.85791" lon="1.88601">
        <ele>96</ele>
        <time>2013-11-03T15:33:54Z</time>
      </trkpt>
      <trkpt lat="47.85786" lon="1.88598">
        <ele>95</ele>
        <time>2013-11-03T15:33:57Z</time>
      </trkpt>
      <trkpt lat="47.85782" lon="1.88592">
        <ele>95</ele>
        <time>2013-11-03T15:34:01Z</time>
      </trkpt>
      <trkpt lat="47.85782" lon="1.88585">
        <ele>97</ele>
        <time>2013-11-03T15:34:04Z</time>
      </trkpt>
      <trkpt lat="47.85783" lon="1.88577">
        <ele>99</ele>
        <time>2013-11-03T15:34:08Z</time>
      </trkpt>
      <trkpt lat="47.85783" lon="1.8857">
        <ele>101</ele>
        <time>2013-11-03T15:34:12Z</time>
      </trkpt>
      <trkpt lat="47.85782" lon="1.88562">
        <ele>101</ele>
        <time>2013-11-03T15:34:15Z</time>
      </trkpt>
      <trkpt lat="47.85782" lon="1.88553">
        <ele>101</ele>
        <time>2013-11-03T15:34:18Z</time>
      </trkpt>
      <trkpt lat="47.85781" lon="1.88545">
        <ele>100</ele>
        <time>2013-11-03T15:34:21Z</time>
      </trkpt>
      <trkpt lat="47.85781" lon="1.88537">
        <ele>99</ele>
        <time>2013-11-03T15:34:24Z</time>
      </trkpt>
      <trkpt lat="47.85781" lon="1.88529">
        <ele>98</ele>
        <time>2013-11-03T15:34:27Z</time>
      </trkpt>
      <trkpt lat="47.85783" lon="1.88523">
        <ele>94</ele>
        <time>2013-11-03T15:34:31Z</time>
      </trkpt>
      <trkpt lat="47.85784" lon="1.88515">
        <ele>92</ele>
        <time>2013-11-03T15:34:35Z</time>
      </trkpt>
      <trkpt lat="47.85786" lon="1.88507">
        <ele>95</ele>
        <time>2013-11-03T15:34:39Z</time>
      </trkpt>
      <trkpt lat="47.85786" lon="1.88498">
        <ele>97</ele>
        <time>2013-11-03T15:34:42Z</time>
      </trkpt>
      <trkpt lat="47.85786" lon="1.88489">
        <ele>96</ele>
        <time>2013-11-03T15:34:45Z</time>
      </trkpt>
      <trkpt lat="47.85786" lon="1.88481">
        <ele>98</ele>
        <time>2013-11-03T15:34:48Z</time>
      </trkpt>
      <trkpt lat="47.85788" lon="1.88473">
        <ele>95</ele>
        <time>2013-11-03T15:34:52Z</time>
      </trkpt>
      <trkpt lat="47.85788" lon="1.88465">
        <ele>92</ele>
        <time>2013-11-03T15:34:56Z</time>
      </trkpt>
      <trkpt lat="47.85788" lon="1.8845">
        <ele>98</ele>
        <time>2013-11-03T15:35:05Z</time>
      </trkpt>
      <trkpt lat="47.85786" lon="1.88443">
        <ele>97</ele>
        <time>2013-11-03T15:35:08Z</time>
      </trkpt>
      <trkpt lat="47.85785" lon="1.88436">
        <ele>98</ele>
        <time>2013-11-03T15:35:11Z</time>
      </trkpt>
      <trkpt lat="47.85784" lon="1.88429">
        <ele>98</ele>
        <time>2013-11-03T15:35:14Z</time>
      </trkpt>
      <trkpt lat="47.85783" lon="1.88422">
        <ele>97</ele>
        <time>2013-11-03T15:35:17Z</time>
      </trkpt>
      <trkpt lat="47.85782" lon="1.88415">
        <ele>98</ele>
        <time>2013-11-03T15:35:20Z</time>
      </trkpt>
      <trkpt lat="47.85782" lon="1.88406">
        <ele>100</ele>
        <time>2013-11-03T15:35:24Z</time>
      </trkpt>
      <trkpt lat="47.85781" lon="1.884">
        <ele>99</ele>
        <time>2013-11-03T15:35:27Z</time>
      </trkpt>
      <trkpt lat="47.85782" lon="1.88392">
        <ele>100</ele>
        <time>2013-11-03T15:35:31Z</time>
      </trkpt>
      <trkpt lat="47.85783" lon="1.8836">
        <ele>98</ele>
        <time>2013-11-03T15:35:54Z</time>
      </trkpt>
      <trkpt lat="47.85782" lon="1.88353">
        <ele>98</ele>
        <time>2013-11-03T15:35:56Z</time>
      </trkpt>
      <trkpt lat="47.85781" lon="1.88344">
        <ele>95</ele>
        <time>2013-11-03T15:35:59Z</time>
      </trkpt>
      <trkpt lat="47.85781" lon="1.88337">
        <ele>95</ele>
        <time>2013-11-03T15:36:02Z</time>
      </trkpt>
      <trkpt lat="47.85782" lon="1.8833">
        <ele>92</ele>
        <time>2013-11-03T15:36:09Z</time>
      </trkpt>
      <trkpt lat="47.85782" lon="1.88322">
        <ele>89</ele>
        <time>2013-11-03T15:36:17Z</time>
      </trkpt>
      <trkpt lat="47.85781" lon="1.88315">
        <ele>93</ele>
        <time>2013-11-03T15:36:19Z</time>
      </trkpt>
      <trkpt lat="47.85781" lon="1.88308">
        <ele>96</ele>
        <time>2013-11-03T15:36:21Z</time>
      </trkpt>
      <trkpt lat="47.85781" lon="1.88301">
        <ele>96</ele>
        <time>2013-11-03T15:36:23Z</time>
      </trkpt>
      <trkpt lat="47.85779" lon="1.88283">
        <ele>97</ele>
        <time>2013-11-03T15:36:28Z</time>
      </trkpt>
      <trkpt lat="47.85778" lon="1.88274">
        <ele>95</ele>
        <time>2013-11-03T15:36:31Z</time>
      </trkpt>
      <trkpt lat="47.85778" lon="1.88265">
        <ele>97</ele>
        <time>2013-11-03T15:36:34Z</time>
      </trkpt>
      <trkpt lat="47.85776" lon="1.88256">
        <ele>99</ele>
        <time>2013-11-03T15:36:37Z</time>
      </trkpt>
      <trkpt lat="47.85775" lon="1.88247">
        <ele>102</ele>
        <time>2013-11-03T15:36:40Z</time>
      </trkpt>
      <trkpt lat="47.85776" lon="1.88239">
        <ele>105</ele>
        <time>2013-11-03T15:36:43Z</time>
      </trkpt>
      <trkpt lat="47.85776" lon="1.88231">
        <ele>105</ele>
        <time>2013-11-03T15:36:46Z</time>
      </trkpt>
      <trkpt lat="47.85774" lon="1.88224">
        <ele>106</ele>
        <time>2013-11-03T15:36:49Z</time>
      </trkpt>
      <trkpt lat="47.85775" lon="1.88217">
        <ele>96</ele>
        <time>2013-11-03T15:36:52Z</time>
      </trkpt>
      <trkpt lat="47.85776" lon="1.8821">
        <ele>95</ele>
        <time>2013-11-03T15:36:55Z</time>
      </trkpt>
      <trkpt lat="47.85776" lon="1.88202">
        <ele>94</ele>
        <time>2013-11-03T15:36:58Z</time>
      </trkpt>
      <trkpt lat="47.85776" lon="1.88195">
        <ele>97</ele>
        <time>2013-11-03T15:37:01Z</time>
      </trkpt>
      <trkpt lat="47.85775" lon="1.88188">
        <ele>98</ele>
        <time>2013-11-03T15:37:04Z</time>
      </trkpt>
      <trkpt lat="47.85777" lon="1.88182">
        <ele>95</ele>
        <time>2013-11-03T15:37:08Z</time>
      </trkpt>
      <trkpt lat="47.85778" lon="1.88174">
        <ele>98</ele>
        <time>2013-11-03T15:37:12Z</time>
      </trkpt>
      <trkpt lat="47.85775" lon="1.88161">
        <ele>99</ele>
        <time>2013-11-03T15:37:18Z</time>
      </trkpt>
      <trkpt lat="47.85774" lon="1.88154">
        <ele>98</ele>
        <time>2013-11-03T15:37:21Z</time>
      </trkpt>
      <trkpt lat="47.85773" lon="1.88147">
        <ele>98</ele>
        <time>2013-11-03T15:37:24Z</time>
      </trkpt>
      <trkpt lat="47.85772" lon="1.8814">
        <ele>100</ele>
        <time>2013-11-03T15:37:27Z</time>
      </trkpt>
      <trkpt lat="47.85773" lon="1.88133">
        <ele>98</ele>
        <time>2013-11-03T15:37:32Z</time>
      </trkpt>
      <trkpt lat="47.8577" lon="1.88125">
        <ele>92</ele>
        <time>2013-11-03T15:37:35Z</time>
      </trkpt>
      <trkpt lat="47.85766" lon="1.88119">
        <ele>94</ele>
        <time>2013-11-03T15:37:37Z</time>
      </trkpt>
      <trkpt lat="47.85762" lon="1.88114">
        <ele>94</ele>
        <time>2013-11-03T15:37:39Z</time>
      </trkpt>
      <trkpt lat="47.8576" lon="1.88108">
        <ele>93</ele>
        <time>2013-11-03T15:37:42Z</time>
      </trkpt>
      <trkpt lat="47.85764" lon="1.88102">
        <ele>87</ele>
        <time>2013-11-03T15:37:46Z</time>
      </trkpt>
      <trkpt lat="47.85769" lon="1.88101">
        <ele>89</ele>
        <time>2013-11-03T15:37:49Z</time>
      </trkpt>
      <trkpt lat="47.858" lon="1.881">
        <ele>81</ele>
        <time>2013-11-03T15:38:08Z</time>
      </trkpt>
      <trkpt lat="47.85804" lon="1.88095">
        <ele>83</ele>
        <time>2013-11-03T15:38:14Z</time>
      </trkpt>
      <trkpt lat="47.8581" lon="1.88097">
        <ele>82</ele>
        <time>2013-11-03T15:38:18Z</time>
      </trkpt>
      <trkpt lat="47.85815" lon="1.881">
        <ele>86</ele>
        <time>2013-11-03T15:38:21Z</time>
      </trkpt>
      <trkpt lat="47.8582" lon="1.881">
        <ele>83</ele>
        <time>2013-11-03T15:38:25Z</time>
      </trkpt>
      <trkpt lat="47.85825" lon="1.88098">
        <ele>85</ele>
        <time>2013-11-03T15:38:29Z</time>
      </trkpt>
      <trkpt lat="47.85829" lon="1.88097">
        <ele>85</ele>
        <time>2013-11-03T15:38:32Z</time>
      </trkpt>
      <trkpt lat="47.85833" lon="1.88093">
        <ele>87</ele>
        <time>2013-11-03T15:38:35Z</time>
      </trkpt>
      <trkpt lat="47.85838" lon="1.88089">
        <ele>90</ele>
        <time>2013-11-03T15:38:39Z</time>
      </trkpt>
      <trkpt lat="47.85843" lon="1.88089">
        <ele>91</ele>
        <time>2013-11-03T15:38:42Z</time>
      </trkpt>
      <trkpt lat="47.85854" lon="1.88087">
        <ele>93</ele>
        <time>2013-11-03T15:38:48Z</time>
      </trkpt>
      <trkpt lat="47.8586" lon="1.88086">
        <ele>89</ele>
        <time>2013-11-03T15:38:51Z</time>
      </trkpt>
      <trkpt lat="47.85866" lon="1.88086">
        <ele>89</ele>
        <time>2013-11-03T15:38:54Z</time>
      </trkpt>
      <trkpt lat="47.85872" lon="1.88087">
        <ele>87</ele>
        <time>2013-11-03T15:38:58Z</time>
      </trkpt>
      <trkpt lat="47.85877" lon="1.88088">
        <ele>87</ele>
        <time>2013-11-03T15:39:02Z</time>
      </trkpt>
      <trkpt lat="47.85883" lon="1.8809">
        <ele>87</ele>
        <time>2013-11-03T15:39:07Z</time>
      </trkpt>
      <trkpt lat="47.85888" lon="1.88088">
        <ele>86</ele>
        <time>2013-11-03T15:39:11Z</time>
      </trkpt>
      <trkpt lat="47.85893" lon="1.88088">
        <ele>88</ele>
        <time>2013-11-03T15:39:14Z</time>
      </trkpt>
      <trkpt lat="47.85898" lon="1.88088">
        <ele>89</ele>
        <time>2013-11-03T15:39:17Z</time>
      </trkpt>
      <trkpt lat="47.85906" lon="1.88081">
        <ele>93</ele>
        <time>2013-11-03T15:41:20Z</time>
      </trkpt>
      <trkpt lat="47.85908" lon="1.88081">
        <ele>92</ele>
        <time>2013-11-03T15:41:23Z</time>
      </trkpt>
      <trkpt lat="47.85914" lon="1.8808">
        <ele>94</ele>
        <time>2013-11-03T15:41:28Z</time>
      </trkpt>
      <trkpt lat="47.85918" lon="1.8808">
        <ele>94</ele>
        <time>2013-11-03T15:41:31Z</time>
      </trkpt>
      <trkpt lat="47.85925" lon="1.8808">
        <ele>93</ele>
        <time>2013-11-03T15:41:34Z</time>
      </trkpt>
      <trkpt lat="47.8593" lon="1.88079">
        <ele>95</ele>
        <time>2013-11-03T15:41:38Z</time>
      </trkpt>
      <trkpt lat="47.85936" lon="1.88079">
        <ele>97</ele>
        <time>2013-11-03T15:41:42Z</time>
      </trkpt>
      <trkpt lat="47.85941" lon="1.88079">
        <ele>97</ele>
        <time>2013-11-03T15:41:46Z</time>
      </trkpt>
      <trkpt lat="47.85946" lon="1.8808">
        <ele>96</ele>
        <time>2013-11-03T15:41:50Z</time>
      </trkpt>
      <trkpt lat="47.85956" lon="1.88082">
        <ele>91</ele>
        <time>2013-11-03T15:41:57Z</time>
      </trkpt>
      <trkpt lat="47.85957" lon="1.88075">
        <ele>91</ele>
        <time>2013-11-03T15:42:02Z</time>
      </trkpt>
      <trkpt lat="47.85957" lon="1.88066">
        <ele>94</ele>
        <time>2013-11-03T15:42:06Z</time>
      </trkpt>
      <trkpt lat="47.85954" lon="1.8806">
        <ele>93</ele>
        <time>2013-11-03T15:42:10Z</time>
      </trkpt>
      <trkpt lat="47.85951" lon="1.88055">
        <ele>91</ele>
        <time>2013-11-03T15:42:14Z</time>
      </trkpt>
      <trkpt lat="47.85947" lon="1.8805">
        <ele>92</ele>
        <time>2013-11-03T15:42:17Z</time>
      </trkpt>
      <trkpt lat="47.85944" lon="1.88045">
        <ele>95</ele>
        <time>2013-11-03T15:42:20Z</time>
      </trkpt>
      <trkpt lat="47.8594" lon="1.88041">
        <ele>94</ele>
        <time>2013-11-03T15:42:23Z</time>
      </trkpt>
      <trkpt lat="47.85936" lon="1.88036">
        <ele>94</ele>
        <time>2013-11-03T15:42:26Z</time>
      </trkpt>
      <trkpt lat="47.85932" lon="1.8803">
        <ele>93</ele>
        <time>2013-11-03T15:42:30Z</time>
      </trkpt>
      <trkpt lat="47.85924" lon="1.88021">
        <ele>94</ele>
        <time>2013-11-03T15:42:38Z</time>
      </trkpt>
      <trkpt lat="47.85921" lon="1.88016">
        <ele>93</ele>
        <time>2013-11-03T15:42:42Z</time>
      </trkpt>
      <trkpt lat="47.85917" lon="1.88009">
        <ele>92</ele>
        <time>2013-11-03T15:42:46Z</time>
      </trkpt>
      <trkpt lat="47.85914" lon="1.88005">
        <ele>91</ele>
        <time>2013-11-03T15:42:50Z</time>
      </trkpt>
      <trkpt lat="47.8591" lon="1.88001">
        <ele>92</ele>
        <time>2013-11-03T15:42:54Z</time>
      </trkpt>
      <trkpt lat="47.85906" lon="1.87996">
        <ele>90</ele>
        <time>2013-11-03T15:42:58Z</time>
      </trkpt>
      <trkpt lat="47.85903" lon="1.87991">
        <ele>90</ele>
        <time>2013-11-03T15:43:02Z</time>
      </trkpt>
      <trkpt lat="47.85899" lon="1.87985">
        <ele>93</ele>
        <time>2013-11-03T15:43:05Z</time>
      </trkpt>
      <trkpt lat="47.85894" lon="1.87979">
        <ele>93</ele>
        <time>2013-11-03T15:43:08Z</time>
      </trkpt>
      <trkpt lat="47.85891" lon="1.87973">
        <ele>92</ele>
        <time>2013-11-03T15:43:11Z</time>
      </trkpt>
      <trkpt lat="47.85885" lon="1.87963">
        <ele>94</ele>
        <time>2013-11-03T15:43:18Z</time>
      </trkpt>
      <trkpt lat="47.85881" lon="1.87957">
        <ele>97</ele>
        <time>2013-11-03T15:43:21Z</time>
      </trkpt>
      <trkpt lat="47.85878" lon="1.87951">
        <ele>99</ele>
        <time>2013-11-03T15:43:24Z</time>
      </trkpt>
      <trkpt lat="47.85875" lon="1.87944">
        <ele>98</ele>
        <time>2013-11-03T15:43:27Z</time>
      </trkpt>
      <trkpt lat="47.85871" lon="1.87939">
        <ele>98</ele>
        <time>2013-11-03T15:43:30Z</time>
      </trkpt>
      <trkpt lat="47.85867" lon="1.87934">
        <ele>96</ele>
        <time>2013-11-03T15:43:34Z</time>
      </trkpt>
      <trkpt lat="47.85863" lon="1.87927">
        <ele>95</ele>
        <time>2013-11-03T15:43:38Z</time>
      </trkpt>
      <trkpt lat="47.85859" lon="1.87921">
        <ele>95</ele>
        <time>2013-11-03T15:43:42Z</time>
      </trkpt>
      <trkpt lat="47.85856" lon="1.87916">
        <ele>97</ele>
        <time>2013-11-03T15:43:45Z</time>
      </trkpt>
      <trkpt lat="47.85852" lon="1.87909">
        <ele>98</ele>
        <time>2013-11-03T15:43:49Z</time>
      </trkpt>
      <trkpt lat="47.85849" lon="1.87903">
        <ele>98</ele>
        <time>2013-11-03T15:43:53Z</time>
      </trkpt>
      <trkpt lat="47.85841" lon="1.87892">
        <ele>97</ele>
        <time>2013-11-03T15:44:01Z</time>
      </trkpt>
      <trkpt lat="47.85837" lon="1.87888">
        <ele>97</ele>
        <time>2013-11-03T15:44:02Z</time>
      </trkpt>
      <trkpt lat="47.85833" lon="1.87883">
        <ele>96</ele>
        <time>2013-11-03T15:44:04Z</time>
      </trkpt>
      <trkpt lat="47.85829" lon="1.87879">
        <ele>94</ele>
        <time>2013-11-03T15:44:10Z</time>
      </trkpt>
      <trkpt lat="47.85826" lon="1.87872">
        <ele>99</ele>
        <time>2013-11-03T15:44:16Z</time>
      </trkpt>
      <trkpt lat="47.85823" lon="1.87867">
        <ele>101</ele>
        <time>2013-11-03T15:44:19Z</time>
      </trkpt>
      <trkpt lat="47.8582" lon="1.87862">
        <ele>100</ele>
        <time>2013-11-03T15:44:22Z</time>
      </trkpt>
      <trkpt lat="47.85815" lon="1.87858">
        <ele>99</ele>
        <time>2013-11-03T15:44:28Z</time>
      </trkpt>
      <trkpt lat="47.85813" lon="1.87852">
        <ele>100</ele>
        <time>2013-11-03T15:44:31Z</time>
      </trkpt>
      <trkpt lat="47.85806" lon="1.87839">
        <ele>100</ele>
        <time>2013-11-03T15:44:37Z</time>
      </trkpt>
      <trkpt lat="47.85803" lon="1.87834">
        <ele>97</ele>
        <time>2013-11-03T15:44:40Z</time>
      </trkpt>
      <trkpt lat="47.85799" lon="1.87829">
        <ele>98</ele>
        <time>2013-11-03T15:44:43Z</time>
      </trkpt>
      <trkpt lat="47.85795" lon="1.87824">
        <ele>98</ele>
        <time>2013-11-03T15:44:46Z</time>
      </trkpt>
      <trkpt lat="47.85791" lon="1.87819">
        <ele>100</ele>
        <time>2013-11-03T15:44:49Z</time>
      </trkpt>
      <trkpt lat="47.85787" lon="1.87813">
        <ele>99</ele>
        <time>2013-11-03T15:44:53Z</time>
      </trkpt>
      <trkpt lat="47.85784" lon="1.87808">
        <ele>98</ele>
        <time>2013-11-03T15:44:57Z</time>
      </trkpt>
      <trkpt lat="47.8578" lon="1.87803">
        <ele>97</ele>
        <time>2013-11-03T15:45:01Z</time>
      </trkpt>
      <trkpt lat="47.85777" lon="1.87798">
        <ele>94</ele>
        <time>2013-11-03T15:45:05Z</time>
      </trkpt>
      <trkpt lat="47.85773" lon="1.87792">
        <ele>93</ele>
        <time>2013-11-03T15:45:09Z</time>
      </trkpt>
      <trkpt lat="47.85766" lon="1.8778">
        <ele>89</ele>
        <time>2013-11-03T15:45:17Z</time>
      </trkpt>
      <trkpt lat="47.85762" lon="1.87774">
        <ele>88</ele>
        <time>2013-11-03T15:45:21Z</time>
      </trkpt>
      <trkpt lat="47.85758" lon="1.87768">
        <ele>90</ele>
        <time>2013-11-03T15:45:25Z</time>
      </trkpt>
      <trkpt lat="47.85754" lon="1.87764">
        <ele>89</ele>
        <time>2013-11-03T15:45:28Z</time>
      </trkpt>
      <trkpt lat="47.8575" lon="1.87758">
        <ele>90</ele>
        <time>2013-11-03T15:45:32Z</time>
      </trkpt>
      <trkpt lat="47.85747" lon="1.87753">
        <ele>92</ele>
        <time>2013-11-03T15:45:35Z</time>
      </trkpt>
      <trkpt lat="47.85743" lon="1.87748">
        <ele>92</ele>
        <time>2013-11-03T15:45:38Z</time>
      </trkpt>
      <trkpt lat="47.8574" lon="1.87743">
        <ele>92</ele>
        <time>2013-11-03T15:45:41Z</time>
      </trkpt>
      <trkpt lat="47.85737" lon="1.87739">
        <ele>92</ele>
        <time>2013-11-03T15:45:44Z</time>
      </trkpt>
      <trkpt lat="47.85734" lon="1.87733">
        <ele>93</ele>
        <time>2013-11-03T15:45:47Z</time>
      </trkpt>
      <trkpt lat="47.85726" lon="1.87722">
        <ele>93</ele>
        <time>2013-11-03T15:45:54Z</time>
      </trkpt>
      <trkpt lat="47.85723" lon="1.87718">
        <ele>94</ele>
        <time>2013-11-03T15:45:57Z</time>
      </trkpt>
      <trkpt lat="47.85718" lon="1.87712">
        <ele>93</ele>
        <time>2013-11-03T15:46:01Z</time>
      </trkpt>
      <trkpt lat="47.85715" lon="1.87707">
        <ele>93</ele>
        <time>2013-11-03T15:46:04Z</time>
      </trkpt>
      <trkpt lat="47.85711" lon="1.87701">
        <ele>92</ele>
        <time>2013-11-03T15:46:08Z</time>
      </trkpt>
      <trkpt lat="47.85706" lon="1.87695">
        <ele>93</ele>
        <time>2013-11-03T15:46:12Z</time>
      </trkpt>
      <trkpt lat="47.85703" lon="1.8769">
        <ele>93</ele>
        <time>2013-11-03T15:46:15Z</time>
      </trkpt>
      <trkpt lat="47.857" lon="1.87685">
        <ele>94</ele>
        <time>2013-11-03T15:46:18Z</time>
      </trkpt>
      <trkpt lat="47.85696" lon="1.8768">
        <ele>94</ele>
        <time>2013-11-03T15:46:21Z</time>
      </trkpt>
      <trkpt lat="47.85693" lon="1.87673">
        <ele>94</ele>
        <time>2013-11-03T15:46:25Z</time>
      </trkpt>
      <trkpt lat="47.85687" lon="1.87662">
        <ele>95</ele>
        <time>2013-11-03T15:46:32Z</time>
      </trkpt>
      <trkpt lat="47.85682" lon="1.87657">
        <ele>96</ele>
        <time>2013-11-03T15:46:36Z</time>
      </trkpt>
      <trkpt lat="47.85677" lon="1.87651">
        <ele>96</ele>
        <time>2013-11-03T15:46:40Z</time>
      </trkpt>
      <trkpt lat="47.85673" lon="1.87647">
        <ele>96</ele>
        <time>2013-11-03T15:46:44Z</time>
      </trkpt>
      <trkpt lat="47.85669" lon="1.87642">
        <ele>94</ele>
        <time>2013-11-03T15:46:48Z</time>
      </trkpt>
      <trkpt lat="47.85665" lon="1.87635">
        <ele>95</ele>
        <time>2013-11-03T15:46:52Z</time>
      </trkpt>
      <trkpt lat="47.85661" lon="1.87628">
        <ele>95</ele>
        <time>2013-11-03T15:46:56Z</time>
      </trkpt>
      <trkpt lat="47.85658" lon="1.87623">
        <ele>94</ele>
        <time>2013-11-03T15:46:59Z</time>
      </trkpt>
      <trkpt lat="47.85654" lon="1.87618">
        <ele>93</ele>
        <time>2013-11-03T15:47:02Z</time>
      </trkpt>
      <trkpt lat="47.85651" lon="1.87613">
        <ele>94</ele>
        <time>2013-11-03T15:47:05Z</time>
      </trkpt>
      <trkpt lat="47.85644" lon="1.87603">
        <ele>92</ele>
        <time>2013-11-03T15:47:12Z</time>
      </trkpt>
      <trkpt lat="47.8564" lon="1.87598">
        <ele>92</ele>
        <time>2013-11-03T15:47:16Z</time>
      </trkpt>
      <trkpt lat="47.85635" lon="1.87593">
        <ele>90</ele>
        <time>2013-11-03T15:47:20Z</time>
      </trkpt>
      <trkpt lat="47.85631" lon="1.87587">
        <ele>88</ele>
        <time>2013-11-03T15:47:24Z</time>
      </trkpt>
      <trkpt lat="47.85627" lon="1.87581">
        <ele>91</ele>
        <time>2013-11-03T15:47:28Z</time>
      </trkpt>
      <trkpt lat="47.85624" lon="1.87574">
        <ele>91</ele>
        <time>2013-11-03T15:47:32Z</time>
      </trkpt>
      <trkpt lat="47.85621" lon="1.87568">
        <ele>91</ele>
        <time>2013-11-03T15:47:36Z</time>
      </trkpt>
      <trkpt lat="47.85617" lon="1.87562">
        <ele>91</ele>
        <time>2013-11-03T15:47:39Z</time>
      </trkpt>
      <trkpt lat="47.85614" lon="1.87555">
        <ele>90</ele>
        <time>2013-11-03T15:47:43Z</time>
      </trkpt>
      <trkpt lat="47.85607" lon="1.87546">
        <ele>92</ele>
        <time>2013-11-03T15:47:49Z</time>
      </trkpt>
      <trkpt lat="47.85603" lon="1.87542">
        <ele>94</ele>
        <time>2013-11-03T15:47:52Z</time>
      </trkpt>
      <trkpt lat="47.856" lon="1.87537">
        <ele>92</ele>
        <time>2013-11-03T15:47:55Z</time>
      </trkpt>
      <trkpt lat="47.85595" lon="1.87532">
        <ele>95</ele>
        <time>2013-11-03T15:47:59Z</time>
      </trkpt>
      <trkpt lat="47.85592" lon="1.87527">
        <ele>94</ele>
        <time>2013-11-03T15:48:02Z</time>
      </trkpt>
      <trkpt lat="47.85588" lon="1.87521">
        <ele>96</ele>
        <time>2013-11-03T15:48:06Z</time>
      </trkpt>
      <trkpt lat="47.85584" lon="1.87516">
        <ele>95</ele>
        <time>2013-11-03T15:48:10Z</time>
      </trkpt>
      <trkpt lat="47.8558" lon="1.87511">
        <ele>95</ele>
        <time>2013-11-03T15:48:14Z</time>
      </trkpt>
      <trkpt lat="47.85576" lon="1.87505">
        <ele>96</ele>
        <time>2013-11-03T15:48:18Z</time>
      </trkpt>
      <trkpt lat="47.85568" lon="1.87494">
        <ele>94</ele>
        <time>2013-11-03T15:48:25Z</time>
      </trkpt>
      <trkpt lat="47.85565" lon="1.8749">
        <ele>94</ele>
        <time>2013-11-03T15:48:28Z</time>
      </trkpt>
      <trkpt lat="47.85561" lon="1.87485">
        <ele>95</ele>
        <time>2013-11-03T15:48:31Z</time>
      </trkpt>
      <trkpt lat="47.85558" lon="1.8748">
        <ele>94</ele>
        <time>2013-11-03T15:48:34Z</time>
      </trkpt>
      <trkpt lat="47.85554" lon="1.87475">
        <ele>94</ele>
        <time>2013-11-03T15:48:37Z</time>
      </trkpt>
      <trkpt lat="47.85551" lon="1.8747">
        <ele>95</ele>
        <time>2013-11-03T15:48:40Z</time>
      </trkpt>
      <trkpt lat="47.85548" lon="1.87465">
        <ele>93</ele>
        <time>2013-11-03T15:48:43Z</time>
      </trkpt>
      <trkpt lat="47.85545" lon="1.8746">
        <ele>93</ele>
        <time>2013-11-03T15:48:46Z</time>
      </trkpt>
      <trkpt lat="47.85542" lon="1.87455">
        <ele>93</ele>
        <time>2013-11-03T15:48:49Z</time>
      </trkpt>
      <trkpt lat="47.85538" lon="1.87449">
        <ele>93</ele>
        <time>2013-11-03T15:48:52Z</time>
      </trkpt>
      <trkpt lat="47.85535" lon="1.87443">
        <ele>90</ele>
        <time>2013-11-03T15:48:56Z</time>
      </trkpt>
      <trkpt lat="47.85533" lon="1.8743">
        <ele>89</ele>
        <time>2013-11-03T15:49:05Z</time>
      </trkpt>
      <trkpt lat="47.85535" lon="1.87424">
        <ele>91</ele>
        <time>2013-11-03T15:49:10Z</time>
      </trkpt>
      <trkpt lat="47.8554" lon="1.87418">
        <ele>91</ele>
        <time>2013-11-03T15:49:15Z</time>
      </trkpt>
      <trkpt lat="47.85544" lon="1.87413">
        <ele>92</ele>
        <time>2013-11-03T15:49:20Z</time>
      </trkpt>
      <trkpt lat="47.85547" lon="1.87408">
        <ele>92</ele>
        <time>2013-11-03T15:49:24Z</time>
      </trkpt>
      <trkpt lat="47.85551" lon="1.87402">
        <ele>93</ele>
        <time>2013-11-03T15:49:29Z</time>
      </trkpt>
      <trkpt lat="47.85553" lon="1.87395">
        <ele>96</ele>
        <time>2013-11-03T15:49:33Z</time>
      </trkpt>
      <trkpt lat="47.85556" lon="1.87388">
        <ele>95</ele>
        <time>2013-11-03T15:49:37Z</time>
      </trkpt>
      <trkpt lat="47.85566" lon="1.87371">
        <ele>93</ele>
        <time>2013-11-03T15:49:47Z</time>
      </trkpt>
      <trkpt lat="47.85569" lon="1.87364">
        <ele>93</ele>
        <time>2013-11-03T15:49:51Z</time>
      </trkpt>
      <trkpt lat="47.85571" lon="1.87356">
        <ele>96</ele>
        <time>2013-11-03T15:49:55Z</time>
      </trkpt>
      <trkpt lat="47.85572" lon="1.8735">
        <ele>97</ele>
        <time>2013-11-03T15:49:58Z</time>
      </trkpt>
      <trkpt lat="47.85576" lon="1.87345">
        <ele>97</ele>
        <time>2013-11-03T15:50:01Z</time>
      </trkpt>
      <trkpt lat="47.85577" lon="1.87338">
        <ele>94</ele>
        <time>2013-11-03T15:50:04Z</time>
      </trkpt>
      <trkpt lat="47.8558" lon="1.87332">
        <ele>92</ele>
        <time>2013-11-03T15:50:07Z</time>
      </trkpt>
      <trkpt lat="47.85585" lon="1.87327">
        <ele>94</ele>
        <time>2013-11-03T15:50:11Z</time>
      </trkpt>
      <trkpt lat="47.85588" lon="1.87321">
        <ele>95</ele>
        <time>2013-11-03T15:50:15Z</time>
      </trkpt>
      <trkpt lat="47.85592" lon="1.87315">
        <ele>95</ele>
        <time>2013-11-03T15:50:19Z</time>
      </trkpt>
      <trkpt lat="47.85598" lon="1.87304">
        <ele>93</ele>
        <time>2013-11-03T15:50:25Z</time>
      </trkpt>
      <trkpt lat="47.85601" lon="1.87298">
        <ele>92</ele>
        <time>2013-11-03T15:50:28Z</time>
      </trkpt>
      <trkpt lat="47.85604" lon="1.87292">
        <ele>93</ele>
        <time>2013-11-03T15:50:31Z</time>
      </trkpt>
      <trkpt lat="47.85606" lon="1.87286">
        <ele>91</ele>
        <time>2013-11-03T15:50:34Z</time>
      </trkpt>
      <trkpt lat="47.85608" lon="1.8728">
        <ele>94</ele>
        <time>2013-11-03T15:50:37Z</time>
      </trkpt>
      <trkpt lat="47.8561" lon="1.87274">
        <ele>94</ele>
        <time>2013-11-03T15:50:40Z</time>
      </trkpt>
      <trkpt lat="47.85614" lon="1.87267">
        <ele>96</ele>
        <time>2013-11-03T15:50:44Z</time>
      </trkpt>
      <trkpt lat="47.85617" lon="1.87262">
        <ele>95</ele>
        <time>2013-11-03T15:50:47Z</time>
      </trkpt>
      <trkpt lat="47.85621" lon="1.87258">
        <ele>94</ele>
        <time>2013-11-03T15:50:50Z</time>
      </trkpt>
      <trkpt lat="47.85624" lon="1.87253">
        <ele>94</ele>
        <time>2013-11-03T15:50:53Z</time>
      </trkpt>
      <trkpt lat="47.85627" lon="1.87249">
        <ele>94</ele>
        <time>2013-11-03T15:50:56Z</time>
      </trkpt>
      <trkpt lat="47.85636" lon="1.87242">
        <ele>95</ele>
        <time>2013-11-03T15:51:03Z</time>
      </trkpt>
      <trkpt lat="47.8564" lon="1.87237">
        <ele>95</ele>
        <time>2013-11-03T15:51:06Z</time>
      </trkpt>
      <trkpt lat="47.85643" lon="1.87232">
        <ele>95</ele>
        <time>2013-11-03T15:51:09Z</time>
      </trkpt>
      <trkpt lat="47.85647" lon="1.87227">
        <ele>97</ele>
        <time>2013-11-03T15:51:12Z</time>
      </trkpt>
      <trkpt lat="47.85651" lon="1.87221">
        <ele>96</ele>
        <time>2013-11-03T15:51:15Z</time>
      </trkpt>
      <trkpt lat="47.85655" lon="1.87217">
        <ele>94</ele>
        <time>2013-11-03T15:51:18Z</time>
      </trkpt>
      <trkpt lat="47.85659" lon="1.87211">
        <ele>95</ele>
        <time>2013-11-03T15:51:22Z</time>
      </trkpt>
      <trkpt lat="47.85664" lon="1.87207">
        <ele>97</ele>
        <time>2013-11-03T15:51:26Z</time>
      </trkpt>
      <trkpt lat="47.85668" lon="1.87201">
        <ele>98</ele>
        <time>2013-11-03T15:51:29Z</time>
      </trkpt>
      <trkpt lat="47.85671" lon="1.87196">
        <ele>96</ele>
        <time>2013-11-03T15:51:32Z</time>
      </trkpt>
      <trkpt lat="47.85675" lon="1.87191">
        <ele>96</ele>
        <time>2013-11-03T15:51:35Z</time>
      </trkpt>
      <trkpt lat="47.85678" lon="1.87186">
        <ele>95</ele>
        <time>2013-11-03T15:51:38Z</time>
      </trkpt>
      <trkpt lat="47.85682" lon="1.8718">
        <ele>94</ele>
        <time>2013-11-03T15:51:42Z</time>
      </trkpt>
      <trkpt lat="47.85686" lon="1.87174">
        <ele>94</ele>
        <time>2013-11-03T15:51:46Z</time>
      </trkpt>
      <trkpt lat="47.85689" lon="1.87168">
        <ele>94</ele>
        <time>2013-11-03T15:51:49Z</time>
      </trkpt>
      <trkpt lat="47.85692" lon="1.87163">
        <ele>95</ele>
        <time>2013-11-03T15:51:52Z</time>
      </trkpt>
      <trkpt lat="47.85696" lon="1.87159">
        <ele>93</ele>
        <time>2013-11-03T15:51:55Z</time>
      </trkpt>
      <trkpt lat="47.857" lon="1.87155">
        <ele>93</ele>
        <time>2013-11-03T15:51:58Z</time>
      </trkpt>
      <trkpt lat="47.85708" lon="1.87144">
        <ele>93</ele>
        <time>2013-11-03T15:52:06Z</time>
      </trkpt>
      <trkpt lat="47.85714" lon="1.8714">
        <ele>93</ele>
        <time>2013-11-03T15:52:10Z</time>
      </trkpt>
      <trkpt lat="47.85718" lon="1.87135">
        <ele>94</ele>
        <time>2013-11-03T15:52:14Z</time>
      </trkpt>
      <trkpt lat="47.85723" lon="1.87132">
        <ele>93</ele>
        <time>2013-11-03T15:52:18Z</time>
      </trkpt>
      <trkpt lat="47.85727" lon="1.87128">
        <ele>95</ele>
        <time>2013-11-03T15:52:22Z</time>
      </trkpt>
      <trkpt lat="47.85731" lon="1.87124">
        <ele>94</ele>
        <time>2013-11-03T15:52:27Z</time>
      </trkpt>
      <trkpt lat="47.85735" lon="1.87122">
        <ele>94</ele>
        <time>2013-11-03T15:52:30Z</time>
      </trkpt>
      <trkpt lat="47.85739" lon="1.87115">
        <ele>96</ele>
        <time>2013-11-03T15:52:34Z</time>
      </trkpt>
      <trkpt lat="47.85743" lon="1.87109">
        <ele>97</ele>
        <time>2013-11-03T15:52:38Z</time>
      </trkpt>
      <trkpt lat="47.85749" lon="1.87096">
        <ele>93</ele>
        <time>2013-11-03T15:52:45Z</time>
      </trkpt>
      <trkpt lat="47.85754" lon="1.87091">
        <ele>92</ele>
        <time>2013-11-03T15:52:49Z</time>
      </trkpt>
      <trkpt lat="47.85759" lon="1.8709">
        <ele>88</ele>
        <time>2013-11-03T15:52:52Z</time>
      </trkpt>
      <trkpt lat="47.85764" lon="1.87087">
        <ele>89</ele>
        <time>2013-11-03T15:52:55Z</time>
      </trkpt>
      <trkpt lat="47.85766" lon="1.8708">
        <ele>90</ele>
        <time>2013-11-03T15:52:58Z</time>
      </trkpt>
      <trkpt lat="47.8577" lon="1.87074">
        <ele>86</ele>
        <time>2013-11-03T15:53:01Z</time>
      </trkpt>
      <trkpt lat="47.85774" lon="1.87069">
        <ele>85</ele>
        <time>2013-11-03T15:53:04Z</time>
      </trkpt>
      <trkpt lat="47.85778" lon="1.87065">
        <ele>84</ele>
        <time>2013-11-03T15:53:07Z</time>
      </trkpt>
      <trkpt lat="47.85783" lon="1.87062">
        <ele>87</ele>
        <time>2013-11-03T15:53:10Z</time>
      </trkpt>
      <trkpt lat="47.85787" lon="1.87058">
        <ele>88</ele>
        <time>2013-11-03T15:53:13Z</time>
      </trkpt>
      <trkpt lat="47.85791" lon="1.87055">
        <ele>91</ele>
        <time>2013-11-03T15:53:16Z</time>
      </trkpt>
      <trkpt lat="47.85795" lon="1.8705">
        <ele>91</ele>
        <time>2013-11-03T15:53:20Z</time>
      </trkpt>
      <trkpt lat="47.858" lon="1.87044">
        <ele>89</ele>
        <time>2013-11-03T15:53:24Z</time>
      </trkpt>
      <trkpt lat="47.85804" lon="1.87039">
        <ele>90</ele>
        <time>2013-11-03T15:53:28Z</time>
      </trkpt>
      <trkpt lat="47.85807" lon="1.87032">
        <ele>93</ele>
        <time>2013-11-03T15:53:32Z</time>
      </trkpt>
      <trkpt lat="47.85813" lon="1.87019">
        <ele>90</ele>
        <time>2013-11-03T15:53:41Z</time>
      </trkpt>
      <trkpt lat="47.85817" lon="1.87014">
        <ele>94</ele>
        <time>2013-11-03T15:53:45Z</time>
      </trkpt>
      <trkpt lat="47.85821" lon="1.87009">
        <ele>93</ele>
        <time>2013-11-03T15:53:49Z</time>
      </trkpt>
      <trkpt lat="47.85824" lon="1.87003">
        <ele>91</ele>
        <time>2013-11-03T15:53:53Z</time>
      </trkpt>
      <trkpt lat="47.85828" lon="1.86998">
        <ele>90</ele>
        <time>2013-11-03T15:53:58Z</time>
      </trkpt>
      <trkpt lat="47.85833" lon="1.86995">
        <ele>90</ele>
        <time>2013-11-03T15:54:02Z</time>
      </trkpt>
      <trkpt lat="47.85838" lon="1.86991">
        <ele>89</ele>
        <time>2013-11-03T15:54:06Z</time>
      </trkpt>
      <trkpt lat="47.85843" lon="1.86986">
        <ele>91</ele>
        <time>2013-11-03T15:54:10Z</time>
      </trkpt>
      <trkpt lat="47.85848" lon="1.86982">
        <ele>92</ele>
        <time>2013-11-03T15:54:14Z</time>
      </trkpt>
      <trkpt lat="47.85856" lon="1.8697">
        <ele>93</ele>
        <time>2013-11-03T15:54:22Z</time>
      </trkpt>
      <trkpt lat="47.85859" lon="1.86963">
        <ele>94</ele>
        <time>2013-11-03T15:54:26Z</time>
      </trkpt>
      <trkpt lat="47.85862" lon="1.86957">
        <ele>95</ele>
        <time>2013-11-03T15:54:30Z</time>
      </trkpt>
      <trkpt lat="47.85867" lon="1.86953">
        <ele>92</ele>
        <time>2013-11-03T15:54:35Z</time>
      </trkpt>
      <trkpt lat="47.85871" lon="1.86948">
        <ele>91</ele>
        <time>2013-11-03T15:54:40Z</time>
      </trkpt>
      <trkpt lat="47.85874" lon="1.86942">
        <ele>90</ele>
        <time>2013-11-03T15:54:44Z</time>
      </trkpt>
      <trkpt lat="47.85878" lon="1.86939">
        <ele>90</ele>
        <time>2013-11-03T15:54:48Z</time>
      </trkpt>
      <trkpt lat="47.85882" lon="1.86933">
        <ele>92</ele>
        <time>2013-11-03T15:54:53Z</time>
      </trkpt>
      <trkpt lat="47.85893" lon="1.86918">
        <ele>93</ele>
        <time>2013-11-03T15:56:05Z</time>
      </trkpt>
      <trkpt lat="47.85893" lon="1.86917">
        <ele>93</ele>
        <time>2013-11-03T15:56:20Z</time>
      </trkpt>
      <trkpt lat="47.85892" lon="1.86916">
        <ele>94</ele>
        <time>2013-11-03T15:56:35Z</time>
      </trkpt>
      <trkpt lat="47.85865" lon="1.86855">
        <ele>97</ele>
        <time>2013-11-03T15:57:39Z</time>
      </trkpt>
      <trkpt lat="47.85861" lon="1.86849">
        <ele>96</ele>
        <time>2013-11-03T15:57:43Z</time>
      </trkpt>
      <trkpt lat="47.85858" lon="1.86844">
        <ele>94</ele>
        <time>2013-11-03T15:57:46Z</time>
      </trkpt>
      <trkpt lat="47.85855" lon="1.86837">
        <ele>94</ele>
        <time>2013-11-03T15:57:50Z</time>
      </trkpt>
      <trkpt lat="47.85853" lon="1.8683">
        <ele>94</ele>
        <time>2013-11-03T15:57:54Z</time>
      </trkpt>
      <trkpt lat="47.85849" lon="1.86824">
        <ele>94</ele>
        <time>2013-11-03T15:57:58Z</time>
      </trkpt>
      <trkpt lat="47.85846" lon="1.86818">
        <ele>93</ele>
        <time>2013-11-03T15:58:02Z</time>
      </trkpt>
      <trkpt lat="47.85843" lon="1.86813">
        <ele>90</ele>
        <time>2013-11-03T15:58:06Z</time>
      </trkpt>
      <trkpt lat="47.8584" lon="1.86806">
        <ele>88</ele>
        <time>2013-11-03T15:58:11Z</time>
      </trkpt>
      <trkpt lat="47.85834" lon="1.86793">
        <ele>89</ele>
        <time>2013-11-03T15:58:18Z</time>
      </trkpt>
      <trkpt lat="47.85831" lon="1.86785">
        <ele>89</ele>
        <time>2013-11-03T15:58:21Z</time>
      </trkpt>
      <trkpt lat="47.85828" lon="1.86779">
        <ele>91</ele>
        <time>2013-11-03T15:58:24Z</time>
      </trkpt>
      <trkpt lat="47.85825" lon="1.86773">
        <ele>92</ele>
        <time>2013-11-03T15:58:28Z</time>
      </trkpt>
      <trkpt lat="47.8582" lon="1.86768">
        <ele>96</ele>
        <time>2013-11-03T15:58:32Z</time>
      </trkpt>
      <trkpt lat="47.85815" lon="1.86763">
        <ele>100</ele>
        <time>2013-11-03T15:58:35Z</time>
      </trkpt>
      <trkpt lat="47.85811" lon="1.86757">
        <ele>101</ele>
        <time>2013-11-03T15:58:39Z</time>
      </trkpt>
      <trkpt lat="47.85807" lon="1.8675">
        <ele>101</ele>
        <time>2013-11-03T15:58:43Z</time>
      </trkpt>
      <trkpt lat="47.85804" lon="1.86745">
        <ele>101</ele>
        <time>2013-11-03T15:58:47Z</time>
      </trkpt>
      <trkpt lat="47.85798" lon="1.86732">
        <ele>102</ele>
        <time>2013-11-03T15:58:55Z</time>
      </trkpt>
      <trkpt lat="47.85796" lon="1.86725">
        <ele>101</ele>
        <time>2013-11-03T15:59:00Z</time>
      </trkpt>
      <trkpt lat="47.85794" lon="1.86718">
        <ele>100</ele>
        <time>2013-11-03T15:59:04Z</time>
      </trkpt>
      <trkpt lat="47.8579" lon="1.86712">
        <ele>102</ele>
        <time>2013-11-03T15:59:08Z</time>
      </trkpt>
      <trkpt lat="47.85786" lon="1.86706">
        <ele>103</ele>
        <time>2013-11-03T15:59:12Z</time>
      </trkpt>
      <trkpt lat="47.85784" lon="1.867">
        <ele>102</ele>
        <time>2013-11-03T15:59:16Z</time>
      </trkpt>
      <trkpt lat="47.85781" lon="1.86693">
        <ele>99</ele>
        <time>2013-11-03T15:59:20Z</time>
      </trkpt>
      <trkpt lat="47.85777" lon="1.86686">
        <ele>99</ele>
        <time>2013-11-03T15:59:24Z</time>
      </trkpt>
      <trkpt lat="47.85773" lon="1.8668">
        <ele>95</ele>
        <time>2013-11-03T15:59:28Z</time>
      </trkpt>
      <trkpt lat="47.85766" lon="1.86669">
        <ele>101</ele>
        <time>2013-11-03T15:59:36Z</time>
      </trkpt>
      <trkpt lat="47.85763" lon="1.86664">
        <ele>102</ele>
        <time>2013-11-03T15:59:40Z</time>
      </trkpt>
      <trkpt lat="47.85759" lon="1.86659">
        <ele>99</ele>
        <time>2013-11-03T15:59:44Z</time>
      </trkpt>
      <trkpt lat="47.85757" lon="1.86653">
        <ele>100</ele>
        <time>2013-11-03T15:59:47Z</time>
      </trkpt>
      <trkpt lat="47.85755" lon="1.86647">
        <ele>104</ele>
        <time>2013-11-03T15:59:50Z</time>
      </trkpt>
      <trkpt lat="47.85752" lon="1.86641">
        <ele>103</ele>
        <time>2013-11-03T15:59:54Z</time>
      </trkpt>
      <trkpt lat="47.85749" lon="1.86635">
        <ele>103</ele>
        <time>2013-11-03T15:59:57Z</time>
      </trkpt>
      <trkpt lat="47.85745" lon="1.8663">
        <ele>101</ele>
        <time>2013-11-03T16:00:00Z</time>
      </trkpt>
      <trkpt lat="47.85741" lon="1.86626">
        <ele>103</ele>
        <time>2013-11-03T16:00:03Z</time>
      </trkpt>
      <trkpt lat="47.85737" lon="1.8662">
        <ele>109</ele>
        <time>2013-11-03T16:00:07Z</time>
      </trkpt>
      <trkpt lat="47.85729" lon="1.86608">
        <ele>109</ele>
        <time>2013-11-03T16:00:16Z</time>
      </trkpt>
      <trkpt lat="47.85725" lon="1.86602">
        <ele>111</ele>
        <time>2013-11-03T16:00:20Z</time>
      </trkpt>
      <trkpt lat="47.85721" lon="1.86597">
        <ele>111</ele>
        <time>2013-11-03T16:00:23Z</time>
      </trkpt>
      <trkpt lat="47.85718" lon="1.86591">
        <ele>108</ele>
        <time>2013-11-03T16:00:26Z</time>
      </trkpt>
      <trkpt lat="47.85715" lon="1.86584">
        <ele>107</ele>
        <time>2013-11-03T16:00:29Z</time>
      </trkpt>
      <trkpt lat="47.85711" lon="1.86579">
        <ele>103</ele>
        <time>2013-11-03T16:00:32Z</time>
      </trkpt>
      <trkpt lat="47.85708" lon="1.86573">
        <ele>104</ele>
        <time>2013-11-03T16:00:36Z</time>
      </trkpt>
      <trkpt lat="47.85705" lon="1.86567">
        <ele>102</ele>
        <time>2013-11-03T16:00:39Z</time>
      </trkpt>
      <trkpt lat="47.85702" lon="1.86561">
        <ele>103</ele>
        <time>2013-11-03T16:00:42Z</time>
      </trkpt>
      <trkpt lat="47.857" lon="1.86553">
        <ele>104</ele>
        <time>2013-11-03T16:00:46Z</time>
      </trkpt>
      <trkpt lat="47.85697" lon="1.86547">
        <ele>104</ele>
        <time>2013-11-03T16:00:50Z</time>
      </trkpt>
      <trkpt lat="47.8569" lon="1.86537">
        <ele>101</ele>
        <time>2013-11-03T16:01:01Z</time>
      </trkpt>
      <trkpt lat="47.85686" lon="1.86531">
        <ele>103</ele>
        <time>2013-11-03T16:01:05Z</time>
      </trkpt>
      <trkpt lat="47.85683" lon="1.86525">
        <ele>100</ele>
        <time>2013-11-03T16:01:09Z</time>
      </trkpt>
      <trkpt lat="47.8568" lon="1.86518">
        <ele>97</ele>
        <time>2013-11-03T16:01:13Z</time>
      </trkpt>
      <trkpt lat="47.85677" lon="1.86512">
        <ele>99</ele>
        <time>2013-11-03T16:01:16Z</time>
      </trkpt>
      <trkpt lat="47.85674" lon="1.86506">
        <ele>97</ele>
        <time>2013-11-03T16:01:19Z</time>
      </trkpt>
      <trkpt lat="47.85671" lon="1.865">
        <ele>97</ele>
        <time>2013-11-03T16:01:23Z</time>
      </trkpt>
      <trkpt lat="47.85668" lon="1.86494">
        <ele>95</ele>
        <time>2013-11-03T16:01:28Z</time>
      </trkpt>
      <trkpt lat="47.85665" lon="1.86489">
        <ele>95</ele>
        <time>2013-11-03T16:01:33Z</time>
      </trkpt>
      <trkpt lat="47.85657" lon="1.86479">
        <ele>93</ele>
        <time>2013-11-03T16:01:40Z</time>
      </trkpt>
      <trkpt lat="47.85653" lon="1.86472">
        <ele>93</ele>
        <time>2013-11-03T16:01:44Z</time>
      </trkpt>
      <trkpt lat="47.8565" lon="1.86467">
        <ele>95</ele>
        <time>2013-11-03T16:01:47Z</time>
      </trkpt>
      <trkpt lat="47.85646" lon="1.86462">
        <ele>97</ele>
        <time>2013-11-03T16:01:50Z</time>
      </trkpt>
      <trkpt lat="47.85642" lon="1.86456">
        <ele>97</ele>
        <time>2013-11-03T16:01:53Z</time>
      </trkpt>
      <trkpt lat="47.85638" lon="1.86451">
        <ele>100</ele>
        <time>2013-11-03T16:01:56Z</time>
      </trkpt>
      <trkpt lat="47.85634" lon="1.86444">
        <ele>104</ele>
        <time>2013-11-03T16:02:00Z</time>
      </trkpt>
      <trkpt lat="47.85629" lon="1.8644">
        <ele>108</ele>
        <time>2013-11-03T16:02:03Z</time>
      </trkpt>
      <trkpt lat="47.85625" lon="1.86434">
        <ele>106</ele>
        <time>2013-11-03T16:02:06Z</time>
      </trkpt>
      <trkpt lat="47.85623" lon="1.86428">
        <ele>102</ele>
        <time>2013-11-03T16:02:09Z</time>
      </trkpt>
      <trkpt lat="47.85622" lon="1.8642">
        <ele>102</ele>
        <time>2013-11-03T16:02:13Z</time>
      </trkpt>
      <trkpt lat="47.85618" lon="1.86415">
        <ele>101</ele>
        <time>2013-11-03T16:02:17Z</time>
      </trkpt>
      <trkpt lat="47.85615" lon="1.8641">
        <ele>101</ele>
        <time>2013-11-03T16:02:20Z</time>
      </trkpt>
      <trkpt lat="47.85611" lon="1.86397">
        <ele>100</ele>
        <time>2013-11-03T16:02:28Z</time>
      </trkpt>
      <trkpt lat="47.85607" lon="1.86393">
        <ele>102</ele>
        <time>2013-11-03T16:02:33Z</time>
      </trkpt>
      <trkpt lat="47.85602" lon="1.86385">
        <ele>102</ele>
        <time>2013-11-03T16:02:37Z</time>
      </trkpt>
      <trkpt lat="47.85599" lon="1.86378">
        <ele>97</ele>
        <time>2013-11-03T16:02:40Z</time>
      </trkpt>
      <trkpt lat="47.85595" lon="1.86373">
        <ele>98</ele>
        <time>2013-11-03T16:02:45Z</time>
      </trkpt>
      <trkpt lat="47.85592" lon="1.86365">
        <ele>101</ele>
        <time>2013-11-03T16:02:49Z</time>
      </trkpt>
      <trkpt lat="47.85589" lon="1.86361">
        <ele>103</ele>
        <time>2013-11-03T16:02:51Z</time>
      </trkpt>
      <trkpt lat="47.85584" lon="1.86354">
        <ele>104</ele>
        <time>2013-11-03T16:02:54Z</time>
      </trkpt>
      <trkpt lat="47.8558" lon="1.86348">
        <ele>106</ele>
        <time>2013-11-03T16:02:57Z</time>
      </trkpt>
      <trkpt lat="47.85577" lon="1.86342">
        <ele>105</ele>
        <time>2013-11-03T16:03:00Z</time>
      </trkpt>
      <trkpt lat="47.85574" lon="1.86338">
        <ele>107</ele>
        <time>2013-11-03T16:03:03Z</time>
      </trkpt>
      <trkpt lat="47.85569" lon="1.86331">
        <ele>111</ele>
        <time>2013-11-03T16:03:07Z</time>
      </trkpt>
      <trkpt lat="47.85566" lon="1.86325">
        <ele>112</ele>
        <time>2013-11-03T16:03:10Z</time>
      </trkpt>
      <trkpt lat="47.85563" lon="1.8632">
        <ele>112</ele>
        <time>2013-11-03T16:03:13Z</time>
      </trkpt>
      <trkpt lat="47.85561" lon="1.86314">
        <ele>116</ele>
        <time>2013-11-03T16:03:18Z</time>
      </trkpt>
      <trkpt lat="47.85556" lon="1.86309">
        <ele>115</ele>
        <time>2013-11-03T16:03:22Z</time>
      </trkpt>
      <trkpt lat="47.8555" lon="1.8629">
        <ele>107</ele>
        <time>2013-11-03T16:03:35Z</time>
      </trkpt>
      <trkpt lat="47.85545" lon="1.86287">
        <ele>106</ele>
        <time>2013-11-03T16:03:40Z</time>
      </trkpt>
      <trkpt lat="47.8554" lon="1.86284">
        <ele>105</ele>
        <time>2013-11-03T16:03:43Z</time>
      </trkpt>
      <trkpt lat="47.85534" lon="1.86283">
        <ele>106</ele>
        <time>2013-11-03T16:03:46Z</time>
      </trkpt>
      <trkpt lat="47.85528" lon="1.86285">
        <ele>107</ele>
        <time>2013-11-03T16:03:49Z</time>
      </trkpt>
      <trkpt lat="47.85523" lon="1.86284">
        <ele>108</ele>
        <time>2013-11-03T16:03:52Z</time>
      </trkpt>
      <trkpt lat="47.85519" lon="1.86284">
        <ele>108</ele>
        <time>2013-11-03T16:03:55Z</time>
      </trkpt>
      <trkpt lat="47.85514" lon="1.86285">
        <ele>107</ele>
        <time>2013-11-03T16:03:58Z</time>
      </trkpt>
      <trkpt lat="47.85509" lon="1.86284">
        <ele>105</ele>
        <time>2013-11-03T16:04:02Z</time>
      </trkpt>
      <trkpt lat="47.85503" lon="1.86285">
        <ele>106</ele>
        <time>2013-11-03T16:04:08Z</time>
      </trkpt>
      <trkpt lat="47.85494" lon="1.86284">
        <ele>100</ele>
        <time>2013-11-03T16:04:19Z</time>
      </trkpt>
      <trkpt lat="47.85489" lon="1.86286">
        <ele>103</ele>
        <time>2013-11-03T16:04:23Z</time>
      </trkpt>
      <trkpt lat="47.85484" lon="1.86287">
        <ele>99</ele>
        <time>2013-11-03T16:04:27Z</time>
      </trkpt>
      <trkpt lat="47.85478" lon="1.86287">
        <ele>99</ele>
        <time>2013-11-03T16:04:32Z</time>
      </trkpt>
      <trkpt lat="47.85473" lon="1.86288">
        <ele>97</ele>
        <time>2013-11-03T16:04:36Z</time>
      </trkpt>
      <trkpt lat="47.85466" lon="1.8629">
        <ele>96</ele>
        <time>2013-11-03T16:04:40Z</time>
      </trkpt>
      <trkpt lat="47.85461" lon="1.86292">
        <ele>96</ele>
        <time>2013-11-03T16:04:43Z</time>
      </trkpt>
      <trkpt lat="47.85457" lon="1.86292">
        <ele>98</ele>
        <time>2013-11-03T16:04:46Z</time>
      </trkpt>
      <trkpt lat="47.85452" lon="1.86293">
        <ele>97</ele>
        <time>2013-11-03T16:04:49Z</time>
      </trkpt>
      <trkpt lat="47.85448" lon="1.86295">
        <ele>96</ele>
        <time>2013-11-03T16:04:52Z</time>
      </trkpt>
      <trkpt lat="47.85438" lon="1.86295">
        <ele>99</ele>
        <time>2013-11-03T16:04:59Z</time>
      </trkpt>
      <trkpt lat="47.85433" lon="1.86295">
        <ele>99</ele>
        <time>2013-11-03T16:05:03Z</time>
      </trkpt>
      <trkpt lat="47.85428" lon="1.86297">
        <ele>102</ele>
        <time>2013-11-03T16:05:07Z</time>
      </trkpt>
      <trkpt lat="47.85422" lon="1.86299">
        <ele>105</ele>
        <time>2013-11-03T16:05:10Z</time>
      </trkpt>
      <trkpt lat="47.85418" lon="1.86299">
        <ele>107</ele>
        <time>2013-11-03T16:05:13Z</time>
      </trkpt>
      <trkpt lat="47.85413" lon="1.86295">
        <ele>105</ele>
        <time>2013-11-03T16:05:17Z</time>
      </trkpt>
      <trkpt lat="47.85407" lon="1.86296">
        <ele>108</ele>
        <time>2013-11-03T16:05:21Z</time>
      </trkpt>
      <trkpt lat="47.85402" lon="1.86298">
        <ele>105</ele>
        <time>2013-11-03T16:05:25Z</time>
      </trkpt>
      <trkpt lat="47.85396" lon="1.863">
        <ele>104</ele>
        <time>2013-11-03T16:05:29Z</time>
      </trkpt>
      <trkpt lat="47.85391" lon="1.86299">
        <ele>105</ele>
        <time>2013-11-03T16:05:32Z</time>
      </trkpt>
      <trkpt lat="47.85382" lon="1.863">
        <ele>103</ele>
        <time>2013-11-03T16:05:38Z</time>
      </trkpt>
      <trkpt lat="47.85378" lon="1.86303">
        <ele>102</ele>
        <time>2013-11-03T16:05:41Z</time>
      </trkpt>
      <trkpt lat="47.85373" lon="1.86303">
        <ele>100</ele>
        <time>2013-11-03T16:05:45Z</time>
      </trkpt>
      <trkpt lat="47.85367" lon="1.86303">
        <ele>100</ele>
        <time>2013-11-03T16:05:49Z</time>
      </trkpt>
      <trkpt lat="47.85362" lon="1.86304">
        <ele>99</ele>
        <time>2013-11-03T16:05:52Z</time>
      </trkpt>
      <trkpt lat="47.85357" lon="1.86307">
        <ele>100</ele>
        <time>2013-11-03T16:05:55Z</time>
      </trkpt>
      <trkpt lat="47.85352" lon="1.86311">
        <ele>101</ele>
        <time>2013-11-03T16:05:58Z</time>
      </trkpt>
      <trkpt lat="47.85346" lon="1.8631">
        <ele>102</ele>
        <time>2013-11-03T16:06:02Z</time>
      </trkpt>
      <trkpt lat="47.8534" lon="1.86311">
        <ele>101</ele>
        <time>2013-11-03T16:06:06Z</time>
      </trkpt>
      <trkpt lat="47.85329" lon="1.86308">
        <ele>106</ele>
        <time>2013-11-03T16:06:15Z</time>
      </trkpt>
      <trkpt lat="47.85324" lon="1.86308">
        <ele>105</ele>
        <time>2013-11-03T16:06:19Z</time>
      </trkpt>
      <trkpt lat="47.85318" lon="1.86307">
        <ele>101</ele>
        <time>2013-11-03T16:06:23Z</time>
      </trkpt>
      <trkpt lat="47.85313" lon="1.86307">
        <ele>100</ele>
        <time>2013-11-03T16:06:27Z</time>
      </trkpt>
      <trkpt lat="47.85309" lon="1.86307">
        <ele>98</ele>
        <time>2013-11-03T16:06:32Z</time>
      </trkpt>
      <trkpt lat="47.85304" lon="1.86303">
        <ele>99</ele>
        <time>2013-11-03T16:06:36Z</time>
      </trkpt>
      <trkpt lat="47.85299" lon="1.86304">
        <ele>100</ele>
        <time>2013-11-03T16:06:40Z</time>
      </trkpt>
      <trkpt lat="47.85294" lon="1.86305">
        <ele>99</ele>
        <time>2013-11-03T16:06:43Z</time>
      </trkpt>
      <trkpt lat="47.85289" lon="1.86303">
        <ele>99</ele>
        <time>2013-11-03T16:06:46Z</time>
      </trkpt>
      <trkpt lat="47.85278" lon="1.86301">
        <ele>102</ele>
        <time>2013-11-03T16:06:54Z</time>
      </trkpt>
      <trkpt lat="47.85273" lon="1.86301">
        <ele>101</ele>
        <time>2013-11-03T16:06:58Z</time>
      </trkpt>
      <trkpt lat="47.85268" lon="1.86299">
        <ele>104</ele>
        <time>2013-11-03T16:07:03Z</time>
      </trkpt>
      <trkpt lat="47.85263" lon="1.863">
        <ele>103</ele>
        <time>2013-11-03T16:07:07Z</time>
      </trkpt>
      <trkpt lat="47.85259" lon="1.86302">
        <ele>106</ele>
        <time>2013-11-03T16:07:10Z</time>
      </trkpt>
      <trkpt lat="47.85254" lon="1.86304">
        <ele>106</ele>
        <time>2013-11-03T16:07:13Z</time>
      </trkpt>
      <trkpt lat="47.85248" lon="1.86306">
        <ele>106</ele>
        <time>2013-11-03T16:07:16Z</time>
      </trkpt>
      <trkpt lat="47.85242" lon="1.86308">
        <ele>104</ele>
        <time>2013-11-03T16:07:19Z</time>
      </trkpt>
      <trkpt lat="47.85237" lon="1.86309">
        <ele>101</ele>
        <time>2013-11-03T16:07:23Z</time>
      </trkpt>
      <trkpt lat="47.85231" lon="1.86311">
        <ele>98</ele>
        <time>2013-11-03T16:07:27Z</time>
      </trkpt>
      <trkpt lat="47.8522" lon="1.86311">
        <ele>100</ele>
        <time>2013-11-03T16:07:35Z</time>
      </trkpt>
      <trkpt lat="47.85215" lon="1.86309">
        <ele>101</ele>
        <time>2013-11-03T16:07:39Z</time>
      </trkpt>
      <trkpt lat="47.85214" lon="1.86302">
        <ele>101</ele>
        <time>2013-11-03T16:07:43Z</time>
      </trkpt>
      <trkpt lat="47.85209" lon="1.86303">
        <ele>103</ele>
        <time>2013-11-03T16:07:47Z</time>
      </trkpt>
      <trkpt lat="47.85203" lon="1.86302">
        <ele>100</ele>
        <time>2013-11-03T16:07:51Z</time>
      </trkpt>
      <trkpt lat="47.85197" lon="1.863">
        <ele>98</ele>
        <time>2013-11-03T16:07:55Z</time>
      </trkpt>
      <trkpt lat="47.85194" lon="1.86305">
        <ele>97</ele>
        <time>2013-11-03T16:07:58Z</time>
      </trkpt>
      <trkpt lat="47.85189" lon="1.86308">
        <ele>100</ele>
        <time>2013-11-03T16:08:01Z</time>
      </trkpt>
      <trkpt lat="47.85185" lon="1.86311">
        <ele>100</ele>
        <time>2013-11-03T16:08:04Z</time>
      </trkpt>
      <trkpt lat="47.8518" lon="1.86313">
        <ele>101</ele>
        <time>2013-11-03T16:08:07Z</time>
      </trkpt>
      <trkpt lat="47.85165" lon="1.86318">
        <ele>98</ele>
        <time>2013-11-03T16:08:16Z</time>
      </trkpt>
      <trkpt lat="47.85161" lon="1.8632">
        <ele>99</ele>
        <time>2013-11-03T16:08:19Z</time>
      </trkpt>
      <trkpt lat="47.85156" lon="1.86321">
        <ele>102</ele>
        <time>2013-11-03T16:08:22Z</time>
      </trkpt>
      <trkpt lat="47.85151" lon="1.8632">
        <ele>101</ele>
        <time>2013-11-03T16:08:25Z</time>
      </trkpt>
      <trkpt lat="47.85146" lon="1.86317">
        <ele>101</ele>
        <time>2013-11-03T16:08:28Z</time>
      </trkpt>
      <trkpt lat="47.85141" lon="1.86317">
        <ele>103</ele>
        <time>2013-11-03T16:08:31Z</time>
      </trkpt>
      <trkpt lat="47.85136" lon="1.86317">
        <ele>97</ele>
        <time>2013-11-03T16:08:36Z</time>
      </trkpt>
      <trkpt lat="47.8513" lon="1.86319">
        <ele>97</ele>
        <time>2013-11-03T16:08:40Z</time>
      </trkpt>
      <trkpt lat="47.85125" lon="1.86322">
        <ele>93</ele>
        <time>2013-11-03T16:08:44Z</time>
      </trkpt>
      <trkpt lat="47.8512" lon="1.86323">
        <ele>93</ele>
        <time>2013-11-03T16:08:48Z</time>
      </trkpt>
      <trkpt lat="47.8511" lon="1.86326">
        <ele>90</ele>
        <time>2013-11-03T16:08:55Z</time>
      </trkpt>
      <trkpt lat="47.85105" lon="1.86324">
        <ele>89</ele>
        <time>2013-11-03T16:08:59Z</time>
      </trkpt>
      <trkpt lat="47.851" lon="1.86325">
        <ele>91</ele>
        <time>2013-11-03T16:09:03Z</time>
      </trkpt>
      <trkpt lat="47.85096" lon="1.86327">
        <ele>90</ele>
        <time>2013-11-03T16:09:07Z</time>
      </trkpt>
      <trkpt lat="47.85091" lon="1.86329">
        <ele>89</ele>
        <time>2013-11-03T16:09:11Z</time>
      </trkpt>
      <trkpt lat="47.85085" lon="1.8633">
        <ele>91</ele>
        <time>2013-11-03T16:09:15Z</time>
      </trkpt>
      <trkpt lat="47.8508" lon="1.86331">
        <ele>92</ele>
        <time>2013-11-03T16:09:19Z</time>
      </trkpt>
      <trkpt lat="47.85074" lon="1.8633">
        <ele>91</ele>
        <time>2013-11-03T16:09:23Z</time>
      </trkpt>
      <trkpt lat="47.85069" lon="1.8633">
        <ele>90</ele>
        <time>2013-11-03T16:09:27Z</time>
      </trkpt>
      <trkpt lat="47.85058" lon="1.86331">
        <ele>89</ele>
        <time>2013-11-03T16:09:35Z</time>
      </trkpt>
      <trkpt lat="47.85053" lon="1.86335">
        <ele>88</ele>
        <time>2013-11-03T16:09:39Z</time>
      </trkpt>
      <trkpt lat="47.85048" lon="1.86332">
        <ele>87</ele>
        <time>2013-11-03T16:09:44Z</time>
      </trkpt>
      <trkpt lat="47.85038" lon="1.86331">
        <ele>86</ele>
        <time>2013-11-03T16:09:51Z</time>
      </trkpt>
      <trkpt lat="47.85033" lon="1.86329">
        <ele>86</ele>
        <time>2013-11-03T16:09:54Z</time>
      </trkpt>
      <trkpt lat="47.85028" lon="1.86327">
        <ele>86</ele>
        <time>2013-11-03T16:09:58Z</time>
      </trkpt>
      <trkpt lat="47.85022" lon="1.86325">
        <ele>87</ele>
        <time>2013-11-03T16:10:02Z</time>
      </trkpt>
      <trkpt lat="47.85017" lon="1.86323">
        <ele>87</ele>
        <time>2013-11-03T16:10:05Z</time>
      </trkpt>
      <trkpt lat="47.85013" lon="1.86324">
        <ele>86</ele>
        <time>2013-11-03T16:10:08Z</time>
      </trkpt>
      <trkpt lat="47.85003" lon="1.86325">
        <ele>84</ele>
        <time>2013-11-03T16:10:15Z</time>
      </trkpt>
      <trkpt lat="47.84998" lon="1.86326">
        <ele>82</ele>
        <time>2013-11-03T16:10:19Z</time>
      </trkpt>
      <trkpt lat="47.84994" lon="1.86329">
        <ele>84</ele>
        <time>2013-11-03T16:10:30Z</time>
      </trkpt>
      <trkpt lat="47.84988" lon="1.86328">
        <ele>85</ele>
        <time>2013-11-03T16:10:35Z</time>
      </trkpt>
      <trkpt lat="47.84983" lon="1.86323">
        <ele>83</ele>
        <time>2013-11-03T16:10:39Z</time>
      </trkpt>
      <trkpt lat="47.84977" lon="1.8632">
        <ele>84</ele>
        <time>2013-11-03T16:10:43Z</time>
      </trkpt>
      <trkpt lat="47.8495" lon="1.86314">
        <ele>91</ele>
        <time>2013-11-03T16:11:03Z</time>
      </trkpt>
      <trkpt lat="47.84945" lon="1.86313">
        <ele>91</ele>
        <time>2013-11-03T16:11:06Z</time>
      </trkpt>
      <trkpt lat="47.8494" lon="1.86312">
        <ele>92</ele>
        <time>2013-11-03T16:11:10Z</time>
      </trkpt>
      <trkpt lat="47.84937" lon="1.86307">
        <ele>95</ele>
        <time>2013-11-03T16:11:16Z</time>
      </trkpt>
      <trkpt lat="47.84933" lon="1.86303">
        <ele>91</ele>
        <time>2013-11-03T16:11:20Z</time>
      </trkpt>
      <trkpt lat="47.84927" lon="1.86302">
        <ele>93</ele>
        <time>2013-11-03T16:11:25Z</time>
      </trkpt>
      <trkpt lat="47.84922" lon="1.863">
        <ele>93</ele>
        <time>2013-11-03T16:11:28Z</time>
      </trkpt>
    </trkseg>
  </trk>
</gpx>